     2.11           OBSERVATION DATA    G (GPS)             RINEX VERSION / TYPE
teqc 2010Oct21 OPUS Account 20111027 16:32:09UTC            PGM / RUN BY / DATE
Q 1522                                                      MARKER NAME
1170                                                        MARKER NUMBER
DBPROUTY NGS                                                OBSERVER / AGENCY
4624K01634 TRIMBLE NETR5 NP 70.55 / SP 451.54               REC # / TYPE / VERS
12668881 TRM41249.00 NONE                                   ANT # / TYPE
  -738054.2754 -5496299.3400  3140267.8893                  APPROX POSITION XYZ
        2.0000        0.0000        0.0000                  ANTENNA: DELTA H/E/N
     1     1                                                WAVELENGTH FACT L1/2
     5    L1    L2    C1    P1    P2                        # / TYPES OF OBSERV
    30.0000                                                 INTERVAL
  2011     8    16     0     0    0.0000000     GPS         TIME OF FIRST OBS
                                                            END OF HEADER
 11  8 16  0  0  0.0000000  0  8G10G04G12G28G17G09G05G02
 -17832511.62448 -13847671.14346  21249541.0234                   21249542.4804
 -20335317.72748 -15792432.48946  20662104.8524                   20662106.0274
 -12486933.228 7  -9712536.170 7  22398284.453
  -3420662.56946  -2625379.49443  24019431.3674                   24019435.7734
 -11607379.077 7  -8997730.303 7  22457932.914
  -8350663.74447  -6254577.35644  22730676.8914                   22730680.2894
  -6499422.346 7  -5048044.433 6  23480127.750
 -20646377.95148 -16039318.17246  20789052.5394                   20789051.0904
 11  8 16  0  0 30.0000000  0  8G10G04G12G28G17G09G05G02
 -17879361.66948 -13884177.63246  21240625.6884                   21240626.6844
 -20276336.24448 -15746472.89946  20673328.9224                   20673329.8014
 -12570454.779 7  -9777617.851 7  22382390.523
  -3321421.24446  -2548048.70243  24038316.6254                   24038319.6294
 -11562932.780 7  -8963096.842 7  22466391.258
  -8291140.37647  -6208195.55545  22742004.1884                   22742007.1374
  -6604614.694 7  -5130012.312 6  23460110.305
 -20673022.87948 -16060080.42846  20783982.3594                   20783980.5664
 11  8 16  0  1  0.0000000  0  8G10G04G12G28G17G09G05G02
 -17925681.78548 -13920271.19745  21231811.1884                   21231812.6454
 -20217039.29048 -15700267.48546  20684612.4924                   20684613.9494
 -12653719.675 7  -9842499.587 7  22366545.875
  -3221962.26646  -2470548.33343  24057242.2584                   24057246.5594
 -11518367.774 7  -8928370.900 7  22474871.281
  -8231213.05547  -6161498.97444  22753407.9924                   22753411.2854
  -6709730.512 7  -5211920.513 6  23440106.992
 -20699311.09748 -16080564.72546  20778979.8834                   20778978.4344
 11  8 16  0  1 30.0000000  0  8G10G04G12G28G17G09G05G02
 -17971469.98748 -13955950.27346  21223097.6094                   21223099.1174
 -20157429.82148 -15653818.56246  20695955.8834                   20695956.9144
 -12736725.949 7  -9907179.753 7  22350750.492
  -3122287.81846  -2392880.08143  24076209.7274                   24076214.9774
 -11473683.822 7  -8893552.243 7  22483374.094
  -8170885.31647  -6114490.40244  22764887.9844                   22764891.6644
  -6814767.266 7  -5293767.111 6  23420118.930
 -20725243.63848 -16100771.87246  20774044.7274                   20774043.1604
 11  8 16  0  2  0.0000000  0  8G10G04G12G28G17G09G05G02
 -18016723.25148 -13991212.53146  21214486.5634                   21214487.4534
 -20097509.37048 -15607127.31146  20707358.4144                   20707359.5164
 -12819469.776 7  -9971655.438 7  22335004.813
  -3022399.02246  -2315044.80243  24095218.3204                   24095223.3634
 -11428879.747 7  -8858640.007 7  22491900.195
  -8110159.44146  -6067171.58444  22776443.7034                   22776447.1334
  -6919721.568 7  -5375549.497 6  23400146.602
 -20750820.02448 -16120701.50446  20769177.7734                   20769176.1214
 11  8 16  0  2 30.0000000  0  8G10G04G12G28G17G09G05G02
 -18061440.33048 -14026056.96946  21205977.1024                   21205977.9654
 -20037281.54248 -15560196.54946  20718819.2664                   20718820.7424
 -12901950.100 7 -10035925.794 7  22319309.805
  -2922299.05946  -2237044.93843  24114267.0084                   24114272.0784
 -11383956.081 7  -8823634.598 7  22500449.133
  -8049039.59646  -6019545.77644  22788074.8594                   22788077.8404
  -7024591.413 7  -5457266.049 6  23380190.195
 -20776042.05748 -16140355.01046  20764378.2034                   20764376.4964
 11  8 16  0  3  0.0000000  0  8G10G04G12G28G17G09G05G02
 -18105618.43248 -14060481.42946  21197569.6724                   21197571.2544
 -19976748.03548 -15513027.60146  20730338.7344                   20730340.0514
 -12984163.834 7 -10099988.389 7  22303664.547
  -2821989.21646  -2158881.54743  24133355.0554                   24133359.9574
 -11338911.812 7  -8788535.180 7  22509021.289
  -7987528.32147  -5971614.96444  22799779.8914                   22799782.6254
  -7129373.447 7  -5538914.179 6  23360250.398
 -20800909.60248 -16159732.30346  20759646.0164                   20759644.4964
 11  8 16  0  3 30.0000000  0  8G10G04G12G28G17G09G05G02
 -18149254.13748 -14094483.24246  21189266.8134                   21189267.4534
 -19915909.86448 -15465621.25046  20741915.8594                   20741916.6174
 -13066107.077 7 -10163840.249 7  22288071.367
  -2721470.41746  -2080555.36243  24152483.3834                   24152488.3874
 -11293745.066 7  -8753340.376 7  22517615.906
  -7925627.87847  -5923380.87444  22811558.9614                   22811561.4774
  -7234063.821 7  -5620490.891 6  23340328.477
 -20825422.12448 -16178832.93546  20754981.2034                   20754979.9224
 11  8 16  0  4  0.0000000  0  8G10G04G12G28G17G09G05G02
 -18192348.53948 -14128063.25546  21181066.1254                   21181067.3714
 -19854772.42548 -15417981.69046  20753550.0634                   20753551.0634
 -13147779.916 7 -10227481.404 7  22272529.641
  -2620747.35646  -2002069.99243  24171650.8524                   24171655.5044
 -11248458.168 7  -8718051.901 7  22526233.492
  -7863344.36847  -5874848.33045  22823411.5084                   22823414.8524
  -7338661.732 7  -5701995.578 6  23320424.297
 -20849583.03748 -16197659.59646  20750383.6954                   20750382.2154
 11  8 16  0  4 30.0000000  0  8G10G04G12G28G17G09G05G02
 -18234896.86148 -14161217.75946  21172969.3914                   21172970.5314
 -19793335.96048 -15370109.12946  20765240.3914                   20765241.7584
 -13229177.667 7 -10290908.196 7  22257040.141
  -2519819.96846  -1923425.40343  24190856.6484                   24190861.7034
 -11203048.313 7  -8682667.647 7  22534874.922
  -7800678.98947  -5826018.22644  22835336.7034                   22835339.5084
  -7443162.815 7  -5783424.806 6  23300538.438
 -20873390.67648 -16216210.97446  20745853.2894                   20745851.4264
 11  8 16  0  5  0.0000000  0  8G10G04G12G28G17G09G05G02
 -18276897.49848 -14193945.48145  21164976.8364                   21164977.5904
 -19731603.17648 -15322005.66946  20776988.0164                   20776989.1334
 -13310298.462 7 -10354119.182 7  22241603.102
  -2418690.84546  -1844623.59943  24210100.7894                   24210105.9264
 -11157515.554 7  -8647187.606 7  22543539.414
  -7737634.87847  -5776892.97544  22847332.5944                   22847336.2464
  -7547564.141 7  -5864776.305 6  23280670.828
 -20896845.98948 -16234487.81546  20741389.7344                   20741388.1024
 11  8 16  0  5 30.0000000  0  8G10G04G12G28G17G09G05G02
 -18318348.04448 -14226244.58846  21157089.0474                   21157090.2424
 -19669576.00848 -15273672.81646  20788791.5704                   20788792.4804
 -13391139.244 7 -10417111.997 7  22226219.758
  -2317361.34346  -1765665.65143  24229383.1724                   24229388.3754
 -11111858.706 7  -8611610.887 7  22552227.703
  -7674214.92447  -5727474.90144  22859401.5864                   22859404.8754
  -7651862.382 7  -5946047.478 6  23260824.328
 -20919949.29448 -16252490.36446  20736993.6254                   20736991.4844
 11  8 16  0  6  0.0000000  0  8G10G04G12G28G17G09G05G02
 -18359246.45348 -14258113.43945  21149306.3984                   21149307.6334
 -19607257.00848 -15225112.57846  20800650.2034                   20800651.7704
 -13471697.668 7 -10479884.770 7  22210889.891
  -2215833.53646  -1686553.23043  24248703.8674                   24248708.8324
 -11066077.856 7  -8575937.537 7  22560938.852
  -7610422.77247  -5677766.78244  22871540.3674                   22871543.6174
  -7756055.243 7  -6027236.531 7  23240996.727
 -20942701.41048 -16270219.26146  20732663.5474                   20732662.0944
 11  8 16  0  6 30.0000000  0  8G10G04G12G28G17G09G05G02
 -18399591.65848 -14289551.22046  21141628.9304                   21141629.8914
 -19544649.48048 -15176327.50246  20812563.9614                   20812565.0824
 -13551971.853 7 -10542436.061 7  22195613.891
  -2114110.69246  -1607288.76543  24268060.7584                   24268066.0824
 -11020173.057 7  -8540167.600 7  22569674.844
  -7546262.53147  -5627771.84444  22883749.8754                   22883752.9104
  -7860140.121 7  -6108341.442 6  23221189.820
 -20965103.71648 -16287675.57546  20728400.8134                   20728398.8794
 11  8 16  0  7  0.0000000  0  8G10G04G12G28G17G09G05G02
 -18439379.84448 -14320554.98345  21134057.3134                   21134059.0744
 -19481754.04948 -15127318.07646  20824532.7584                   20824534.2114
 -13631957.626 7 -10604762.608 7  22180393.602
  -2012192.67146  -1527872.25943  24287455.5704                   24287459.9844
 -10974141.980 7  -8504299.267 7  22578434.219
  -7481735.70746  -5577491.25044  22896029.7114                   22896032.4844
  -7964112.482 7  -6189358.698 7  23201404.508
 -20987154.75148 -16304858.17246  20724204.5944                   20724202.8054
 11  8 16  0  7 30.0000000  0  8G10G04G12G28G17G09G05G02
 -18478610.91948 -14351124.62046  21126591.8444                   21126593.3594
 -19418574.56248 -15078087.32046  20836555.6414                   20836556.5084
 -13711653.789 8 -10666863.495 7  22165227.516
  -1910083.33145  -1448306.67442  24306886.1334                   24306891.2934
 -10927985.946 7  -8468333.555 6  22587217.094
  -7416847.20547  -5526928.80144  22908376.5084                   22908379.7114
  -8067971.414 7  -6270287.562 7  23181640.383
 -21008857.34248 -16321769.26646  20720074.8134                   20720073.0514
 11  8 16  0  8  0.0000000  0  8G10G04G12G28G17G09G05G02
 -18517276.37948 -14381253.52246  21119233.8284                   21119235.7384
 -19355107.20348 -15028632.23646  20848632.9694                   20848634.1524
 -13791051.894 7 -10728732.129 7  22150118.984
  -1807778.71646  -1368588.87142  24326353.7664                   24326360.1954
 -10881697.885 7  -8432264.977 6  22596026.000
  -7351593.74347  -5476081.99744  22920794.3914                   22920797.7234
  -8171707.503 7  -6351120.698 7  23161900.102
 -21030205.63848 -16338404.28246  20716012.1334                   20716010.9694
 11  8 16  0  8 30.0000000  0  7G10G04G12G17G09G05G02
 -18555385.02548 -14410948.54246  21111982.0784                   21111983.4734
 -19291365.09348 -14978963.06546  20860762.4694                   20860763.6214
 -13870160.137 8 -10790374.903 7  22135065.172
 -10835288.112 7  -8396101.517 6  22604857.586
  -7285989.77347  -5424962.09044  22933279.0474                   22933281.5434
  -8275328.825 7  -6431864.417 7  23142181.031
 -21051211.13848 -16354772.17546  20712015.0164                   20712013.3014
 11  8 16  0  9  0.0000000  0  7G10G04G12G17G09G05G02
 -18592929.64448 -14440204.05946  21104837.7584                   21104839.1134
 -19227345.36048 -14929077.57946  20872945.4924                   20872946.5554
 -13948970.397 7 -10851785.446 7  22120067.898
 -10788750.813 7  -8359838.734 6  22613712.539
  -7220032.95247  -5373567.21544  22945829.6564                   22945832.6094
  -8378826.630 7  -6512511.898 6  23122486.641
 -21071869.20748 -16370869.35046  20708083.8984                   20708082.4104
 11  8 16  0  9 30.0000000  0  7G10G04G12G17G09G05G02
 -18629908.96748 -14469019.08146  21097801.0004                   21097801.9454
 -19163051.06348 -14878978.13246  20885179.7894                   20885181.2974
 -14027481.222 7 -10912962.690 7  22105127.688
 -10742086.116 7  -8323476.629 6  22622593.539
  -7153727.85847  -5321900.95244  22958447.6564                   22958449.7194
  -8482199.084 7  -6593061.705 6  23102815.289
 -21092181.40548 -16386697.01246  20704218.4534                   20704217.3524
 11  8 16  0 10  0.0000000  0  7G10G04G12G17G09G05G02
 -18666320.26948 -14497391.50046  21090871.9144                   21090873.0944
 -19098483.79048 -14828665.99346  20897466.5944                   20897467.6414
 -14105689.103 7 -10973903.869 7  22090245.156
 -10695293.042 7  -8287014.520 6  22631498.148
  -7087076.34547  -5269964.75644  22971130.5944                   22971133.8874
  -8585442.314 7  -6673510.826 6  23083168.094
 -21112147.26748 -16402254.81946  20700419.0784                   20700417.5634
 11  8 16  0 10 30.0000000  0  7G10G04G12G17G09G05G02
 -18702161.73848 -14525319.87846  21084051.1484                   21084053.1804
 -19033645.71948 -14778142.83046  20909805.1484                   20909805.7304
 -14183591.042 8 -11034606.640 7  22075421.156
 -10648370.587 7  -8250451.585 7  22640426.484
  -7020081.95547  -5217761.39444  22983879.3834                   22983882.8324
  -8688553.062 7  -6753856.699 6  23063547.211
 -21131767.37948 -16417543.19146  20696685.3594                   20696683.8914
 11  8 16  0 11  0.0000000  0  7G10G04G12G17G09G05G02
 -18737431.32048 -14552802.64946  21077340.1334                   21077340.8714
 -18968539.01648 -14727410.34146  20922194.5634                   20922195.3284
 -14261184.689 8 -11095069.183 7  22060655.289
 -10601318.380 7  -8213787.563 7  22649380.273
  -6952748.05947  -5165293.47944  22996692.5234                   22996695.0124
  -8791528.404 7  -6834097.081 7  23043951.719
 -21151042.84048 -16432563.01246  20693017.5864                   20693015.8914
 11  8 16  0 11 30.0000000  0  7G10G04G12G17G09G05G02
 -18772129.45348 -14579840.11846  21070736.6174                   21070738.3444
 -18903167.90948 -14676471.83146  20934634.2504                   20934635.1454
 -14338469.336 8 -11155290.952 7  22045948.820
 -10554137.552 7  -8177023.293 7  22658358.531
  -6885079.74247  -5112564.98644  23009569.9224                   23009573.0704
  -8894367.501 7  -6914231.307 6  23024382.383
 -21169975.95648 -16447316.06946  20689414.6334                   20689413.0704
 11  8 16  0 12  0.0000000  0  7G10G04G12G17G09G05G02
 -18806249.32248 -14606427.01546  21064244.1884                   21064245.3984
 -18837530.04048 -14625325.45346  20947124.7194                   20947125.6024
 -14415437.684 8 -11215266.251 7  22031302.031
 -10506822.747 7  -8140154.636 7  22667361.734
  -6817075.51146  -5059574.70944  23022510.0634                   23022512.8674
  -8997062.746 7  -6994253.428 6  23004839.602
 -21188562.46348 -16461799.04346  20685877.6804                   20685876.3204
 11  8 16  0 12 30.0000000  0  7G10G04G12G17G09G05G02
 -18839794.04048 -14632565.73046  21057860.8284                   21057861.8984
 -18771633.02148 -14573977.14246  20959664.6024                   20959665.5824
 -14492091.947 8 -11274996.791 7  22016715.273
 -10459378.655 7  -8103185.245 7  22676390.133
  -6748744.10447  -5006329.51844  23035513.2424                   23035516.3484
  -9099616.191 7  -7074165.057 7  22985324.258
 -21206808.45848 -16476016.68046  20682405.7504                   20682404.1334
 11  8 16  0 13  0.0000000  0  7G10G04G12G17G09G05G02
 -18872759.14248 -14658252.79846  21051588.1414                   21051589.0274
 -18705475.68848 -14522425.98946  20972253.5004                   20972254.6294
 -14568426.921 7 -11334478.545 7  22002189.133
 -10411801.685 7  -8066112.301 7  22685444.563
  -6680085.32947  -4952829.21644  23048578.6884                   23048582.3914
  -9202021.664 7  -7153961.394 6  22965836.656
 -21224711.47548 -16489967.07246  20678998.9924                   20678997.2074
 11  8 16  0 13 30.0000000  0  7G10G04G12G17G09G05G02
 -18905144.33048 -14683487.98046  21045425.5704                   21045426.0234
 -18639062.45848 -14470675.43346  20984891.9774                   20984892.8014
 -14644441.591 8 -11393710.703 7  21987724.125
 -10364092.665 7  -8028936.477 7  22694523.852
  -6611104.34347  -4899077.88144  23061704.9534                   23061708.7424
  -9304277.721 7  -7233641.292 7  22946377.570
 -21242273.92048 -16503652.07146  20675657.0864                   20675655.4534
 11  8 16  0 14  0.0000000  0  7G10G04G12G17G09G05G02
 -18936947.52248 -14708269.66646  21039372.9924                   21039373.9384
 -18572394.76248 -14418726.59646  20997578.2734                   20997579.6414
 -14720132.722 8 -11452690.768 7  21973320.195
 -10316250.744 7  -7991657.074 7  22703627.570
  -6541804.02247  -4845077.67644  23074892.3134                   23074896.0594
  -9406381.023 7  -7313202.166 6  22926947.742
 -21259496.11148 -16517071.94246  20672379.7194                   20672378.3324
 11  8 16  0 14 30.0000000  0  7G10G04G12G17G09G05G02
 -18968166.01348 -14732595.73546  21033432.2814                   21033433.5004
 -18505474.21248 -14366580.73446  21010312.8754                   21010314.3054
 -14795497.031 8 -11511416.163 7  21958978.977
 -10268274.409 7  -7954272.951 7  22712756.758
  -6472186.95047  -4790830.65744  23088139.6254                   23088143.7304
  -9508327.454 7  -7392640.792 7  22907548.109
 -21276377.76348 -16530226.46646  20669167.0634                   20669165.6134
 11  8 16  0 15  0.0000000  0  7G10G04G12G17G09G05G02
 -18998801.04048 -14756467.14346  21027602.5864                   21027603.8714
 -18438305.93648 -14314241.84646  21023094.4304                   21023095.7894
 -14870534.694 8 -11569887.045 7  21944700.109
 -10220165.894 7  -7916785.826 7  22721911.859
  -6402259.15447  -4736341.53644  23101447.9064                   23101451.3164
  -9610117.216 7  -7471957.356 7  22888177.813
 -21292922.61648 -16543118.53246  20666018.2194                   20666016.6914
 11  8 16  0 15 30.0000000  0  7G10G04G12G17G09G05G02
 -19028846.91348 -14779879.48446  21021885.4064                   21021886.1414
 -18370888.35548 -14261708.69246  21035923.7034                   21035924.7584
 -14945239.517 7 -11628098.570 7  21930484.055
 -10171920.861 7  -7879192.316 7  22731092.117
  -6332020.39347  -4681610.09144  23114813.3754                   23114816.7544
  -9711743.353 7  -7551146.379 7  22868838.813
 -21309127.56048 -16555745.74646  20662935.1334                   20662933.4104
 11  8 16  0 16  0.0000000  0  7G10G04G12G17G09G05G02
 -19058304.91248 -14802833.75646  21016279.3834                   21016280.4734
 -18303226.47048 -14208985.15446  21048799.4304                   21048800.4964
 -15019611.251 7 -11686050.564 7  21916331.156
 -10123541.401 7  -7841494.061 7  22740298.703
  -6261476.44547  -4626640.86944  23128236.7274                   23128240.7344
  -9813205.844 7  -7630207.929 7  22849531.625
 -21324995.94448 -16568110.69946  20659915.4304                   20659913.9384
 11  8 16  0 16 30.0000000  0  7G10G04G12G17G09G05G02
 -19087172.61448 -14825328.03946  21010785.7424                   21010787.3094
 -18235321.63448 -14156072.30646  21061721.1564                   21061722.5164
 -15093646.707 7 -11743740.499 7  21902242.641
 -10075026.177 7  -7803690.013 7  22749530.711
  -6190629.80947  -4571435.73144  23141718.7734                   23141722.7664
  -9914500.653 7  -7709138.805 7  22830256.305
 -21340527.59648 -16580213.25946  20656959.4924                   20656958.1804
 11  8 16  0 17  0.0000000  0  7G10G04G12G17G09G05G02
 -19115446.95348 -14847359.96946  21005405.6564                   21005407.0004
 -18167174.60248 -14102970.75646  21074689.0164                   21074690.8364
 -15167341.780 7 -11801165.212 7  21888219.375
 -10026373.116 7  -7765778.557 7  22758788.891
  -6119482.28246  -4515996.19144  23155258.2734                   23155262.7774
 -10015623.274 7  -7787935.525 7  22811012.250
 -21355722.03548 -16592053.06746  20654067.9774                   20654066.8634
 11  8 16  0 17 30.0000000  0  7G10G04G12G17G09G05G02
 -19143128.73148 -14868930.16046  21000138.0944                   21000138.8874
 -18098790.09048 -14049684.15446  21087702.2974                   21087703.7624
 -15240696.152 8 -11858324.441 7  21874260.523
  -9977583.676 7  -7727760.846 7  22768073.586
  -6048039.66747  -4460326.68744  23168853.6954                   23168857.0354
 -10116572.858 7  -7866597.387 7  22791802.156
 -21370582.23348 -16603632.42746  20651240.3524                   20651238.9574
 11  8 16  0 18  0.0000000  0  7G10G04G12G17G09G05G02
 -19170215.70348 -14890036.87546  20994983.5234                   20994984.7074
 -18030169.63648 -13996213.69446  21100760.5474                   21100761.9144
 -15313706.457 7 -11915215.583 7  21860366.711
  -9928657.006 7  -7689636.200 6  22777384.164
  -5976304.90447  -4404429.54744  23182504.1884                   23182507.8954
 -10217346.162 7  -7945121.934 7  22772626.164
 -21385108.27448 -16614951.39146  20648476.1804                   20648474.8984
 11  8 16  0 18 30.0000000  0  7G10G04G12G17G09G05G02
 -19196706.69148 -14910679.17546  20989942.6174                   20989943.6684
 -17961315.44248 -13942561.09946  21113862.8054                   21113864.3484
 -15386371.005 8 -11971837.303 7  21846538.648
  -9879592.493 7  -7651404.123 7  22786720.320
  -5904281.24447  -4348307.25444  23196209.9614                   23196213.3524
 -10317940.036 7  -8023506.638 7  22753482.883
 -21399301.48048 -16626011.01246  20645775.4224                   20645773.8914
 11  8 16  0 19  0.0000000  0  7G10G04G12G17G09G05G02
 -19222600.90248 -14930856.46846  20985014.5554                   20985015.5514
 -17892230.81848 -13888728.94446  21127009.4534                   21127010.5944
 -15458687.413 7 -12028187.745 7  21832777.797
  -9830390.496 7  -7613064.940 7  22796083.711
  -5831973.03447  -4291963.28444  23209969.6254                   23209972.9654
 -10418352.277 7  -8101749.805 7  22734375.266
 -21413163.17048 -16636812.30346  20643137.5784                   20643136.1994
 11  8 16  0 19 30.0000000  0  7G10G04G12G17G09G05G02
 -19247895.11848 -14950566.22046  20980201.5634                   20980202.4964
 -17822915.99448 -13834717.41546  21140199.3284                   21140200.6174
 -15530651.103 7 -12084263.336 7  21819083.305
  -9781048.474 7  -7574616.648 6  22805473.391
  -5759381.75247  -4235398.71444  23223783.6024                   23223787.1764
 -10518577.944 7  -8179847.622 7  22715303.492
 -21426692.47648 -16647354.59546  20640562.9144                   20640561.2424
 11  8 16  0 20  0.0000000  0  7G10G04G12G17G09G05G02
 -19272588.42548 -14969807.73246  20975502.4144                   20975503.6214
 -17753374.03248 -13780528.89446  21153433.0164                   21153434.1884
 -15602260.846 7 -12140063.124 7  21805456.797
  -9731566.476 7  -7536059.266 6  22814889.195
  -5686511.52147  -4178616.77344  23237650.2584                   23237653.0234
 -10618615.293 7  -8257798.675 7  22696266.156
 -21439890.30748 -16657638.60446  20638051.4844                   20638050.0434
 11  8 16  0 20 30.0000000  0  7G10G04G12G17G09G05G02
 -19296678.37048 -14988579.10146  20970918.1564                   20970919.0124
 -17683606.00748 -13726164.22346  21166709.2424                   21166710.1374
 -15673512.630 7 -12195583.975 7  21791897.711
  -9681942.556 7  -7497391.308 7  22824332.195
  -5613364.61747  -4121619.25444  23251569.0554                   23251572.6884
 -10718459.791 7  -8335599.452 7  22677266.609
 -21452756.98248 -16667664.56446  20635603.1644                   20635601.7114
 11  8 16  0 21  0.0000000  0  7G10G04G12G17G09G05G02
 -19320166.24648 -15006881.32146  20966448.7274                   20966449.7704
 -17613616.68148 -13671627.09246  21180028.1564                   21180029.2774
 -15744406.542 8 -12250825.970 7  21778407.047
  -9632179.224 7  -7458614.711 6  22833801.875
  -5539946.88947  -4064410.69344  23265540.9454                   23265543.7624
 -10818111.141 7  -8413249.741 7  22658303.508
 -21465295.91848 -16677435.14746  20633216.8834                   20633215.4264
 11  8 16  0 21 30.0000000  0  7G10G04G12G17G09G05G02
 -19343046.76048 -15024710.26546  20962094.5164                   20962095.2154
 -17543404.39148 -13616916.24246  21193389.0234                   21193389.9804
 -15814936.214 7 -12305784.136 7  21764985.555
  -9582272.076 7  -7419726.060 7  22843298.922
  -5466257.72446  -4006990.61644  23279562.7894                   23279566.9344
 -10917561.856 7  -8490743.698 7  22639378.453
 -21477503.82648 -16686947.78346  20630893.6804                   20630892.1564
 11  8 16  0 22  0.0000000  0  8G10G04G12G25G17G09G05G02
 -19365330.28748 -15042074.02746  20957854.2974                   20957855.0904
 -17472983.05848 -13562042.48246  21206789.6334                   21206790.7894
 -15885110.689 8 -12360465.514 7  21751632.016
   -790413.834 6   -600189.872 5  24634528.930
  -9532231.640 7  -7380733.546 6  22852821.125
  -5392312.37747  -3949370.95044  23293633.9614                   23293637.6024
 -11016821.441 7  -8568088.672 7  22620489.914
 -21489393.36148 -16696212.34046  20628631.4454                   20628629.7384
 11  8 16  0 22 30.0000000  0  8G10G04G12G25G17G09G05G02
 -19386998.99848 -15058958.71446  20953730.7034                   20953731.4304
 -17402337.92947 -13506994.34646  21220232.7584                   21220234.3324
 -15954910.520 8 -12414854.964 7  21738349.227
   -893628.030 6   -680616.483 5  24614888.469
  -9482040.549 7  -7341623.634 6  22862371.773
  -5318097.27847  -3891541.06444  23307756.9384                   23307760.4924
 -11115869.656 7  -8645268.985 7  22601641.680
 -21500948.44448 -16705216.28646  20626432.3284                   20626430.8954
 11  8 16  0 23  0.0000000  0  8G10G04G12G25G17G09G05G02
 -19408059.88748 -15075369.76646  20949722.8674                   20949723.9454
 -17331479.54548 -13451780.02946  21233716.9304                   21233718.1294
 -16024341.608 8 -12468957.070 7  21725137.453
   -996733.507 6   -760958.385 5  24595268.234
  -9431707.184 7  -7302402.860 6  22871950.461
  -5243624.34146  -3833510.27744  23321928.7734                   23321932.5044
 -11214711.855 7  -8722288.758 7  22582832.445
 -21512178.26048 -16713966.77746  20624295.7584                   20624293.7544
 11  8 16  0 23 30.0000000  0  8G10G04G12G25G17G09G05G02
 -19428510.74548 -15091305.46746  20945831.1174                   20945832.1214
 -17260409.22948 -13396400.56546  21247240.7974                   21247242.1644
 -16093400.494 8 -12522769.158 7  21711995.773
  -1099726.890 6   -841212.895 6  24575667.938
  -9381229.865 7  -7263069.890 6  22881556.102
  -5168895.87247  -3775280.36844  23336149.2114                   23336153.2664
 -11313344.589 7  -8799145.302 7  22564062.820
 -21523082.75548 -16722463.78046  20622220.5554                   20622218.9844
 11  8 16  0 24  0.0000000  0  8G10G04G12G25G17G09G05G02
 -19448350.68648 -15106765.14646  20942055.9924                   20942056.4304
 -17189130.00048 -13340858.33046  21260805.3204                   21260806.1604
 -16162085.302 8 -12576289.751 7  21698925.609
  -1202606.328 6   -921378.626 6  24556091.383
  -9330608.184 7  -7223624.455 6  22891188.578
  -5093916.10147  -3716854.62044  23350417.4064                   23350420.9144
 -11411765.150 7  -8875836.522 7  22545334.609
 -21533663.47848 -16730708.47946  20620206.7194                   20620205.3094
 11  8 16  0 24 30.0000000  0  8G10G04G12G25G17G09G05G02
 -19467579.21248 -15121748.39546  20938396.7114                   20938397.6174
 -17117644.18948 -13285155.10046  21274408.2344                   21274409.9774
 -16230393.771 8 -12629517.096 7  21685927.016
  -1305369.526 6  -1001453.788 6  24536535.594
  -9279842.442 7  -7184066.725 6  22900849.727
  -5018688.39747  -3658235.67244  23364732.8134                   23364736.9224
 -11509970.492 7  -8952360.039 7  22526645.977
 -21543921.56248 -16738701.78446  20618254.9144                   20618253.5044
 11  8 16  0 25  0.0000000  0  8G10G04G12G25G17G09G05G02
 -19486193.35348 -15136252.89046  20934854.5474                   20934855.4694
 -17045952.19048 -13229291.21445  21288050.8984                   21288052.2304
 -16298321.793 8 -12682447.994 7  21673000.711
  -1408012.327 6  -1081435.130 6  24517003.008
  -9228929.651 7  -7144394.426 6  22910537.242
  -4943214.69847  -3599425.07344  23379095.4924                   23379098.9614
 -11607956.048 7  -9028712.310 7  22508000.242
 -21553856.27948 -16746443.10946  20616364.3674                   20616362.6884
 11  8 16  0 25 30.0000000  0  8G10G04G12G25G17G09G05G02
 -19504194.59448 -15150279.81846  20931429.2114                   20931430.0314
 -16974058.82148 -13173270.42246  21301731.8134                   21301733.3594
 -16365869.506 8 -12735082.544 7  21660146.672
  -1510534.803 6  -1161322.725 6  24497493.344
  -9177872.374 7  -7104609.570 6  22920253.563
  -4867500.72547  -3540427.23844  23393503.8364                   23393506.8054
 -11705721.801 7  -9104893.281 7  22489395.648
 -21563471.16548 -16753935.21846  20614534.8674                   20614533.1804
 11  8 16  0 26  0.0000000  0  8G10G04G12G25G17G09G05G02
 -19521580.69948 -15163827.41446  20928121.0084                   20928121.7974
 -16901965.43948 -13117093.78145  21315450.6804                   21315452.1804
 -16433033.268 8 -12787417.911 7  21647365.766
  -1612933.511 6  -1241113.849 6  24478008.273
  -9126669.095 7  -7064710.908 6  22929997.148
  -4791549.29747  -3481244.36344  23407956.1644                   23407959.7734
 -11803263.558 7  -9180899.742 7  22470834.617
 -21572766.12748 -16761178.03046  20612766.1804                   20612764.6254
 11  8 16  0 26 30.0000000  0  8G10G04G12G25G17G09G05G02
 -19538349.90248 -15176894.30246  20924929.4144                   20924930.7734
 -16829672.95648 -13060761.99445  21329207.6954                   21329209.1374
 -16499809.596 8 -12839451.381 7  21634658.789
  -1715204.925 6  -1320805.767 6  24458546.734
  -9075318.294 7  -7024697.320 6  22939768.695
  -4715362.66347  -3421878.20244  23422454.3444                   23422458.2894
 -11900577.624 7  -9256728.783 7  22452316.039
 -21581740.73848 -16768171.22746  20611058.0784                   20611056.4534
 11  8 16  0 27  0.0000000  0  8G10G04G12G25G17G09G05G02
 -19554500.80848 -15189479.40246  20921856.3054                   20921857.1254
 -16757183.42048 -13004276.65145  21343001.8984                   21343003.1294
 -16566195.817 7 -12891180.872 7  21622025.867
  -1817346.171 6  -1400396.305 6  24439108.922
  -9023818.747 7  -6984567.843 6  22949569.242
  -4638943.92847  -3362331.20744  23436996.5394                   23436999.9024
 -11997660.390 7  -9332377.589 7  22433841.344
 -21590396.16848 -16774915.69946  20609411.2274                   20609409.5394
 11  8 16  0 27 30.0000000  0  8G10G04G12G25G17G09G05G02
 -19570032.92548 -15201582.32646  20918900.3984                   20918901.0354
 -16684499.22248 -12947639.61845  21356833.0004                   21356834.1134
 -16632190.154 8 -12942605.002 7  21609467.758
  -1919355.210 6  -1479883.784 6  24419697.273
  -8972170.789 7  -6944322.684 6  22959397.453
  -4562297.04547  -3302606.41244  23451582.5864                   23451586.1804
 -12094509.250 7  -9407844.120 7  22415411.852
 -21598733.41048 -16781412.23646  20607824.7114                   20607823.1524
 11  8 16  0 28  0.0000000  0  8G10G04G12G25G17G09G05G02
 -19584947.95748 -15213204.40946  20916061.9844                   20916063.1214
 -16611625.09247 -12890854.59345  21370700.4844                   21370701.7584
 -16697792.532 8 -12993723.726 7  21596983.695
  -2021232.028 6  -1559268.210 6  24400310.297
  -8920376.118 7  -6903963.247 6  22969253.492
  -4485427.61047  -3242708.20944  23466209.3524                   23466213.4384
 -12191124.043 7  -9483128.280 7  22397026.555
 -21606756.14848 -16787663.70546  20606297.7584                   20606296.2384
 11  8 16  0 28 30.0000000  0  8G10G04G12G25G17G09G05G02
 -19599241.47948 -15224342.19646  20913342.2664                   20913343.1214
 -16538559.92548 -12833920.73045  21384604.4454                   21384605.9104
 -16762996.750 7 -13044532.184 7  21584575.398
  -2122970.690 6  -1638545.039 6  24380950.359
  -8868430.599 7  -6863486.246 6  22979138.898
  -4408335.88147  -3182636.80044  23480879.8364                   23480883.5274
 -12287498.299 7  -9558224.995 7  22378686.297
 -21614461.97848 -16793668.23646  20604831.3364                   20604830.1094
 11  8 16  0 29  0.0000000  0  8G10G04G12G25G17G09G05G02
 -19612914.72148 -15234996.64946  20910740.1644                   20910741.1254
 -16465308.00547 -12776841.32145  21398544.1644                   21398545.1294
 -16827802.905 7 -13095030.448 7  21572243.250
  -2224570.910 6  -1717713.928 6  24361615.523
  -8816336.211 7  -6822893.271 6  22989052.063
  -4331027.71546  -3122396.73944  23495591.1954                   23495594.9844
 -12383631.371 7  -9633133.766 7  22360393.414
 -21621853.75448 -16799428.05346  20603424.9694                   20603423.5164
 11  8 16  0 29 30.0000000  0  8G10G04G12G25G17G09G05G02
 -19625965.77048 -15245166.26646  20908256.4924                   20908257.6484
 -16391870.68148 -12719617.44145  21412518.6334                   21412519.9024
 -16892207.587 8 -13145215.895 7  21559987.453
  -2326029.381 6  -1796772.401 6  24342309.570
  -8764091.589 7  -6782183.218 7  22998994.094
  -4253505.59147  -3061989.96944  23510342.9064                   23510346.8284
 -12479519.200 7  -9707851.463 7  22342146.414
 -21628931.92548 -16804943.49546  20602077.5394                   20602076.1914
 11  8 16  0 30  0.0000000  0  8G10G04G12G25G17G09G05G02
 -19638394.06148 -15254850.62846  20905891.6884                   20905892.5434
 -16318250.20448 -12662250.86145  21426528.2504                   21426529.8364
 -16956208.898 8 -13195087.014 7  21547808.484
  -2427343.632 6  -1875718.465 6  24323030.289
  -8711696.317 7  -6741355.762 7  23008964.336
  -4175773.03847  -3001419.17844  23525135.4064                   23525138.9104
 -12575159.167 7  -9782376.025 7  22323946.406
 -21635697.60748 -16810215.44546  20600790.4534                   20600789.0354
 11  8 16  0 30 30.0000000  0  8G10G04G12G25G17G09G05G02
 -19650199.46748 -15264049.62346  20903645.0704                   20903646.3364
 -16244449.14048 -12604743.55345  21440572.1024                   21440573.6134
 -17019804.915 7 -13244642.329 7  21535706.445
  -2528511.536 7  -1954550.541 6  24303778.953
  -8659150.156 7  -6700410.731 6  23018963.234
  -4097833.79947  -2940687.39244  23539966.0474                   23539970.4384
 -12670548.693 7  -9856705.411 7  22305794.633
 -21642151.89448 -16815244.73746  20599562.1414                   20599560.6604
 11  8 16  0 31  0.0000000  0  8G10G04G12G25G17G09G05G02
 -19661380.48348 -15272762.07546  20901517.5004                   20901518.5474
 -16170468.86848 -12547096.60045  21454650.0164                   21454651.1374
 -17082992.122 8 -13293879.103 7  21523682.422
  -2629529.889 7  -2033266.130 6  24284555.609
  -8606451.960 7  -6659347.236 6  23028991.945
  -4019690.72047  -2879796.76544  23554836.8914                   23554840.7664
 -12765684.355 7  -9930836.980 7  22287690.625
 -21648295.35348 -16820031.82746  20598393.0234                   20598391.4384
 11  8 16  0 31 30.0000000  0  8G10G04G12G25G17G09G05G02
 -19671936.29048 -15280987.34446  20899508.8284                   20899509.3404
 -16096311.37848 -12489311.54845  21468761.3914                   21468762.8244
 -17145768.023 8 -13342795.368 7  21511736.500
  -2730396.039 7  -2111863.096 6  24265362.477
  -8553601.367 7  -6618165.002 7  23039049.227
  -3941347.07747  -2818749.80843  23569744.3204                   23569748.2704
 -12860562.993 7 -10004768.307 7  22269635.469
 -21654128.71748 -16824577.29046  20597282.9844                   20597281.4774
 11  8 16  0 32  0.0000000  0  8G10G04G12G25G17G09G05G02
 -19681866.09048 -15288724.82446  20897618.8754                   20897619.8014
 -16021978.88548 -12431390.13345  21482906.6484                   21482907.9494
 -17208130.164 7 -13391389.228 7  21499869.453
  -2831107.361 7  -2190339.397 6  24246196.625
  -8500597.569 7  -6576863.383 7  23049134.648
  -3862806.28547  -2757549.29244  23584691.0554                   23584694.2544
 -12955181.613 7 -10078496.977 7  22251630.352
 -21659652.95448 -16828881.87646  20596231.3594                   20596230.3834
 11  8 16  0 32 30.0000000  0  8G10G04G12G25G17G09G05G02
 -19691169.56148 -15295974.24946  20895848.6724                   20895849.4844
 -15947473.63248 -12373334.09845  21497084.8444                   21497085.9534
 -17270076.806 8 -13439659.311 7  21488081.211
  -2931661.616 7  -2268693.325 6  24227062.359
  -8447440.243 6  -6535442.132 7  23059250.398
  -3784072.21647  -2696198.12044  23599673.5084                   23599676.6994
 -13049537.469 7 -10152020.942 7  22233674.859
 -21664869.67948 -16832946.84546  20595239.0474                   20595237.4844
 11  8 16  0 33  0.0000000  0  8G10G04G12G25G17G09G05G02
 -19699846.49948 -15302735.46246  20894196.9774                   20894198.3444
 -15872798.34448 -12315145.57845  21511294.8054                   21511296.1884
 -17331605.727 7 -13487603.909 7  21476372.789
  -3032056.663 7  -2346923.202 6  24207958.008
  -8394129.518 6  -6493901.340 7  23069395.773
  -3705148.79646  -2634699.40044  23614692.0704                   23614695.7154
 -13143628.452 7 -10225338.496 7  22215770.141
 -21669780.33448 -16836773.32346  20594304.2814                   20594302.9494
 11  8 16  0 33 30.0000000  0  8G10G04G12G25G17G09G05G02
 -19707894.53848 -15309006.63446  20892666.0084                   20892666.6484
 -15797953.39148 -12256824.85145  21525537.4224                   21525538.7504
 -17392713.146 8 -13535220.047 7  21464744.344
  -3132288.495 6  -2425025.858 6  24188884.164
  -8340663.403 7  -6452239.458 7  23079570.055
  -3626037.61846  -2573054.44144  23629746.5474                   23629750.7584
 -13237449.829 7 -10298445.966 7  22197916.352
 -21674384.20948 -16840360.74746  20593428.6174                   20593427.1334
 11  8 16  0 34  0.0000000  0  8G10G04G12G25G17G09G05G02
 -19715314.75248 -15314788.60946  20891253.9304                   20891254.8674
 -15722942.30048 -12198374.66545  21539811.1334                   21539812.9304
 -17453398.447 8 -13582507.295 7  21453196.281
  -3232355.842 7  -2503000.380 7  24169841.336
  -8287042.833 6  -6410457.207 7  23089773.242
  -3546743.70247  -2511267.04843  23644835.5704                   23644838.5514
 -13331000.046 7 -10371342.144 7  22180114.234
 -21678683.73348 -16843711.01346  20592610.0084                   20592608.6134
 11  8 16  0 34 30.0000000  0  8G10G04G12G25G17G09G05G02
 -19722105.93948 -15320080.40546  20889961.8134                   20889962.1954
 -15647766.76548 -12139796.34345  21554116.8444                   21554118.5664
 -17513658.489 8 -13629463.156 7  21441729.219
  -3332255.646 6  -2580844.290 7  24150830.586
  -8233266.381 7  -6368553.535 7  23100006.531
  -3467270.12747  -2449339.64943  23659958.8284                   23659962.6174
 -13424275.890 7 -10444024.511 7  22162364.406
 -21682679.18548 -16846824.33646  20591850.0784                   20591848.6454
 11  8 16  0 35  0.0000000  0  8G10G04G12G25G17G09G05G02
 -19728268.80648 -15324882.62246  20888789.0474                   20888789.3794
 -15572429.60748 -12081092.08245  21568453.4614                   21568454.4024
 -17573492.352 8 -13676086.935 7  21430343.211
  -3431986.497 6  -2658556.556 6  24131852.492
  -8179334.940 7  -6326529.045 6  23110270.031
  -3387621.14046  -2387275.57243  23675116.0864                   23675118.9184
 -13517275.484 7 -10516491.641 7  22144667.133
 -21686373.20448 -16849702.77846  20591147.0234                   20591145.4414
 11  8 16  0 35 30.0000000  0  8G10G04G12G25G17G09G05G02
 -19733798.98048 -15329191.83546  20887736.4224                   20887737.2154
 -15496929.66348 -12022260.97645  21582819.8834                   21582821.1214
 -17632893.827 8 -13722373.794 7  21419039.633
  -3531542.160 6  -2736132.258 6  24112908.313
  -8125244.551 7  -6284380.726 6  23120562.656
  -3307796.56647  -2325074.66443  23690305.6414                   23690309.9384
 -13609992.407 7 -10588738.509 7  22127023.438
 -21689763.12448 -16852344.26346  20590501.6724                   20590500.5354
 11  8 16  0 36  0.0000000  0  8G10G04G12G25G17G09G05G02
 -19738700.93248 -15333011.50846  20886803.3914                   20886804.2114
 -15421273.57548 -11963308.19645  21597216.8284                   21597218.8244
 -17691865.232 8 -13768325.517 7  21407817.898
  -3630924.734 6  -2813573.174 6  24093996.242
  -8070999.208 7  -6242111.644 6  23130885.133
  -3227804.94547  -2262743.62943  23705528.3054                   23705531.1054
 -13702428.271 7 -10660766.365 7  22109433.555
 -21692854.63348 -16854753.21446  20589913.2814                   20589912.1954
 11  8 16  0 36 30.0000000  0  8G10G04G12G25G17G09G05G02
 -19742972.00848 -15336339.60446  20885990.9534                   20885991.8094
 -15345461.08248 -11904233.54945  21611643.8444                   21611645.3054
 -17750401.972 8 -13813938.548 7  21396678.344
  -3730129.345 7  -2890875.401 6  24075118.094
  -8016596.136 6  -6199719.667 6  23141237.516
  -3147647.11547  -2200283.04644  23720781.4924                   23720785.0274
 -13794578.077 7 -10732571.323 7  22091897.672
 -21695646.22848 -16856928.45946  20589382.4454                   20589380.7854
 11  8 16  0 37  0.0000000  0  8G10G04G12G25G17G09G05G02
 -19746611.17648 -15339175.29846  20885297.9454                   20885298.9344
 -15269493.80348 -11845038.29245  21626099.8524                   21626101.7504
 -17808501.644 8 -13859210.998 7  21385622.445
  -3829152.939 7  -2968036.601 6  24056274.727
  -7962034.615 7  -6157204.205 6  23151620.672
  -3067325.98047  -2137695.25644  23736066.6024                   23736069.9654
 -13886438.354 7 -10804150.658 7  22074417.125
 -21698138.79848 -16858870.71646  20588907.9534                   20588906.4454
 11  8 16  0 37 30.0000000  0  8G10G04G12G25G17G09G05G02
 -19749618.48148 -15341518.64046  20884726.1644                   20884727.1214
 -15193374.10248 -11785724.26745  21640585.4304                   21640586.5394
 -17866162.108 8 -13904141.231 7  21374649.898
  -3927993.274 7  -3045055.020 5  24037466.109
  -7907314.391 7  -6114565.100 6  23162032.914
  -2986845.41547  -2074983.19044  23751381.1334                   23751384.8554
 -13978006.577 7 -10875502.440 7  22056992.414
 -21700333.59848 -16860580.94546  20588490.2814                   20588488.9734
 11  8 16  0 38  0.0000000  0  8G10G04G12G25G17G09G05G02
 -19751994.29847 -15343369.90046  20884273.9384                   20884274.5004
 -15117104.82448 -11726293.67545  21655098.4694                   21655100.6134
 -17923381.819 8 -13948727.991 7  21363761.422
  -4026648.475 7  -3121929.186 5  24018692.016
  -7852435.282 6  -6071802.185 6  23172476.047
  -2906209.54947  -2012150.14044  23766725.8284                   23766729.2464
 -14069280.494 7 -10946624.881 7  22039623.820
 -21702232.23748 -16862060.38246  20588129.0634                   20588127.8054
 11  8 16  0 38 30.0000000  0  8G10G04G12G25G17G09G05G02
 -19753737.25848 -15344728.03546  20883942.2274                   20883943.1134
 -15040686.70148 -11666747.11045  21669640.6724                   21669642.2664
 -17980157.536 8 -13992968.798 7  21352957.313
  -4125114.897 7  -3198656.264 6  23999954.172
  -7797396.288 6  -6028914.669 6  23182950.281
  -2825420.97547  -1949198.10344  23782099.4144                   23782103.1844
 -14160256.476 7 -11017515.178 7  22022311.367
 -21703835.28448 -16863309.49946  20587823.9614                   20587822.5904
 11  8 16  0 39  0.0000000  0  8G10G04G12G25G17G09G05G02
 -19754847.48347 -15345593.12846  20883730.7584                   20883731.8284
 -14964122.07548 -11607086.36945  21684210.1024                   21684211.7774
 -18036487.461 8 -14036862.241 7  21342238.063
  -4223390.202 7  -3275234.374 6  23981253.023
  -7742197.150 6  -5985902.357 6  23193454.102
  -2744483.15947  -1886129.74244  23797501.7974                   23797505.5164
 -14250931.905 7 -11088171.281 7  22005056.406
 -21705144.00748 -16864329.27046  20587574.8674                   20587573.3094
 11  8 16  0 39 30.0000000  0  8G10G04G12G25G17G09G05G02
 -19755325.07847 -15345965.27246  20883639.6484                   20883640.8634
 -14887413.38848 -11547313.39545  21698807.4304                   21698809.4734
 -18092369.453 8 -14080406.637 7  21331603.742
  -4321472.032 7  -3351661.733 6  23962589.117
  -7686837.585 7  -5942765.062 6  23203989.086
  -2663399.91647  -1822948.06944  23812931.5784                   23812935.5394
 -14341304.163 7 -11158591.134 7  21987858.461
 -21706159.68248 -16865120.68546  20587381.6644                   20587380.2814
 11  8 16  0 40  0.0000000  0  8G10G04G12G25G17G09G05G02
 -19755169.04448 -15345843.67846  20883669.4304                   20883670.1334
 -14810562.16648 -11487429.35045  21713431.9144                   21713433.3244
 -18147801.027 8 -14123600.068 7  21321055.867
  -4419357.430 7  -3427936.018 6  23943961.508
  -7631316.949 7  -5899502.266 6  23214554.125
  -2582174.12046  -1759655.30944  23828387.9614                   23828391.9494
 -14431369.926 7 -11228772.162 7  21970719.961
 -21706882.74248 -16865684.10246  20587244.3984                   20587242.5164
 11  8 16  0 40 30.0000000  0  8G10G04G12G25G17G09G05G02
 -19754379.34747 -15345228.31146  20883820.1484                   20883821.0514
 -14733570.30448 -11427435.70945  21728082.8444                   21728084.4804
 -18202779.860 8 -14166440.699 7  21310593.758
  -4517043.629 7  -3504055.077 7  23925372.914
  -7575634.384 7  -5856113.261 6  23225149.625
  -2500809.10946  -1696254.08544  23843871.2504                   23843875.9804
 -14521126.316 7 -11298712.116 7  21953639.391
 -21707314.15448 -16866020.25946  20587161.7814                   20587160.4104
 11  8 16  0 41  0.0000000  0  8G10G04G12G25G17G09G05G02
 -19752957.19047 -15344120.12046  20884090.8364                   20884091.4384
 -14656441.11848 -11367335.05745  21742760.2814                   21742761.6804
 -18257305.052 8 -14208927.854 7  21300217.844
  -4614529.449 7  -3580017.991 7  23906821.391
  -7519790.825 7  -5812598.824 6  23235777.070
  -2419309.81646  -1632748.25944  23859379.8984                   23859384.7704
 -14610571.774 7 -11368409.792 7  21936618.914
 -21707456.86848 -16866131.46246  20587134.6414                   20587133.0904
 11  8 16  0 41 30.0000000  0  8G10G04G12G25G17G09G05G02
 -19750900.60647 -15342517.56446  20884482.0634                   20884483.2234
 -14579174.75848 -11307127.52045  21757463.5394                   21757464.9414
 -18311372.843 8 -14251058.591 7  21289928.867
  -4711810.640 7  -3655821.421 7  23888309.633
  -7463784.483 7  -5768957.532 6  23246434.070
  -2337677.99347  -1569139.12744  23874914.4304                   23874919.0784
 -14699701.834 7 -11437861.710 7  21919657.539
 -21707310.25248 -16866017.20646  20587162.4924                   20587161.0004
 11  8 16  0 42  0.0000000  0  8G10G04G12G25G17G09G05G02
 -19748210.22148 -15340421.14146  20884994.0394                   20884994.8054
 -14501774.05648 -11246815.29545  21772192.1644                   21772193.8874
 -18364981.823 8 -14292831.812 7  21279727.680
  -4808885.175 7  -3731463.807 7  23869836.703
  -7407615.356 7  -5725189.401 6  23257122.711
  -2255917.70847  -1505429.91644  23890473.4614                   23890477.3954
 -14788514.477 7 -11507066.278 7  21902756.922
 -21706875.75048 -16865678.63146  20587245.4304                   20587244.0084
 11  8 16  0 42 30.0000000  0  8G10G04G12G25G17G09G05G02
 -19744885.73748 -15337830.62046  20885626.5704                   20885627.1484
 -14424240.97348 -11186399.93145  21786946.1644                   21786947.7464
 -18418129.184 8 -14334245.321 7  21269614.281
  -4905750.196 7  -3806942.996 6  23851404.172
  -7351282.990 7  -5681294.078 6  23267842.695
  -2174031.93546  -1441622.89444  23906054.7894                   23906059.6804
 -14877006.615 7 -11576021.121 7  21885917.859
 -21706154.42748 -16865116.54546  20587382.7974                   20587381.0664
 11  8 16  0 43  0.0000000  0  8G10G04G12G25G17G09G05G02
 -19740927.35247 -15334746.14046  20886379.8444                   20886380.2584
 -14346577.12848 -11125882.67545  21801725.0004                   21801726.8094
 -18470813.516 8 -14375298.035 7  21259588.242
  -5002403.214 7  -3882256.968 7  23833011.695
  -7294786.819 7  -5637271.125 6  23278593.531
  -2092024.19446  -1377720.85643  23921660.7974                   23921665.0704
 -14965175.511 7 -11644724.069 7  21869139.836
 -21705147.41148 -16864331.85146  20587574.3914                   20587572.6214
 11  8 16  0 43 30.0000000  0  8G10G04G12G25G17G09G05G02
 -19736335.48447 -15331168.05746  20887253.7504                   20887254.1524
 -14268784.82548 -11065265.32145  21816528.8134                   21816530.2114
 -18523032.754 8 -14415988.326 7  21249651.391
  -5098841.799 7  -3957403.828 6  23814660.523
  -7238126.590 6  -5593120.312 6  23289375.406
  -2009898.15846  -1313726.66144  23937288.7114                   23937293.5234
 -15053018.670 7 -11713173.194 7  21852423.523
 -21703856.07048 -16863325.59046  20587820.3594                   20587818.5124
 11  8 16  0 44  0.0000000  0  8G10G04G12G25G17G09G05G02
 -19731109.10148 -15327095.53846  20888248.2894                   20888248.9884
 -14190865.31848 -11004548.85145  21831356.3284                   21831357.5044
 -18574783.900 8 -14456313.880 7  21239803.594
  -5195062.628 7  -4032381.035 6  23796349.953
  -7181301.141 7  -5548840.760 6  23300189.422
  -1927656.42847  -1249642.26743  23952939.3754                   23952943.3954
 -15140532.730 7 -11781365.893 7  21835770.695
 -21702280.92648 -16862098.20046  20588120.1564                   20588118.2424
 11  8 16  0 44 30.0000000  0  8G10G04G12G25G17G09G05G02
 -19725249.63947 -15322529.70546  20889362.9384                   20889363.6604
 -14112821.63548 -10943735.62545  21846207.5704                   21846209.1604
 -18626066.109 8 -14496274.034 7  21230044.781
  -5291064.171 7  -4107187.389 6  23778081.852
  -7124311.536 7  -5504433.286 6  23311034.141
  -1845303.70946  -1185471.38843  23968610.3834                   23968614.3524
 -15227715.840 7 -11849300.711 7  21819179.695
 -21700424.05547 -16860651.27546  20588473.0234                   20588471.7424
 11  8 16  0 45  0.0000000  0  8G10G04G12G25G17G09G05G02
 -19718755.96048 -15317469.68046  20890598.7344                   20890599.3524
 -14034654.96248 -10882826.56345  21861082.3834                   21861083.9964
 -18676876.187 8 -14535866.288 7  21220375.680
  -5386842.968 7  -4181820.171 6  23759855.703
  -7067156.350 7  -5459896.803 6  23321910.133
  -1762842.55046  -1121216.05443  23984302.0084                   23984306.3754
 -15314564.228 7 -11916974.700 7  21802653.211
 -21698285.58348 -16858984.92946  20588880.1414                   20588878.6564
 11  8 16  0 45 30.0000000  0  8G10G04G12G25G17G09G05G02
 -19711627.80947 -15311915.24646  20891955.1804                   20891955.6334
 -13956366.30148 -10821822.43045  21875980.1724                   21875981.7384
 -18727211.808 8 -14575088.833 7  21210797.070
  -5482395.586 7  -4256276.729 6  23741672.055
  -7009833.827 7  -5415229.931 6  23332818.148
  -1680275.27646  -1056878.02843  24000014.6564                   24000018.1804
 -15401074.375 7 -11984385.137 7  21786190.867
 -21695866.36848 -16857099.81546  20589340.5474                   20589339.4454
 11  8 16  0 46  0.0000000  0  8G10G04G12G25G17G09G05G02
 -19703866.52548 -15305867.48946  20893432.1724                   20893432.7774
 -13877958.82548 -10760725.73745  21890900.7974                   21890902.1024
 -18777072.034 8 -14613940.936 7  21201309.227
  -5577720.829 7  -4330556.132 6  23723531.930
  -6952345.566 7  -5370433.898 6  23343757.688
  -1597606.75746   -992461.08743  24015746.0084                   24015750.4344
 -15487245.245 8 -12051531.206 7  21769792.820
 -21693168.96548 -16854997.93346  20589853.3444                   20589852.1094
 11  8 16  0 46 30.0000000  0  8G10G04G12G25G17G09G05G02
 -19695470.82448 -15299325.37046  20895029.7584                   20895030.7274
 -13799433.15148 -10699536.92845  21905843.5944                   21905844.9494
 -18826453.103 8 -14652419.667 7  21191912.047
  -5672814.537 7  -4404655.059 6  23705435.969
  -6894689.709 7  -5325507.271 6  23354730.008
  -1514839.05647   -927966.90643  24031496.0554                   24031499.7234
 -15573072.321 7 -12118409.380 7  21753460.414
 -21690192.60248 -16852678.67846  20590419.9534                   20590418.5044
 11  8 16  0 47  0.0000000  0  8G10G04G12G25G17G09G05G02
 -19686441.70248 -15292289.68146  20896747.8054                   20896748.7704
 -13720792.15848 -10638258.25445  21920808.7274                   21920810.2814
 -18875354.560 8 -14690524.685 7  21182606.516
  -5767675.098 7  -4478572.393 6  23687384.813
  -6836866.797 7  -5280450.442 6  23365732.539
  -1431976.64047   -863398.89544  24047264.2584                   24047269.1214
 -15658554.049 8 -12185018.455 7  21737193.875
 -21686939.56048 -16850143.83646  20591038.6564                   20591037.4734
 11  8 16  0 47 30.0000000  0  8G10G04G12G25G17G09G05G02
 -19676779.82548 -15284760.93346  20898586.4064                   20898587.2034
 -13642037.66948 -10576891.15245  21935794.9224                   21935797.0314
 -18923774.226 8 -14728254.287 7  21173392.750
  -5862300.068 6  -4552306.065 6  23669377.281
  -6778876.446 7  -5235263.181 6  23376768.445
  -1349022.78947   -798759.62944  24063050.7424                   24063054.1684
 -15743687.811 7 -12251356.369 7  21720993.500
 -21683411.20548 -16847394.44446  20591710.1884                   20591708.5554
 11  8 16  0 48  0.0000000  0  8G10G04G12G25G17G09G05G02
 -19666485.52147 -15276739.38946  20900545.3134                   20900546.3594
 -13563171.85248 -10515437.29845  21950802.3594                   21950804.5864
 -18971710.385 8 -14765607.114 7  21164271.070
  -5956686.996 7  -4625854.290 6  23651417.109
  -6720718.445 7  -5189945.303 7  23387835.563
  -1265980.99447   -734051.80844  24078852.8054                   24078856.9414
 -15828471.187 7 -12317421.280 7  21704859.367
 -21679608.98748 -16844431.66746  20592433.9774                   20592432.3954
 11  8 16  0 48 30.0000000  0  8G10G04G12G25G17G09G05G02
 -19655557.54548 -15268224.06246  20902624.9454                   20902625.4104
 -13484194.91047 -10453896.84745  21965831.2974                   21965832.4454
 -19019159.596 8 -14802580.501 7  21155241.586
  -6050831.487 7  -4699213.551 6  23633501.719
  -6662390.797 7  -5144495.189 6  23398934.688
  -1182853.24547   -669277.00444  24094670.9384                   24094675.5314
 -15912899.862 8 -12383209.797 7  21688793.258
 -21675532.31148 -16841255.02446  20593209.9064                   20593208.3404
 11  8 16  0 49  0.0000000  0  8G10G04G12G25G17G09G05G02
 -19643997.04248 -15259215.85746  20904824.6414                   20904825.5704
 -13405109.57448 -10392271.94445  21980881.1484                   21980882.3404
 -19066120.447 8 -14839173.348 7  21146305.172
  -6144731.941 7  -4772382.696 6  23615633.063
  -6603894.232 7  -5098913.466 6  23410065.648
  -1099643.48247   -604438.33343  24110505.7034                   24110510.0634
 -15996971.870 7 -12448720.387 7  21672794.781
 -21671183.22448 -16837866.11446  20594037.3674                   20594035.6994
 11  8 16  0 49 30.0000000  0  8G10G04G12G25G17G09G05G02
 -19631804.62848 -15249715.26746  20907145.0234                   20907145.5554
 -13325918.07048 -10330564.28345  21995950.5314                   21995951.9654
 -19112591.165 8 -14875384.281 7  21137462.211
  -6238385.772 7  -4845359.689 7  23597811.141
  -6545228.224 6  -5053199.702 6  23421230.195
  -1016355.42847   -539538.64144  24126354.9694                   24126359.4304
 -16080684.690 7 -12513951.074 7  21656864.953
 -21666563.10248 -16834266.00346  20594916.5634                   20594914.7114
 11  8 16  0 50  0.0000000  0  8G10G04G12G25G17G09G05G02
 -19618981.41048 -15239723.12946  20909585.0314                   20909586.0554
 -13246622.75748 -10268775.74445  22011039.9534                   22011041.5944
 -19158570.403 8 -14911212.241 7  21128712.492
  -6331791.102 7  -4918142.975 7  23580037.266
  -6486393.271 6  -5007354.296 6  23432426.383
   -932992.96246   -474580.97744  24142218.9774                   24142222.6024
 -16164036.314 7 -12578900.319 7  21641003.211
 -21661673.81048 -16830456.14746  20595846.7814                   20595845.3594
 11  8 16  0 50 30.0000000  0  8G10G04G12G25G17G09G05G02
 -19605526.29348 -15229238.59446  20912145.4454                   20912146.0984
 -13167224.06048 -10206906.65245  22026148.9064                   22026150.8874
 -19204055.486 8 -14946655.153 7  21120057.148
  -6424943.843 7  -4990729.457 7  23562310.844
  -6427387.671 7  -4961375.928 6  23443654.930
   -849558.17446   -409566.95443  24158096.2344                   24158099.5514
 -16247022.627 8 -12643564.910 7  21625211.867
 -21656515.06748 -16826436.34446  20596828.6564                   20596826.9734
 11  8 16  0 51  0.0000000  0  8G10G04G12G25G17G09G05G02
 -19591440.41448 -15218262.56646  20914825.8364                   20914826.7934
 -13087724.15947 -10144958.69045  22041277.4774                   22041278.6644
 -19249044.537 8 -14981711.549 7  21111495.891
  -6517841.799 7  -5063117.411 7  23544632.773
  -6368211.406 6  -4915264.583 6  23454914.977
   -766054.72646   -344499.40944  24173986.4534                   24173990.2384
 -16329641.408 7 -12707943.110 7  21609489.539
 -21651088.59048 -16822207.90146  20597861.1804                   20597859.5594
 11  8 16  0 51 30.0000000  0  8G10G04G12G25G17G09G05G02
 -19576724.41748 -15206795.53946  20917626.0474                   20917627.1174
 -13008125.20047 -10082933.55845  22056424.3984                   22056426.0554
 -19293536.253 8 -15016380.406 7  21103029.516
  -6610482.744 7  -5135305.092 7  23527003.813
  -6308864.564 7  -4869020.284 6  23466208.539
   -682486.26346   -279381.23743  24189888.5634                   24189893.0904
 -16411890.644 8 -12772033.342 7  21593838.539
 -21645395.62848 -16817771.81246  20598944.4454                   20598942.8524
 11  8 16  0 52  0.0000000  0  8G10G04G12G25G17G09G05G02
 -19561377.81348 -15194837.13346  20920546.4924                   20920547.7544
 -12928428.11447 -10020831.94345  22071590.5234                   22071592.4024
 -19337527.486 8 -15050659.276 7  21094658.250
  -6702863.027 7  -5207289.674 6  23509424.227
  -6249345.760 6  -4822642.031 6  23477534.656
   -598855.23347   -214214.25443  24205802.4614                   24205807.8164
 -16493766.251 7 -12835832.454 7  21578257.844
 -21639436.71148 -16813128.48646  20600078.7814                   20600076.7974
 11  8 16  0 52 30.0000000  0  8G10G04G12G25G17G09G05G02
 -19545402.14548 -15182388.54646  20923586.6804                   20923587.5904
 -12848635.69547  -9958656.05245  22086774.4064                   22086776.0664
 -19381017.557 8 -15084547.624 7  21086382.352
  -6794980.957 7  -5279069.835 7  23491894.516
  -6189655.676 7  -4776130.295 6  23488893.672
   -515165.95646   -149001.93143  24221728.0164                   24221733.7274
 -16575266.945 8 -12899339.418 7  21562748.602
 -21633213.88948 -16808279.53146  20601262.6954                   20601261.0354
 11  8 16  0 53  0.0000000  0  8G10G04G12G25G17G09G05G02
 -19528797.07648 -15169449.51746  20926746.3524                   20926747.7664
 -12768748.98847  -9896406.69345  22101976.6024                   22101978.1914
 -19424004.104 8 -15118043.615 7  21078202.063
  -6886833.313 7  -5350643.051 6  23474416.172
  -6129793.317 7  -4729484.286 6  23500285.492
   -431421.04346    -83746.23643  24237664.3754                   24237668.7934
 -16656389.597 7 -12962551.820 7  21547311.555
 -21626727.54248 -16803225.20646  20602496.8984                   20602495.2934
 11  8 16  0 53 30.0000000  0  8G10G04G12G25G17G09G05G02
 -19511563.32148 -15156020.60846  20930025.5704                   20930027.0634
 -12688769.48647  -9834085.01945  22117195.5234                   22117197.8054
 -19466484.914 8 -15151145.533 7  21070118.242
  -6978417.201 7  -5422007.052 6  23456987.859
  -6069758.170 7  -4682703.678 6  23511709.219
   -347623.51846    -18449.52843  24253610.3754                   24253615.4454
 -16737131.073 8 -13025467.179 7  21531946.891
 -21619978.81848 -16797966.45646  20603781.1254                   20603779.5354
 11  8 16  0 54  0.0000000  0  8G10G04G12G25G17G09G05G02
 -19493702.98848 -15142103.44446  20933424.7194                   20933425.5704
 -12608700.60747  -9771693.69945  22132432.7814                   22132434.0904
 -19508459.667 8 -15183853.103 7  21062130.609
  -7069731.344 7  -5493160.902 6  23439611.867
  -6009551.069 7  -4635789.047 6  23523166.070
   -263778.02746     46884.49943  24269566.5394                   24269570.1684
 -16817490.230 8 -13088084.640 7  21516654.719
 -21612970.16348 -16792505.15746  20605114.7584                   20605113.1254
 11  8 16  0 54 30.0000000  0  8G10G04G12G25G17G09G05G02
 -19475215.14948 -15127697.32146  20936942.6334                   20936943.7584
 -12528542.25947  -9709232.65645  22147686.2034                   22147688.0394
 -19549924.943 8 -15216163.698 7  21054239.953
  -7160771.788 7  -5564101.450 6  23422287.047
  -5949170.660 7  -4588739.385 6  23534656.773
   -179886.67946    112254.29943  24285530.3914                   24285533.8054
 -16897463.199 7 -13150401.187 7  21501436.523
 -21605701.42648 -16786841.20246  20606498.0944                   20606496.6524
 11  8 16  0 55  0.0000000  0  8G10G04G12G25G17G09G05G02
 -19456099.35448 -15112801.88946  20940580.1334                   20940581.5354
 -12448295.25947  -9646702.53645  22162957.3364                   22162958.5514
 -19590878.103 8 -15248075.232 7  21046446.852
  -7251534.674 7  -5634825.740 7  23405015.414
  -5888615.551 7  -4541553.589 6  23546179.289
    -95951.51746    177658.27143  24301502.3284                   24301506.8054
 -16977046.072 8 -13212413.747 7  21486292.242
 -21598172.73248 -16780974.68146  20607930.6954                   20607928.8794
 11  8 16  0 55 30.0000000  0  8G10G04G12G25G17G09G05G02
 -19436358.19148 -15097419.15346  20944337.1884                   20944337.8204
 -12367963.40947  -9584106.29945  22178243.3284                   22178245.2854
 -19631319.504 8 -15279588.005 7  21038751.320
  -7342019.468 7  -5705333.319 6  23387797.000
  -5827887.054 6  -4494232.685 6  23557735.172
    -11977.99746    243092.05143  24317482.7114                   24317487.0984
 -17056238.510 7 -13274122.079 7  21471222.867
 -21590387.36148 -16774908.14846  20609411.7734                   20609410.3794
 11  8 16  0 56  0.0000000  0  8G10G04G12G25G17G09G05G02
 -19415992.06748 -15081549.42546  20948212.5704                   20948213.8244
 -12287548.11647  -9521445.04445  22193545.9694                   22193548.0664
 -19671247.015 8 -15310700.344 7  21031153.156
  -7432223.063 7  -5775621.780 7  23370631.484
  -5766984.433 7  -4446776.101 6  23569325.547
     72031.01746    308553.53243  24333468.1484                   24333473.0824
 -17135037.625 8 -13335523.913 7  21456227.461
 -21582346.09148 -16768642.21546  20610942.1484                   20610940.4344
 11  8 16  0 56 30.0000000  0  8G10G04G12G25G17G09G05G02
 -19395000.87248 -15065192.64146  20952206.9304                   20952207.6684
 -12207049.77547  -9458719.06045  22208864.6804                   22208866.0394
 -19710657.344 8 -15341409.678 7  21023653.352
  -7522141.640 7  -5845688.140 7  23353520.680
  -5705906.509 7  -4399182.941 6  23580948.133
    156073.79446    374041.33242  24349461.4534                   24349465.8554
 -17213439.264 8 -13396616.044 7  21441308.375
 -21574048.68048 -16762176.68446  20612521.0554                   20612519.3594
 11  8 16  0 57  0.0000000  0  8G10G04G12G25G17G09G05G02
 -19373387.15248 -15048350.77746  20956319.7584                   20956320.5864
 -12126471.83847  -9395931.04745  22224197.2424                   22224199.3134
 -19749550.634 8 -15371716.119 7  21016252.586
  -7611774.560 7  -5915531.905 7  23336463.781
  -5644654.741 7  -4351454.294 6  23592603.336
    240144.74946    439551.07943  24365459.9694                   24365464.1804
 -17291443.221 8 -13457398.287 7  21426464.250
 -21565498.47248 -16755514.18046  20614148.3364                   20614146.4414
 11  8 16  0 57 30.0000000  0  8G10G04G12G25G17G09G05G02
 -19351149.61748 -15031022.80046  20960551.1724                   20960552.2624
 -12045814.12547  -9333080.91345  22239546.2584                   22239548.2344
 -19787924.215 8 -15401617.597 7  21008949.906
  -7701116.988 7  -5985149.346 6  23319462.367
  -5583227.020 6  -4303588.527 6  23604292.680
    324243.17746    505082.22043  24381463.2814                   24381468.2304
 -17369044.715 8 -13517866.914 7  21411697.188
 -21556694.49648 -16748653.93546  20615823.6644                   20615821.9924
 11  8 16  0 58  0.0000000  0  8G10G04G12G25G17G09G05G02
 -19328290.37048 -15013210.38946  20964901.4454                   20964902.6414
 -11965079.60047  -9270170.89445  22254909.6564                   22254911.8754
 -19825777.226 8 -15431113.424 7  21001747.117
  -7790167.660 7  -6054539.431 7  23302516.391
  -5521624.294 6  -4255586.396 6  23616015.750
    408364.07646    570630.88043  24397470.4774                   24397476.0124
 -17446242.497 8 -13578020.976 7  21397006.656
 -21547639.24348 -16741597.90046  20617546.8204                   20617545.2664
 11  8 16  0 58 30.0000000  0  8G10G04G12G25G17G09G05G02
 -19304808.64348 -14994912.91946  20969370.1954                   20969370.9924
 -11884268.32047  -9207201.08345  22270288.2664                   22270289.2974
 -19863106.088 8 -15460200.828 7  20994643.688
  -7878922.490 7  -6123698.997 7  23285627.289
  -5459844.454 6  -4207446.298 6  23627771.359
    492505.97146    636195.88443  24413483.1884                   24413488.0234
 -17523032.829 8 -13637857.529 7  21382394.219
 -21538332.15948 -16734345.60346  20619317.7114                   20619315.9414
 11  8 16  0 59  0.0000000  0  8G10G04G12G25G17G09G05G02
 -19280708.57548 -14976133.63146  20973956.2894                   20973956.8634
 -11803385.09247  -9144175.20545  22285679.2274                   22285681.2934
 -19899912.117 8 -15488880.828 7  20987639.703
  -7967381.711 7  -6192628.215 6  23268793.664
  -5397890.495 6  -4159170.481 6  23639560.898
    576662.67346    701772.39243  24429498.2274                   24429502.3324
 -17599416.005 8 -13697376.814 7  21367858.742
 -21528777.65348 -16726900.53346  20621135.9064                   20621134.7194
 11  8 16  0 59 30.0000000  0  8G10G04G12G25G17G09G05G02
 -19255987.69948 -14956870.60746  20978660.2814                   20978661.3444
 -11722428.21347  -9081091.92445  22301084.7114                   22301085.9924
 -19936190.752 8 -15517149.885 7  20980735.977
  -8055539.397 7  -6261322.490 7  23252018.180
  -5335758.604 7  -4110756.040 6  23651385.344
    660834.06346    767360.38843  24445514.0704                   24445519.5704
 -17675386.489 8 -13756574.527 7  21353401.797
 -21518973.65248 -16719261.04846  20623001.5234                   20623000.1844
 11  8 16  1  0  0.0000000  0  8G10G04G12G25G17G09G05G02
 -19230648.84748 -14937126.03346  20983481.7584                   20983482.7464
 -11641401.03447  -9017953.87345  22316503.6254                   22316505.4574
 -19971942.658 8 -15545008.491 7  20973932.711
  -8143395.015 7  -6329781.351 7  23235299.734
  -5273450.765 6  -4062204.487 6  23663240.953
    745015.20646    832956.02243  24461534.1724                   24461539.2154
 -17750943.546 8 -13815450.092 7  21339024.313
 -21508923.27348 -16711429.57846  20624914.2424                   20624912.6484
 11  8 16  1  0 30.0000000  0  8G10G04G12G25G17G09G05G02
 -19204691.59148 -14916899.57846  20988421.3984                   20988422.1644
 -11560304.08047  -8954761.43644  22331935.8834                   22331937.0864
 -20007164.566 8 -15572454.111 7  20967230.453
  -8230944.439 7  -6398001.648 7  23218639.586
  -5210965.295 6  -4013514.502 6  23675131.961
    829204.04546    898557.57742  24477554.1334                   24477560.1094
 -17826083.198 8 -13874000.411 7  21324725.523
 -21498626.07648 -16703405.76246  20626873.6094                   20626872.0234
 11  8 16  1  1  0.0000000  0  8G10G04G12G25G17G09G05G02
 -19178118.20747 -14896193.05546  20993478.2504                   20993479.1684
 -11479139.85647  -8891516.61045  22347380.7504                   22347382.8954
 -20041855.747 8 -15599486.190 7  20960628.375
  -8318186.023 7  -6465982.049 7  23202037.758
  -5148302.869 6  -3964686.684 6  23687056.648
    913396.49146    964161.96142  24493575.0164                   24493581.5664
 -17900804.557 8 -13932224.790 7  21310506.188
 -21488084.68748 -16695191.68346  20628879.7034                   20628878.1954
 11  8 16  1  1 30.0000000  0  8G10G04G12G25G17G09G05G02
 -19150929.22147 -14875006.80446  20998652.0784                   20998652.7974
 -11397909.53647  -8828220.27345  22362838.5474                   22362840.3364
 -20076014.502 8 -15626103.388 7  20954128.836
  -8405116.718 7  -6533720.187 7  23185495.539
  -5085462.732 7  -3915720.335 6  23699014.492
    997589.83745   1029767.07642  24509598.0864                   24509603.3714
 -17975104.124 8 -13990120.485 7  21296367.813
 -21477299.79748 -16686787.86046  20630932.0944                   20630930.6914
 11  8 16  1  2  0.0000000  0  8G10G04G12G25G17G09G05G02
 -19123125.67048 -14853341.68546  21003942.7584                   21003943.9264
 -11316614.76547  -8764873.71345  22378308.3674                   22378310.3524
 -20109639.343 8 -15652304.536 7  20947729.859
  -8491734.048 7  -6601214.160 7  23169013.063
  -5022444.675 7  -3866615.358 6  23711006.641
   1081780.87846   1095370.30042  24525618.1024                   24525624.4884
 -18048979.844 8 -14047685.913 7  21282309.305
 -21466272.49848 -16678195.15346  20633030.4384                   20633028.7154
 11  8 16  1  2 30.0000000  0  8G10G04G12G25G17G09G05G02
 -19094707.56448 -14831197.69946  21009350.5784                   21009351.7154
 -11235256.16947  -8701477.41945  22393790.5554                   22393792.0984
 -20142727.621 8 -15678087.596 7  20941433.180
  -8578034.300 7  -6668461.055 7  23152590.188
  -4959247.675 7  -3817370.956 6  23723032.273
   1165967.49946   1160970.12342  24541639.5004                   24541645.1764
 -18122428.339 8 -14104918.446 7  21268332.688
 -21455002.83048 -16669413.57746  20635174.9384                   20635173.1604
 11  8 16  1  3  0.0000000  0  8G10G04G12G25G17G09G05G02
 -19065678.14247 -14808577.36646  21014874.7424                   21014875.6024
 -11153837.38847  -8638034.22345  22409283.4614                   22409285.9534
 -20175280.236 8 -15703453.252 7  20935238.578
  -8664017.076 7  -6735460.593 6  23136228.336
  -4895873.569 6  -3767988.553 6  23735092.305
   1250144.23346   1226562.32043  24557658.1094                   24557663.1524
 -18195449.373 8 -14161817.890 7  21254436.781
 -21443494.39648 -16660445.95646  20637364.9304                   20637363.2504
 11  8 16  1  3 30.0000000  0  8G10G04G12G25G17G09G05G02
 -19036037.12847 -14785480.45046  21020515.3754                   21020516.2664
 -11072358.26747  -8574544.02345  22424789.0634                   22424790.2584
 -20207293.872 8 -15728398.932 7  20929147.039
  -8749677.962 7  -6802209.280 6  23119927.359
  -4832320.144 6  -3718466.432 6  23747185.883
   1334309.57045   1292145.61942  24573673.3594                   24573679.0394
 -18268038.896 8 -14218381.096 7  21240623.734
 -21431746.52648 -16651291.76646  20639600.3834                   20639598.6954
 11  8 16  1  4  0.0000000  0  8G10G04G12G25G17G09G05G02
 -19005786.01147 -14761908.14446  21026271.7974                   21026272.5864
 -10990820.96547  -8511008.48244  22440304.6334                   22440306.3324
 -20238767.700 8 -15752923.976 7  20923157.328
  -8835014.889 7  -6868705.554 7  23103688.695
  -4768587.916 6  -3668804.945 6  23759313.719
   1418459.83746   1357717.07743  24589686.9774                   24589693.1884
 -18340194.841 8 -14274606.457 7  21226892.672
 -21419760.93048 -16641952.33346  20641880.6724                   20641879.6454
 11  8 16  1  4 30.0000000  0  8G10G04G12G25G17G09G05G02
 -18974924.80747 -14737860.43546  21032144.4844                   21032145.5354
 -10909225.76147  -8447427.81044  22455831.8284                   22455833.8204
 -20269698.680 8 -15777026.039 7  20917271.094
  -8920024.031 7  -6934946.401 6  23087512.273
  -4704675.539 6  -3619003.093 6  23771475.211
   1502593.32246   1423275.52743  24605697.3914                   24605702.7464
 -18411913.855 8 -14330491.329 7  21213245.086
 -21407537.43348 -16632427.52546  20644207.2584                   20644205.5664
 11  8 16  1  5  0.0000000  0  8G10G04G12G25G17G09G05G02
 -18943457.40447 -14713340.36546  21038132.5784                   21038133.7074
 -10827576.89547  -8383805.32744  22471368.8284                   22471370.3914
 -20300088.827 8 -15800706.658 7  20911488.500
  -9004705.516 7  -7000931.922 7  23071397.422
  -4640585.521 6  -3569062.848 6  23783672.008
   1586704.13546   1488816.31143  24621702.5784                   24621708.5984
 -18483196.112 8 -14386035.893 7  21199680.328
 -21395080.09448 -16622720.50446  20646577.9304                   20646576.3244
 11  8 16  1  5 30.0000000  0  8G10G04G12G25G17G09G05G02
 -18911381.52147 -14688346.16546  21044236.4534                   21044237.3634
 -10745872.37547  -8320139.49644  22486916.7664                   22486919.0744
 -20329933.180 8 -15823961.983 7  20905808.922
  -9089053.354 7  -7066657.475 7  23055346.680
  -4576314.255 6  -3518981.345 6  23795902.688
   1670792.42246   1554339.49143  24637704.5164                   24637709.8754
 -18554036.185 8 -14441235.891 7  21186200.211
 -21382386.73648 -16612829.57446  20648993.5554                   20648991.2274
 11  8 16  1  6  0.0000000  0  8G10G04G12G25G17G09G05G02
 -18878701.28147 -14662881.01646  21050454.7114                   21050455.9304
 -10664116.46847  -8256433.58244  22502474.4454                   22502475.7464
 -20359232.908 8 -15846792.927 7  20900233.250
  -9173067.579 7  -7132123.068 7  23039358.742
  -4511864.165 6  -3468760.521 6  23808166.602
   1754852.49946   1619840.71443  24653701.1644                   24653706.0204
 -18624434.210 8 -14496091.450 7  21172803.555
 -21369461.08748 -16602757.63346  20651452.6564                   20651450.8244
 11  8 16  1  6 30.0000000  0  8G10G04G12G25G17G09G05G02
 -18845415.38247 -14636943.93646  21056789.5474                   21056790.1884
 -10582308.11147  -8192686.81344  22518042.2424                   22518043.6844
 -20387984.196 8 -15869196.522 7  20894762.328
  -9256743.139 7  -7197324.741 7  23023436.078
  -4447232.337 6  -3418398.067 6  23820465.500
   1838883.86046   1685319.61743  24669691.9694                   24669697.2194
 -18694385.472 8 -14550598.869 7  21159492.461
 -21356301.89748 -16592503.70746  20653956.8834                   20653955.1134
 11  8 16  1  7  0.0000000  0  8G10G04G12G25G17G09G05G02
 -18811528.50747 -14610538.56446  21063237.7034                   21063239.1644
 -10500451.92847  -8128902.77844  22533619.3054                   22533620.6214
 -20416188.784 8 -15891174.122 7  20889395.313
  -9340080.504 7  -7262262.911 7  23007577.680
  -4382422.032 6  -3367896.536 6  23832798.164
   1922880.19946   1750771.16643  24685675.8054                   24685680.6644
 -18763890.982 8 -14604758.947 7  21146265.680
 -21342913.68548 -16582071.33146  20656504.7664                   20656503.2734
 11  8 16  1  7 30.0000000  0  8G10G04G12G25G17G09G05G02
 -18777040.37847 -14583664.68846  21069800.8364                   21069801.5594
 -10418548.30847  -8065081.78144  22549204.6254                   22549206.5164
 -20443844.101 8 -15912723.712 7  20884132.711
  -9423075.780 7  -7326934.502 7  22991784.203
  -4317431.555 6  -3317254.626 6  23845166.531
   2006839.69146   1816194.00042  24701653.3444                   24701657.8674
 -18832947.133 8 -14658568.888 7  21133124.891
 -21329296.07748 -16571460.20446  20659095.6414                   20659094.1214
 11  8 16  1  8  0.0000000  0  8G10G04G12G25G17G09G05G02
 -18741951.16648 -14556322.42946  21076477.7424                   21076478.7894
 -10336597.14847  -8001223.74945  22564799.5704                   22564801.6764
 -20470947.874 8 -15933843.519 7  20878975.094
  -9505725.078 7  -7391336.520 7  22976056.141
  -4252259.632 6  -3266471.310 6  23857567.203
   2090760.75146   1881586.86942  24717621.9144                   24717628.3834
 -18901550.056 8 -14712025.653 7  21120070.297
 -21315448.92348 -16560670.20646  20661730.8914                   20661729.3484
 11  8 16  1  8 30.0000000  0  8G10G04G12G25G17G09G05G02
 -18706262.91047 -14528513.37946  21083269.3054                   21083270.5084
 -10254600.27647  -7937330.12244  22580403.2274                   22580404.9184
 -20497498.875 8 -15954532.603 7  20873922.563
  -9588026.124 7  -7455467.179 6  22960395.445
  -4186906.055 6  -3215546.434 6  23870004.227
   2174639.91445   1946947.08142  24733584.1254                   24733590.4734
 -18969697.872 8 -14765127.796 7  21107102.172
 -21301373.64948 -16549702.45446  20664409.5864                   20664407.9024
 11  8 16  1  9  0.0000000  0  8G10G04G12G25G17G09G05G02
 -18669977.61448 -14500239.11846  21090174.2424                   21090175.0514
 -10172559.93747  -7873402.61844  22596014.3134                   22596017.1374
 -20523496.742 8 -15974790.671 7  20868975.469
  -9669977.146 7  -7519325.091 6  22944800.320
  -4121371.804 6  -3164480.804 6  23882474.258
   2258473.33445   2012271.69242  24749538.1094                   24749543.2814
 -19037389.530 8 -14817874.495 7  21094220.734
 -21287072.44048 -16538558.63946  20667130.8914                   20667129.2424
 11  8 16  1  9 30.0000000  0  8G10G04G12G25G17G09G05G02
 -18633096.36547 -14471500.46146  21097192.2894                   21097192.8444
 -10090477.44547  -7809442.23644  22611634.7664                   22611636.4384
 -20548940.231 8 -15994616.755 7  20864133.484
  -9751575.672 7  -7582908.354 6  22929272.688
  -4055656.592 6  -3113274.153 6  23894979.844
 -51222021.765 5                  24765479.219
 -19104622.697 8 -14870263.915 7  21081426.227
 -21272546.39248 -16527239.63946  20669894.9844                   20669893.9384
 11  8 16  1 10  0.0000000  0  8G10G04G12G25G17G09G05G02
 -18595618.97048 -14442297.29446  21104324.1724                   21104325.3164
 -10008352.38447  -7745448.72744  22627262.6644                   22627264.9304
 -20573825.824 8 -16014008.123 7  20859398.266
  -9832817.051 7  -7646213.294 6  22913812.055
  -3989758.389 6  -3061924.904 6  23907520.609
 -51138286.835 5                  24781413.602
 -19171393.358 8 -14922292.952 7  21068720.266
 -21257794.58148 -16515744.71646  20672702.3284                   20672700.5354
 11  8 16  1 10 30.0000000  0  8G10G04G12G25G17G09G05G02
 -18557550.41448 -14412633.47646  21111568.2894                   21111569.1454
  -9926189.64047  -7681425.80344  22642897.0944                   22642899.3914
 -20598156.645 8 -16032967.190 7  20854767.680
  -9913702.355 7  -7709240.817 6  22898420.531
  -3923680.527 6  -3010435.651 6  23920094.203
 -51054608.566 5                  24797338.695
 -19237702.571 8 -14973962.399 7  21056102.461
 -21242821.81148 -16504077.61546  20675551.5234                   20675549.5984
 11  8 16  1 11  0.0000000  0  8G10G04G12G25G17G09G05G02
 -18518890.56947 -14382508.90446  21118925.1414                   21118925.5434
  -9843989.20047  -7617373.51244  22658539.5554                   22658541.7384
 -20621929.881 8 -16051491.786 7  20850244.109
  -9994227.438 7  -7771987.598 7  22883097.352
  -3857421.219 6  -2958805.016 6  23932702.906
 -50970988.089 5                  24813252.305
 -19303546.975 8 -15025269.675 7  21043572.484
 -21227627.73848 -16492238.06646  20678442.9844                   20678441.0084
 11  8 16  1 11 30.0000000  0  8G10G04G12G25G17G09G05G02
 -18479638.24148 -14351922.66746  21126394.3594                   21126394.9224
  -9761749.64447  -7553290.76145  22674190.0164                   22674191.4534
 -20645141.323 8 -16069578.612 7  20845826.938
 -10074386.887 7  -7834449.462 7  22867843.563
  -3790977.763 6  -2907030.905 6  23945347.023
 -50887425.977 5                  24829151.414
 -19368921.166 8 -15076210.549 7  21031132.078
 -21212210.75448 -16480224.80946  20681376.6644                   20681374.6994
 11  8 16  1 12  0.0000000  0  8G10G04G12G25G17G09G05G02
 -18439799.87048 -14320879.77446  21133975.9304                   21133976.3674
  -9679476.78047  -7489182.06144  22689845.9534                   22689847.6254
 -20667794.384 8 -16087230.334 7  20841516.086
 -10154182.702 7  -7896627.998 7  22852659.070
  -3724354.399 6  -2855116.582 6  23958024.781
 -50803929.408 6                  24845041.727
 -19433827.941 8 -15126787.204 7  21018780.758
 -21196576.24648 -16468042.07046  20684351.7114                   20684349.7464
 11  8 16  1 12 30.0000000  0  7G10G04G12G25G17G05G02
 -18399360.69247 -14289368.71246  21141670.8754                   21141671.3674
  -9597155.95347  -7425035.95645  22705511.0164                   22705513.3094
 -20689872.209 8 -16104433.819 8  20837314.750
 -10233596.325 7  -7958508.698 7  22837546.719
  -3657535.005 6  -2803049.488 6  23970739.852
 -19498249.077 8 -15176985.441 7  21006521.586
 -21180709.78548 -16455678.59046  20687371.1174                   20687369.4414
 11  8 16  1 13  0.0000000  0  7G10G04G12G25G17G05G02
 -18358348.18347 -14257410.89146  21149475.1724                   21149475.9694
  -9514814.48247  -7360873.79945  22721180.3834                   22721181.8674
 -20711399.507 8 -16121208.313 7  20833218.281
 -10312651.229 7  -8020109.873 7  22822503.148
  -3590545.253 6  -2750849.707 6  23983487.578
 -19562208.424 8 -15226823.843 7  20994350.578
 -21164638.16248 -16443155.22646  20690429.3204                   20690427.6254
 11  8 16  1 13 30.0000000  0  7G10G04G12G25G17G05G02
 -18316752.44947 -14224998.63046  21157390.5554                   21157391.4884
  -9432442.21247  -7296687.62444  22736854.8364                   22736856.3914
 -20732363.413 8 -16137543.803 7  20829228.883
 -10391333.187 7  -8081420.460 7  22807531.406
  -3523373.603 6  -2698508.130 6  23996270.758
 -19625692.259 8 -15276291.719 7  20982270.195
 -21148350.94648 -16430463.87346  20693528.5084                   20693526.5274
 11  8 16  1 14  0.0000000  0  7G10G04G12G25G17G05G02
 -18274575.99648 -14192133.85046  21165416.5634                   21165417.3054
  -9350040.89147  -7232478.83344  22752535.5004                   22752537.3054
 -20752763.887 8 -16153440.253 7  20825347.102
 -10469640.330 7  -8142438.970 7  22792628.977
  -3456020.701 6  -2646025.310 6  24009086.617
 -19688699.281 8 -15325388.056 7  20970279.766
 -21131849.81148 -16417605.84346  20696668.5314                   20696666.7704
 11  8 16  1 14 30.0000000  0  7G10G04G12G25G17G05G02
 -18231818.50547 -14158816.30746  21173553.3204                   21173553.3914
  -9267609.99147  -7168246.99244  22768221.1564                   22768223.3794
 -20772598.170 8 -16168895.523 7  20821572.844
 -10547568.317 7  -8203162.035 7  22777799.813
  -3388484.438 6  -2593399.640 6  24021938.438
 -19751225.428 8 -15374109.665 7  20958381.898
 -21115134.36248 -16404580.80146  20699849.5704                   20699847.9264
 11  8 16  1 15  0.0000000  0  7G10G04G12G25G17G05G02
 -18188481.09547 -14125046.87745  21181799.8674                   21181800.5984
  -9185150.61847  -7103992.93244  22783912.7344                   22783914.3134
 -20791864.699 8 -16183908.385 7  20817906.523
 -10625114.083 7  -8263587.247 7  22763043.477
  -3320764.405 6  -2540630.828 5  24034825.086
 -19813268.273 8 -15422454.677 7  20946575.352
 -21098205.21148 -16391389.24346  20703070.9454                   20703069.2344
 11  8 16  1 15 30.0000000  0  7G10G04G12G25G17G05G02
 -18144567.91647 -14090828.81745  21190155.9454                   21190156.6524
  -9102666.27047  -7039719.41544  22799609.5784                   22799610.8634
 -20810564.862 8 -16198479.917 7  20814347.922
 -10702277.611 7  -8323714.628 7  22748359.977
  -3252862.769 6  -2487720.365 6  24047746.516
 -19874828.213 8 -15470423.416 8  20934860.938
 -21081065.65848 -16378033.73346  20706332.5234                   20706330.6564
 11  8 16  1 16  0.0000000  0  7G10G04G12G25G17G05G02
 -18100077.69047 -14056161.08745  21198621.7584                   21198622.6644
  -9020155.16047  -6975425.04544  22815311.2114                   22815312.2384
 -20828694.832 8 -16212607.152 7  20810898.016
 -10779053.395 7  -8383539.898 6  22733749.914
  -3184776.390 6  -2434666.042 6  24060703.008
 -19935900.421 8 -15518012.104 7  20923239.234
 -21063713.92848 -16364512.90546  20709634.7114                   20709632.7304
 11  8 16  1 16 30.0000000  0  7G10G04G12G25G17G05G02
 -18055014.72947 -14021047.08446  21207197.2114                   21207198.2814
  -8937621.28347  -6911112.91244  22831016.4454                   22831017.9304
 -20846256.203 8 -16226291.324 7  20807555.938
 -10855441.635 7  -8443063.167 6  22719213.547
  -3116508.100 6  -2381469.959 6  24073694.195
 -19996485.503 8 -15565221.208 7  20911710.156
 -21046154.25948 -16350830.03646  20712976.1564                   20712974.0904
 11  8 16  1 17  0.0000000  0  7G10G04G12G25G17G05G02
 -18009379.43447 -13985487.10845  21215881.6644                   21215882.6134
  -8855064.26147  -6846782.76844  22846726.5084                   22846727.2034
 -20863246.667 8 -16239530.624 8  20804322.742
 -10931438.145 7  -8502281.184 7  22704751.961
  -3048055.906 6  -2328130.552 6  24086720.344
 -20056579.800 8 -15612047.876 7  20900274.375
 -21028385.40148 -16336984.15746  20716357.3674                   20716355.3594
 11  8 16  1 17 30.0000000  0  7G10G04G12G25G17G05G02
 -17963174.91247 -13949483.57545  21224674.1414                   21224674.8324
  -8772486.75147  -6782436.64244  22862440.6414                   22862441.5664
 -20879666.646 8 -16252325.393 7  20801198.281
 -11007041.677 7  -8561192.994 6  22690364.969
  -2979421.311 6  -2274649.059 6  24099780.750
 -20116182.626 8 -15658491.583 7  20888932.703
 -21010409.98848 -16322977.33046  20719777.9144                   20719775.8164
 11  8 16  1 18  0.0000000  0  7G10G04G12G25G17G05G02
 -17916400.99147 -13913036.33846  21233575.1334                   21233575.2704
  -8689888.26547  -6718074.21344  22878157.8674                   22878159.8284
 -20895513.536 8 -16264673.602 7  20798182.563
 -11082248.082 7  -8619795.344 7  22676053.266
  -2910602.338 6  -2221023.891 6  24112876.313
 -20175290.423 8 -15704549.571 7  20877684.594
 -20992227.65348 -16308809.25546  20723237.9614                   20723236.2234
 11  8 16  1 18 30.0000000  0  7G10G04G12G25G17G05G02
 -17869061.88447 -13876148.72346  21242583.5084                   21242584.5084
  -8607272.17747  -6653698.05444  22893879.0234                   22893881.2704
 -20910788.856 8 -16276576.433 7  20795275.891
 -11157057.187 7  -8678088.141 7  22661817.281
  -2841601.321 6  -2167256.784 6  24126006.336
 -20233903.426 8 -15750221.987 8  20866531.031
 -20973841.75248 -16294482.58446  20726736.4304                   20726734.7894
 11  8 16  1 19  0.0000000  0  7G10G04G12G25G17G05G02
 -17821156.73747 -13838820.02345  21251699.1804                   21251699.7114
  -8524636.90647  -6589306.93744  22909604.3134                   22909606.2114
 -20925488.905 8 -16288031.012 8  20792478.477
 -11231463.680 7  -8736067.181 7  22647658.031
  -2772415.512 6  -2113345.748 6  24139172.414
 -20292016.616 7 -15795504.951 8  20855472.227
 -20955250.48648 -16279995.86946  20730274.4454                   20730272.8444
 11  8 16  1 19 30.0000000  0  7G10G04G12G25G17G05G02
 -17772689.71247 -13801053.49145  21260922.1804                   21260922.9144
  -8441985.83947  -6524903.52044  22925332.3134                   22925334.4654
 -20939615.101 8 -16299038.424 7  20789790.453
 -11305467.337 7  -8793732.331 7  22633576.234
  -2703046.683 6  -2059292.112 6  24152373.563
 -20349631.264 8 -15840399.427 8  20844508.781
 -20936457.07748 -16265351.64346  20733851.0634                   20733849.0084
 11  8 16  1 20  0.0000000  0  7G10G04G12G25G17G05G02
 -17723662.81947 -13762850.70946  21270251.7034                   21270252.5004
  -8359320.45347  -6460488.93644  22941063.4694                   22941065.1844
 -20953167.272 8 -16309598.549 7  20787211.281
 -11379065.931 7  -8851081.857 7  22619570.664
  -2633495.477 6  -2005096.325 6  24165608.328
 -20406745.290 8 -15884903.822 7  20833640.047
 -20917463.13348 -16250551.15846  20737464.9774                   20737463.0904
 11  8 16  1 20 30.0000000  0  7G10G04G12G25G17G05G02
 -17674076.56047 -13724212.05745  21279687.3134                   21279688.1334
  -8276640.69347  -6396063.15344  22956796.8444                   22956798.4304
 -20966143.141 8 -16319709.595 7  20784742.492
 -11452255.865 7  -8908112.920 7  22605643.188
  -2563760.481 6  -1950757.301 6  24178878.234
 -20463355.612 8 -15929015.703 7  20822867.375
 -20898268.32848 -16235594.15646  20741117.7034                   20741115.7774
 11  8 16  1 21  0.0000000  0  7G10G04G12G25G17G05G02
 -17623932.73447 -13685138.94045  21289229.8984                   21289230.7274
  -8193947.50247  -6331626.90444  22972532.7814                   22972534.6954
 -20978542.014 8 -16329371.051 7  20782382.672
 -11525034.388 7  -8964823.442 7  22591793.867
  -2493841.484 6  -1896274.950 6  24192182.789
 -20519459.977 8 -15972733.356 7  20812191.266
 -20878873.48048 -16220481.28646  20744808.5634                   20744806.3324
 11  8 16  1 21 30.0000000  0  7G10G04G12G25G17G05G02
 -17573234.52547 -13645633.83245  21298877.2734                   21298878.0164
  -8111243.14047  -6267181.92744  22988270.7034                   22988272.5664
 -20990363.963 8 -16338582.956 7  20780133.148
 -11597400.270 7  -9021212.400 7  22578023.023
  -2423739.767 7  -1841650.190 6  24205523.633
 -20575057.976 8 -16016056.423 7  20801611.391
 -20859281.26548 -16205214.60846  20748536.5704                   20748534.4024
 11  8 16  1 22  0.0000000  0  7G10G04G12G25G17G05G02
 -17521983.67347 -13605698.08946  21308629.7974                   21308630.8984
  -8028528.10446  -6202728.67544  23004010.9694                   23004012.6214
 -21001607.883 8 -16347344.440 7  20777993.484
 -11669350.546 7  -9077277.511 7  22564331.375
  -2353454.478 6  -1786882.423 6  24218898.547
 -20630147.369 8 -16058983.183 7  20791127.719
 -20839491.60948 -16189794.08846  20752302.5474                   20752300.8554
 11  8 16  1 22 30.0000000  0  7G10G04G12G25G17G05G02
 -17470181.21147 -13565332.53445  21318487.7894                   21318488.5984
  -7945803.03647  -6138267.54144  23019752.9224                   23019754.2734
 -21012272.694 8 -16355654.687 7  20775963.984
 -11740881.989 7  -9133016.257 7  22550719.078
  -2282984.798 7  -1731970.905 6  24232308.211
 -20684725.358 8 -16101511.446 7  20780742.180
 -20819505.04448 -16174220.12846  20756105.8364                   20756104.3404
 11  8 16  1 23  0.0000000  0  7G10G04G12G25G17G05G02
 -17417830.50947 -13524539.76846  21328449.8524                   21328450.6294
  -7863070.46246  -6073800.59144  23035496.6094                   23035498.2154
 -21022359.135 8 -16363514.238 7  20774044.695
 -11811993.716 7  -9188427.950 7  22537187.516
  -2212332.561 6  -1676917.192 6  24245752.867
 -20738791.679 8 -16143641.011 7  20770453.484
 -20799324.13348 -16158494.73446  20759946.0634                   20759944.4064
 11  8 16  1 23 30.0000000  0  7G10G04G12G25G17G05G02
 -17364932.27147 -13483320.35845  21338515.7194                   21338516.6764
  -7780330.21346  -6009327.66444  23051241.9304                   23051243.3834
 -21031865.341 8 -16370921.664 7  20772235.977
 -11882682.109 7  -9243509.785 7  22523735.125
  -2141496.284 6  -1621720.047 5  24259232.555
 -20792343.636 8 -16185369.763 7  20760263.000
 -20778948.62948 -16142617.70246  20763823.4304                   20763821.5744
 11  8 16  1 24  0.0000000  0  8G10G04G12G25G17G29G05G02
 -17311493.12347 -13441679.46145  21348684.5234                   21348685.8914
  -7697587.57347  -5944852.86844  23066987.1024                   23066988.1454
 -21040795.355 8 -16377880.102 7  20770536.273
 -11952949.219 7  -9298263.338 7  22510363.992
  -2070480.266 6  -1566382.853 6  24272746.180
   -350819.691 6   -255787.692 6  24642373.273
 -20845383.892 8 -16226699.795 7  20750169.563
 -20758384.07248 -16126593.35746  20767736.7194                   20767734.7504
 11  8 16  1 24 30.0000000  0  8G10G04G12G25G17G29G05G02
 -17257508.16348 -13399613.26845  21358958.2504                   21358958.2344
  -7614836.90947  -5880371.82844  23082733.4924                   23082735.3484
 -21049141.451 8 -16384383.547 7  20768948.172
 -12022785.551 7  -9352681.213 7  22497074.750
  -1999277.775 7  -1510900.354 6  24286296.344
   -431236.863 6   -318450.326 6  24627069.617
 -20897903.716 7 -16267624.291 8  20740175.594
 -20737624.50048 -16110417.05546  20771686.8524                   20771684.9534
 11  8 16  1 25  0.0000000  0  8G10G04G12G25G17G29G05G02
 -17202981.14247 -13357124.66245  21369333.7814                   21369334.8714
  -7532081.04447  -5815886.72344  23098481.3914                   23098483.1764
 -21056904.966 8 -16390433.025 7  20767470.906
 -12092190.702 7  -9406763.144 7  22483867.164
  -1927890.860 6  -1455274.136 6  24299880.094
   -511723.968 6   -381167.434 6  24611753.984
 -20949903.156 8 -16308143.299 8  20730280.375
 -20716672.78948 -16094091.02946  20775673.8204                   20775672.4614
 11  8 16  1 25 30.0000000  0  8G10G04G12G25G17G29G05G02
 -17147916.87947 -13314217.43945  21379812.2584                   21379813.3914
  -7449323.39947  -5751400.24244  23114229.7734                   23114231.2194
 -21064088.021 8 -16396030.198 7  20766103.648
 -12161164.779 7  -9460509.116 7  22470742.195
  -1856321.634 6  -1399505.910 6  24313498.641
   -592282.415 6   -443940.205 6  24596424.508
 -21001383.201 8 -16348257.582 7  20720484.000
 -20695532.63648 -16077618.18146  20779696.9614                   20779694.9614
 11  8 16  1 26  0.0000000  0  8G10G04G12G25G17G29G05G02
 -17092315.84947 -13270891.96445  21390392.9534                   21390393.4064
  -7366563.82547  -5686912.25644  23129979.3524                   23129980.8554
 -21070688.529 8 -16401173.433 7  20764847.734
 -12229703.891 7  -9513916.190 7  22457699.289
  -1784568.680 6  -1343594.488 6  24327153.086
   -672910.447 6   -506767.133 6  24581081.758
 -21052340.363 8 -16387964.411 8  20710786.891
 -20674203.22348 -16060997.84346  20783755.8444                   20783753.8634
 11  8 16  1 26 30.0000000  0  8G10G04G12G25G17G29G05G02
 -17036179.57347 -13227149.40745  21401075.5554                   21401076.1684
  -7283802.68646  -5622423.05344  23145727.4224                   23145729.0824
 -21076705.600 7 -16405862.042 7  20763702.773
 -12297805.266 7  -9566982.186 7  22444739.711
  -1712631.984 6  -1287539.942 6  24340842.703
   -753607.195 6   -569647.598 6  24565724.531
 -21102773.071 8 -16427262.583 8  20701189.875
 -20652685.34148 -16044230.64746  20787850.6254                   20787848.5744
 11  8 16  1 27  0.0000000  0  8G10G04G12G25G17G29G05G02
 -16979511.46447 -13182992.43045  21411858.5314                   21411859.4224
  -7201042.30247  -5557934.43743  23161476.5554                   23161477.9344
 -21082140.389 7 -16410096.935 7  20762668.422
 -12365467.841 7  -9619706.240 7  22431864.484
  -1640512.774 6  -1231343.082 6  24354565.430
   -834372.860 6   -632581.815 6  24550355.266
 -21152680.973 8 -16466151.824 8  20691692.609
 -20630981.59348 -16027318.62246  20791980.9924                   20791978.9104
 11  8 16  1 27 30.0000000  0  8G10G04G12G25G17G29G05G02
 -16922314.24547 -13138423.16745  21422743.1884                   21422743.9534
  -7118283.85046  -5493447.30843  23177224.1724                   23177225.7384
 -21086992.535 8 -16413877.807 7  20761745.406
 -12432689.657 7  -9672086.847 7  22419072.594
  -1568211.120 6  -1175004.102 6  24368324.617
   -915207.189 6   -695569.475 6  24534972.313
 -21202062.392 8 -16504630.809 7  20682295.789
 -20609092.75648 -16010262.36846  20796145.8444                   20796144.0234
 11  8 16  1 28  0.0000000  0  8G10G04G12G25G17G29G05G02
 -16864588.82947 -13093442.32245  21433728.3284                   21433728.7734
  -7035527.30647  -5428961.66243  23192972.6724                   23192973.8244
 -21091260.247 8 -16417203.284 7  20760932.922
 -12499467.158 7  -9724121.222 7  22406364.781
  -1495725.855 6  -1118522.074 6  24382117.609
   -996108.537 6   -758609.442 6  24519578.281
 -21250914.952 8 -16542697.708 8  20672999.688
 -20587018.99348 -15993062.02846  20800346.2734                   20800344.6844
 11  8 16  1 28 30.0000000  0  8G10G04G12G25G17G29G05G02
 -16806338.41747 -13048052.38345  21444812.5634                   21444813.2274
  -6952774.75547  -5364479.15844  23208719.4144                   23208721.3524
 -21094944.662 7 -16420074.249 7  20760231.742
 -12565799.138 7  -9775808.450 7  22393742.930
  -1423058.259 6  -1061897.928 6  24395945.680
  -1077077.536 6   -821702.054 6  24504170.023
 -21299238.214 8 -16580352.155 8  20663803.992
 -20564762.48948 -15975719.28846  20804581.4064                   20804579.7664
 11  8 16  1 29  0.0000000  0  8G10G04G12G25G17G29G05G02
 -16747564.36247 -13002254.41545  21455997.0944                   21455997.8014
  -6870026.37547  -5299999.87744  23224465.9064                   23224467.2774
 -21098044.112 7 -16422489.383 7  20759641.688
 -12631682.462 7  -9827146.087 7  22381205.242
  -1350207.722 6  -1005131.261 6  24409809.109
  -1158112.401 6   -884846.065 6  24488750.852
 -21347029.678 8 -16617592.216 8  20654709.367
 -20542323.14148 -15958234.06546  20808851.6644                   20808850.0394
 11  8 16  1 29 30.0000000  0  8G10G04G12G25G17G29G05G02
 -16688270.15847 -12956051.13245  21467280.1644                   21467281.0204
  -6787284.31447  -5235525.52544  23240211.8984                   23240213.3754
 -21100560.517 8 -16424450.215 7  20759163.031
 -12697116.194 7  -9878133.360 7  22368753.563
  -1277175.731 6   -948223.194 6  24423706.820
  -1239213.995 6   -948042.031 6  24473316.836
 -21394289.188 8 -16654417.775 7  20645715.820
 -20519703.28248 -15940608.19246  20813156.2114                   20813154.1174
 11  8 16  1 30  0.0000000  0  8G10G04G12G25G17G29G05G02
 -16628455.03147 -12909441.93645  21478662.7194                   21478663.3674
  -6704546.41947  -5171054.41944  23255956.1564                   23255957.6994
 -21102490.047 8 -16425953.715 7  20758796.117
 -12762095.092 7  -9928766.249 7  22356388.305
  -1203959.188 6   -891171.309 6  24437639.883
  -1320378.638 6  -1011287.074 6  24457871.820
 -21441012.194 8 -16690825.267 8  20636824.930
 -20496901.11548 -15922840.25346  20817494.8914                   20817493.1954
 11  8 16  1 30 30.0000000  0  8G10G04G12G25G17G29G05G02
 -16568124.58947 -12862431.20145  21490143.0394                   21490143.5084
  -6621817.11447  -5106590.00444  23271699.1564                   23271700.7814
 -21103835.734 7 -16427002.292 7  20758540.063
 -12826620.011 7  -9979045.381 7  22344109.734
  -1130561.315 6   -833978.131 6  24451606.758
  -1401608.941 6  -1074583.297 6  24442412.883
 -21487200.447 8 -16726816.081 8  20628035.555
 -20473920.55348 -15904933.30246  20821868.0164                   20821866.4734
 11  8 16  1 31  0.0000000  0  8G10G04G12G25G17G29G05G02
 -16507279.25747 -12815019.23945  21501721.4774                   21501721.7544
  -6539095.72147  -5042131.77944  23287440.4844                   23287442.2304
 -21104595.596 8 -16427594.366 7  20758395.523
 -12890687.046 7 -10028967.715 7  22331918.031
  -1056980.546 6   -776642.455 6  24465608.297
  -1482902.480 6  -1137928.803 5  24426943.508
 -21532851.014 8 -16762387.902 8  20619348.813
 -20450761.06848 -15886886.95846  20826275.0474                   20826273.7814
 11  8 16  1 31 30.0000000  0  8G10G04G12G25G17G29G05G02
 -16445921.90647 -12767208.31345  21513397.3444                   21513398.1684
  -6456383.20547  -4977680.47944  23303180.2344                   23303181.8054
 -21104769.747 8 -16427730.061 7  20758361.992
 -12954294.393 7 -10078531.856 7  22319814.234
   -983217.554 5   -719164.746 5  24479644.656
  -1564258.918 7  -1201323.316 5  24411462.461
 -21577962.755 8 -16797539.875 8  20610764.094
 -20427423.91548 -15868702.15946  20830716.0784                   20830714.6174
 11  8 16  1 32  0.0000000  0  8G10G04G12G25G17G29G05G02
 -16384056.83947 -12719001.77845  21525170.0084                   21525170.7114
  -6373682.65847  -4913238.48144  23318917.7114                   23318919.1214
 -21104359.950 8 -16427410.716 7  20758440.242
 -13017441.924 7 -10127737.691 7  22307797.836
   -909274.317 5   -661546.594 5  24493715.594
  -1645679.823 7  -1264768.139 5  24395968.758
 -21622536.577 8 -16832272.684 8  20602281.992
 -20403912.35748 -15850381.45046  20835190.2344                   20835188.7274
 11  8 16  1 32 30.0000000  0  8G10G04G12G25G17G29G05G02
 -16321680.99647 -12670397.20945  21537040.1644                   21537040.6724
  -6290989.77847  -4848802.45644  23334653.3364                   23334655.6174
 -21103361.086 8 -16426632.368 7  20758630.266
 -13080122.089 7 -10176579.343 7  22295869.430
   -835145.697 5   -603783.955 5  24507822.023
  -1727159.136 6  -1328258.463 5  24380462.578
 -21666565.492 8 -16866580.895 7  20593903.313
 -20380221.75248 -15831921.24146  20839698.0084                   20839696.9384
 11  8 16  1 33  0.0000000  0  7G10G04G12G25G29G05G02
 -16258803.90747 -12621402.07745  21549005.3444                   21549005.1804
  -6208312.40347  -4784378.53344  23350386.3134                   23350388.2274
 -21101780.438 8 -16425400.685 7  20758931.031
 -13142339.874 8 -10225060.716 7  22284030.477
  -1808703.162 6  -1391799.268 6  24364945.805
 -21710055.516 8 -16900469.184 8  20585627.492
 -20356360.53848 -15813328.07746  20844239.3204                   20844237.0864
 11  8 16  1 33 30.0000000  0  7G10G04G12G25G29G05G02
 -16195422.60047 -12572014.04245  21561065.9144                   21561066.4224
  -6125646.08047  -4719963.21044  23366118.0164                   23366119.5084
 -21099611.382 8 -16423710.495 7  20759343.664
 -13204087.643 8 -10273175.826 7  22272280.188
  -1890305.571 6  -1455385.533 6  24349416.578
 -21752999.784 8 -16933932.205 8  20577455.500
 -20332323.89348 -15794598.21346  20848813.2814                   20848811.3594
 11  8 16  1 34  0.0000000  0  7G10G04G12G25G29G05G02
 -16131542.42647 -12522237.28045  21573222.0634                   21573221.8714
  -6042995.18347  -4655559.91844  23381844.5004                   23381846.9884
 -21096858.518 7 -16421565.397 7  20759867.781
 -13265366.589 8 -10320925.617 7  22260619.336
  -1971969.101 6  -1519019.401 6  24333878.023
 -21795400.336 8 -16966971.565 8  20569386.898
 -20308116.43948 -15775735.25246  20853419.3204                   20853417.8404
 11  8 16  1 34 30.0000000  0  7G10G04G12G25G29G05G02
 -16067164.57748 -12472072.71345  21585473.0394                   21585473.2894
  -5960358.95646  -4591168.03343  23397570.1884                   23397571.7854
 -21093519.978 8 -16418963.919 7  20760503.125
 -13326173.100 8 -10368307.281 7  22249047.891
  -2053691.695 6  -1582699.344 6  24318325.992
 -21837254.253 8 -16999584.966 8  20561422.367
 -20283737.53148 -15756738.69346  20858058.5784                   20858057.4614
 11  8 16  1 35  0.0000000  0  7G10G04G12G25G29G05G02
 -16002291.25747 -12421522.07645  21597817.2974                   21597818.0394
  -5877738.19246  -4526788.21343  23413291.9844                   23413294.6454
 -21089595.647 8 -16415905.987 7  20761249.602
 -13386504.982 8 -10415319.093 7  22237567.180
  -2135472.667 6  -1646424.742 6  24302764.102
 -21878560.494 8 -17031771.603 8  20553561.977
 -20259188.07548 -15737609.22146  20862730.0704                   20862729.0124
 11  8 16  1 35 30.0000000  0  7G10G04G12G25G29G05G02
 -15936924.70448 -12370587.09745  21610256.8134                   21610257.2934
  -5795133.24346  -4462420.70243  23429010.9774                   23429013.1024
 -21085084.778 8 -16412391.002 7  20762108.578
 -13446359.764 8 -10461959.154 7  22226177.227
  -2217310.591 6  -1710194.546 6  24287190.484
 -21919317.622 8 -17063530.361 8  20545806.109
 -20234468.37348 -15718347.11446  20867434.2424                   20867432.6484
 11  8 16  1 36  0.0000000  0  7G10G04G12G25G29G05G02
 -15871067.85047 -12319270.06345  21622788.6564                   21622789.7234
  -5712546.04346  -4398067.04243  23444725.8674                   23444728.3714
 -21079988.089 8 -16408419.536 8  20763077.602
 -13505736.126 8 -10508226.418 7  22214878.227
  -2299205.402 6  -1774008.610 6  24271606.688
 -21959525.161 8 -17094860.884 8  20538154.859
 -20209580.53948 -15698953.97646  20872170.5474                   20872168.8054
 11  8 16  1 36 30.0000000  0  7G10G04G12G25G29G05G02
 -15804723.85947 -12267573.43845  21635413.4384                   21635414.5744
  -5629977.76346  -4333728.11243  23460439.0004                   23460441.3164
 -21074306.966 8 -16403992.677 7  20764158.773
 -13564632.574 8 -10554119.690 7  22203670.156
  -2381156.917 6  -1837866.903 6  24256011.445
 -21999182.188 8 -17125762.418 8  20530608.031
 -20184525.82148 -15679430.80346  20876938.2664                   20876936.2974
 11  8 16  1 37  0.0000000  0  7G10G04G12G25G29G05G02
 -15737893.56248 -12215497.88745  21648131.1954                   21648131.3954
  -5547427.49746  -4269403.25143  23476148.8834                   23476150.5474
 -21068039.363 8 -16399108.824 7  20765351.391
 -13623045.333 8 -10599636.098 7  22192554.789
  -2463163.020 6  -1901767.755 6  24240406.078
 -22038286.195 8 -17156233.035 8  20523167.203
 -20159303.48748 -15659777.02346  20881737.7034                   20881735.4574
 11  8 16  1 37 30.0000000  0  7G10G04G12G25G29G05G02
 -15670580.39948 -12163046.07445  21660940.5234                   21660941.2074
  -5464897.45846  -4205094.13843  23491853.8284                   23491855.4064
 -21061186.738 8 -16393769.106 7  20766655.711
 -13680973.656 7 -10644775.010 7  22181531.258
  -2545224.027 7  -1965711.314 6  24224791.422
 -22076837.209 8 -17186272.747 8  20515830.945
 -20133915.75548 -15639994.35446  20886568.7734                   20886567.1254
 11  8 16  1 38  0.0000000  0  7G10G04G12G25G29G05G02
 -15602787.89647 -12110220.74745  21673841.1414                   21673841.0084
  -5382389.06447  -4140801.87143  23507553.8834                   23507556.2894
 -21053750.021 8 -16387974.254 7  20768070.445
 -13738416.112 8 -10689535.316 7  22170600.508
  -2627339.653 7  -2029697.486 6  24209164.695
 -22114834.760 8 -17215881.194 8  20508600.453
 -20108364.31248 -15620084.13646  20891430.8364                   20891429.5314
 11  8 16  1 38 30.0000000  0  7G10G04G12G25G29G05G02
 -15534517.86048 -12057023.30845  21686832.0084                   21686832.8054
  -5299903.00647  -4076527.03344  23523251.4924                   23523252.6094
 -21045728.842 8 -16381723.975 7  20769597.305
 -13795370.533 8 -10733915.363 7  22159762.148
  -2709509.040 7  -2093725.504 6  24193528.219
 -22152277.367 8 -17245057.215 8  20501475.250
 -20082649.92448 -15600046.93646  20896324.3914                   20896322.5124
 11  8 16  1 39  0.0000000  0  7G10G04G12G25G29G05G02
 -15465772.81647 -12003455.72645  21699913.4224                   21699914.4064
  -5217439.59047  -4012269.79244  23538943.8674                   23538944.7034
 -21037123.695 8 -16375018.671 7  20771234.820
 -13851834.723 8 -10777913.399 7  22149017.539
  -2791731.151 6  -2157794.612 6  24177882.031
 -22189164.154 8 -17273800.122 8  20494455.852
 -20056773.11548 -15579883.17646  20901248.5944                   20901246.7304
 11  8 16  1 39 30.0000000  0  7G10G04G12G25G29G05G02
 -15396553.14147 -11949518.32945  21713085.7814                   21713086.4804
  -5134997.62447  -3948029.29944  23554631.4224                   23554633.0084
 -21027932.371 8 -16367856.587 7  20772983.906
 -13907804.505 8 -10821526.192 7  22138366.938
  -2874003.064 6  -2221902.569 6  24162225.695
 -22225491.823 8 -17302107.370 8  20487543.055
 -20030732.72447 -15559591.94446  20906203.7034                   20906201.9064
 11  8 16  1 40  0.0000000  0  7G10G04G12G25G29G05G02
 -15326863.42647 -11895214.64945  21726347.7584                   21726348.2194
  -5052579.59046  -3883807.42444  23570315.1024                   23570316.7424
 -21018156.852 8 -16360239.292 7  20774843.789
 -13963279.740 8 -10864753.629 7  22127810.328
  -2956325.606 6  -2286049.945 5  24146560.563
 -22261261.324 8 -17329979.674 8  20480735.984
 -20004531.56848 -15539175.44146  20911189.7274                   20911187.6724
 11  8 16  1 40 30.0000000  0  7G10G04G12G25G29G05G02
 -15256707.52247 -11840547.70145  21739697.4064                   21739698.1564
  -4970187.92547  -3819606.13744  23585993.9454                   23585995.0394
 -21007799.013 8 -16352168.244 7  20776815.133
 -14018260.093 8 -10907595.436 7  22117347.719
  -3038699.477 6  -2350237.327 6  24130885.734
 -22296473.031 8 -17357417.333 8  20474035.828
 -19978172.00048 -15518635.50546  20916205.8364                   20916204.1254
 11  8 16  1 41  0.0000000  0  7G10G04G12G25G29G05G02
 -15186085.43847 -11785517.51245  21753136.3754                   21753136.9804
  -4887820.65347  -3755423.82644  23601667.4304                   23601669.3984
 -20996856.700 8 -16343641.760 7  20778897.078
 -14072740.936 8 -10950048.014 7  22106980.172
  -3121121.243 6  -2414461.958 6  24115200.125
 -22331123.136 8 -17384417.373 8  20467441.641
 -19951652.32048 -15497970.79746  20921252.3054                   20921250.3164
 11  8 16  1 41 30.0000000  0  7G10G04G12G25G29G05G02
 -15115000.28348 -11730126.47545  21766663.4614                   21766663.7854
  -4805479.01147  -3691261.50144  23617336.6254                   23617338.5744
 -20985330.506 8 -16334660.312 7  20781090.727
 -14126720.713 8 -10992110.166 7  22096708.211
  -3203590.435 6  -2478723.551 6  24099505.211
 -22365211.434 8 -17410979.658 8  20460955.000
 -19924973.60448 -15477182.17846  20926329.2344                   20926327.3134
 11  8 16  1 42  0.0000000  0  7G10G04G12G25G29G05G02
 -15043455.35348 -11674377.16645  21780278.1174                   21780278.9024
  -4723164.22346  -3627120.08943  23633000.5554                   23633002.3874
 -20973221.304 8 -16325224.554 7  20783394.867
 -14180198.219 8 -11033780.915 7  22086532.297
  -3286106.902 6  -2543022.006 6  24083804.133
 -22398737.587 8 -17437103.896 8  20454574.875
 -19898137.45848 -15456270.88046  20931435.8914                   20931433.7304
 11  8 16  1 42 30.0000000  0  7G10G04G12G25G29G05G02
 -14971452.34747 -11618270.92245  21793979.4694                   21793980.3714
  -4640876.67846  -3562999.95143  23648659.0084                   23648660.9884
 -20960529.430 8 -16315334.780 7  20785810.281
 -14233171.132 8 -11075058.502 7  22076451.766
  -3368669.353 6  -2607356.328 6  24068093.766
 -22431700.535 8 -17462789.273 8  20448302.375
 -19871144.41548 -15435237.31546  20936572.4694                   20936570.2234
 11  8 16  1 43  0.0000000  0  7G10G04G12G25G29G05G02
 -14898996.78347 -11561812.04245  21807767.9144                   21807768.4264
  -4558619.93246  -3498903.78243  23664312.0234                   23664314.3164
 -20947258.149 8 -16304993.529 7  20788335.430
 -14285640.599 8 -11115943.786 7  22066467.180
  -3451279.739 6  -2671727.955 6  24052373.133
 -22464102.121 8 -17488037.231 8  20442136.859
 -19843998.48248 -15414084.62246  20941737.8834                   20941735.8914
 11  8 16  1 43 30.0000000  0  7G10G04G12G25G29G05G02
 -14826088.39347 -11505000.29945  21821641.1334                   21821642.3444
  -4476391.93046  -3434830.01343  23679959.5314                   23679961.9534
 -20933404.978 8 -16294198.839 7  20790971.500
 -14337601.844 8 -11156433.044 7  22056579.133
  -3533934.474 6  -2736134.183 6  24036644.492
 -22495938.682 8 -17512844.901 8  20436078.383
 -19816697.51548 -15392811.12246  20946933.3204                   20946931.5744
 11  8 16  1 44  0.0000000  0  7G10G04G12G25G29G05G02
 -14752729.88947 -11447837.83945  21835601.4144                   21835602.0434
  -4394192.83046  -3370778.79043  23695601.8674                   23695603.4924
 -20918970.241 8 -16282950.989 7  20793718.484
 -14389052.712 8 -11196524.602 7  22046788.227
  -3616632.108 6  -2800573.850 6  24020907.828
 -22527209.043 8 -17537211.383 8  20430127.836
 -19789242.04948 -15371417.24746  20952157.7584                   20952155.9384
 11  8 16  1 44 30.0000000  0  7G10G04G12G25G29G05G02
 -14678925.86047 -11390328.19845  21849645.3524                   21849645.9144
  -4312025.62146  -3306752.36943  23711236.4064                   23711238.9104
 -20903956.348 8 -16271251.842 7  20796575.383
 -14439993.498 8 -11236218.708 7  22037094.547
  -3699373.833 7  -2865047.881 6  24005162.977
 -22557914.263 8 -17561137.498 8  20424284.992
 -19761634.86748 -15349905.13746  20957411.3674                   20957409.5124
 11  8 16  1 45  0.0000000  0  7G10G04G12G25G29G05G02
 -14604677.29447 -11332472.16245  21863774.6954                   21863775.1214
  -4229889.52646  -3242750.20743  23726866.9774                   23726869.2114
 -20888361.905 8 -16259100.309 7  20799542.813
 -14490420.964 8 -11275512.800 7  22027498.469
  -3782157.130 7  -2929554.330 6  23989408.633
 -22588052.786 8 -17584622.028 8  20418549.250
 -19733875.58648 -15328274.50946  20962693.7894                   20962691.5594
 11  8 16  1 45 30.0000000  0  7G10G04G12G25G29G05G02
 -14529986.96147 -11274271.88745  21877987.5784                   21877988.4184
  -4147784.80246  -3178772.56343  23742491.4454                   23742493.2934
 -20872187.645 8 -16246496.975 7  20802620.734
 -14540333.146 8 -11314405.375 7  22018000.664
  -3864981.127 7  -2994092.450 6  23973647.773
 -22617623.340 8 -17607663.982 8  20412922.133
 -19705964.51447 -15306525.59746  20968004.9304                   20968002.8874
 11  8 16  1 46  0.0000000  0  7G10G04G12G25G29G05G02
 -14454858.11147 -11215729.92745  21892284.3204                   21892284.9384
  -4065713.20947  -3114820.69743  23758108.7734                   23758110.6644
 -20855435.271 8 -16233443.172 7  20805808.289
 -14589729.099 8 -11352895.714 7  22008600.602
  -3947845.649 7  -3058662.149 6  23957879.203
 -22646625.719 8 -17630263.208 8  20407403.609
 -19677903.56648 -15284659.90446  20973344.7114                   20973342.6294
 11  8 16  1 46 30.0000000  0  7G10G04G12G25G29G05G02
 -14379293.63747 -11156848.52045  21906663.9224                   21906664.5664
  -3983675.48347  -3050895.15744  23773720.8524                   23773722.3554
 -20838105.584 8 -16219939.509 7  20809106.313
 -14638607.274 8 -11390982.561 7  21999299.797
  -4030749.839 7  -3123262.754 6  23942103.281
 -22675059.814 8 -17652419.615 8  20401992.258
 -19649693.81648 -15262678.26446  20978713.1334                   20978710.9734
 11  8 16  1 47  0.0000000  0  7G10G04G12G25G29G05G02
 -14303295.90847 -11097629.49845  21921125.5634                   21921126.2814
  -3901671.68447  -2986996.09143  23789325.6724                   23789327.3324
 -20820198.627 8 -16205986.025 7  20812514.023
 -14686965.529 8 -11428664.293 7  21990097.195
  -4113692.533 7  -3187893.402 6  23926319.500
 -22702924.575 8 -17674132.384 8  20396690.172
 -19621335.59148 -15240580.92346  20984109.5234                   20984107.7464
 11  8 16  1 47 30.0000000  0  7G10G04G12G25G29G05G02
 -14226868.12847 -11038075.37545  21935669.3914                   21935670.2624
  -3819703.16147  -2923124.51743  23804923.5704                   23804925.0124
 -20801715.281 8 -16191583.410 7  20816031.406
 -14734802.714 8 -11465939.986 7  21980994.094
  -4196672.870 6  -3252553.365 6  23910529.555
 -22730219.734 8 -17695401.304 8  20391496.055
 -19592830.34648 -15218369.01846  20989533.7034                   20989531.9574
 11  8 16  1 48  0.0000000  0  7G10G04G12G25G29G05G02
 -14150011.45447 -10978187.06645  21950294.8054                   21950295.7624
  -3737768.90947  -2859279.65543  23820514.5704                   23820516.0234
 -20782655.029 8 -16176731.257 7  20819658.555
 -14782115.674 8 -11502807.173 7  21971990.648
  -4279688.647 6  -3317240.928 6  23894732.398
 -22756943.133 8 -17716224.708 8  20386410.500
 -19564177.14648 -15196041.82946  20994986.2734                   20994984.0984
 11  8 16  1 48 30.0000000  0  7G10G04G12G25G29G05G02
 -14072730.20047 -10917967.89645  21965000.6644                   21965001.4924
  -3655871.37846  -2795463.38243  23836100.0704                   23836101.0554
 -20763019.919 8 -16161431.167 7  20823394.766
 -14828904.599 8 -11539266.033 7  21963086.875
  -4362740.863 6  -3381956.895 6  23878927.781
 -22783096.285 8 -17736603.758 8  20381433.953
 -19535378.94148 -15173601.66046  21000466.1484                   21000464.2974
 11  8 16  1 49  0.0000000  0  7G10G04G12G25G29G05G02
 -13995025.62147 -10857418.88045  21979787.5234                   21979787.9694
  -3574009.69346  -2731675.04343  23851677.2814                   23851678.8244
 -20742809.507 8 -16145682.780 7  20827240.852
 -14875166.221 8 -11575314.023 7  21954283.695
  -4445826.469 6  -3446698.849 6  23863115.758
 -22808676.840 8 -17756536.627 8  20376565.922
 -19506434.87748 -15151047.82846  21005974.0474                   21005972.4144
 11  8 16  1 49 30.0000000  0  7G10G04G12G25G29G05G02
 -13916902.19347 -10796543.46845  21994653.7974                   21994654.9304
  -3492185.82447  -2667916.20743  23867248.0944                   23867249.2074
 -20722026.421 8 -16129488.168 7  20831195.633
 -14920900.380 8 -11610950.985 7  21945580.742
  -4528946.163 6  -3511467.409 6  23847299.578
 -22833685.836 8 -17776024.120 8  20371807.156
 -19477347.07448 -15128381.98846  21011509.4064                   21011507.3284
 11  8 16  1 50  0.0000000  0  7G10G04G12G25G29G05G02
 -13838362.79847 -10735343.94145  22009599.5394                   22009599.9024
  -3410400.59247  -2604187.42043  23882810.3674                   23882812.7774
 -20700671.305 8 -16112847.806 7  20835259.445
 -14966105.823 8 -11646175.969 7  21936978.250
  -4612099.040 7  -3576261.792 6  23831475.555
 -22858123.079 8 -17795066.103 8  20367156.711
 -19448116.95348 -15105605.24146  21017071.6024                   21017069.5474
 11  8 16  1 50 30.0000000  0  7G10G04G12G25G29G05G02
 -13759407.32847 -10673820.18745  22024624.3054                   22024624.4574
  -3328651.65047  -2540486.97443  23898367.6804                   23898369.5314
 -20678742.098 8 -16095760.102 7  20839432.281
 -15010778.093 8 -11680985.468 7  21928477.695
  -4695281.357 6  -3641079.120 6  23815647.266
 -22881985.256 8 -17813659.981 8  20362615.727
 -19418741.94648 -15082715.61546  21022661.4694                   21022659.6954
 11  8 16  1 51  0.0000000  0  7G10G04G12G25G29G05G02
 -13680041.48147 -10611976.66145  22039726.6254                   22039727.4574
  -3246942.96246  -2476817.84543  23913916.1254                   23913917.7504
 -20656242.747 8 -16078228.144 7  20843713.891
 -15054918.653 8 -11715380.684 7  21920077.813
  -4778495.024 7  -3705920.915 6  23799811.289
 -22905275.014 8 -17831807.818 8  20358183.906
 -19389226.14848 -15059716.26546  21028278.0474                   21028276.3984
 11  8 16  1 51 30.0000000  0  7G10G04G12G25G29G05G02
 -13600265.61347 -10549813.63945  22054908.1884                   22054908.4454
  -3165272.24146  -2413178.33943  23929456.9534                   23929459.4694
 -20633171.431 8 -16060250.479 7  20848104.164
 -15098523.622 8 -11749358.543 7  21911779.773
  -4861736.765 7  -3770784.531 6  23783972.117
 -22927989.202 8 -17849507.153 8  20353861.586
 -19359567.67148 -15036605.76146  21033921.8984                   21033920.0514
 11  8 16  1 52  0.0000000  0  7G10G04G12G25G29G05G02
 -13520085.81547 -10487335.85145  22070165.4064                   22070165.6564
  -3083643.55546  -2349571.57743  23944990.5704                   23944992.8444
 -20609532.663 8 -16041830.647 7  20852602.523
 -15141594.731 8 -11782920.419 7  21903583.852
  -4945008.540 7  -3835671.584 6  23768125.297
 -22950131.117 8 -17866760.566 8  20349647.969
 -19329770.88148 -15013387.47246  21039591.7814                   21039590.5274
 11  8 16  1 52 30.0000000  0  7G10G04G12G25G29G05G02
 -13439503.03747 -10424544.07545  22085499.3594                   22085500.3954
  -3002055.44146  -2285996.43143  23960516.2894                   23960517.8014
 -20585325.561 8 -16022967.973 7  20857208.883
 -15184128.489 8 -11816063.575 7  21895489.891
  -5028307.482 7  -3900579.805 6  23752274.258
 -22971698.192 8 -17883566.048 8  20345543.438
 -19299834.63248 -14990060.51246  21045288.9064                   21045287.3554
 11  8 16  1 53  0.0000000  0  7G10G04G12G25G29G05G02
 -13358518.20947 -10361439.02045  22100910.7734                   22100911.4884
  -2920506.94846  -2222452.12843  23976035.1644                   23976036.8324
 -20560549.129 8 -16003661.650 7  20861923.820
 -15226121.907 8 -11848785.666 7  21887498.703
  -5111631.017 7  -3965507.163 6  23736418.516
 -22992688.426 8 -17899922.045 8  20341549.688
 -19269757.85648 -14966624.05346  21051012.3834                   21051010.7074
 11  8 16  1 53 30.0000000  0  7G10G04G12G25G29G05G02
 -13277136.48247 -10298024.70144  22116396.9224                   22116397.7274
  -2839000.71046  -2158940.78543  23991544.8204                   23991546.8204
 -20535206.555 8 -15983914.191 7  20866746.375
 -15267575.886 8 -11881087.446 7  21879610.133
  -5194980.457 7  -4030454.708 6  23720557.336
 -23013103.935 8 -17915830.211 8  20337664.898
 -19239543.85148 -14943080.66346  21056761.7194                   21056760.1844
 11  8 16  1 54  0.0000000  0  7G10G04G12G25G29G05G02
 -13195360.13647 -10234302.86345  22131959.0234                   22131959.7424
  -2757536.91946  -2095462.49543  24007047.3444                   24007048.7034
 -20509298.378 8 -15963725.990 7  20871676.406
 -15308488.294 8 -11912967.195 7  21871824.523
  -5278353.809 7  -4095420.855 6  23704691.547
 -23032943.887 8 -17931289.883 8  20333889.344
 -19209192.51848 -14919430.25446  21062537.5084                   21062535.2704
 11  8 16  1 54 30.0000000  0  7G10G04G12G25G29G05G02
 -13113191.59147 -10170275.41845  22147594.2274                   22147595.5784
  -2676115.58146  -2032017.26243  24022540.0004                   24022543.2664
 -20482825.294 8 -15943097.613 7  20876713.969
 -15348857.419 8 -11944423.631 7  21864143.125
  -5361749.495 7  -4160404.456 6  23688822.211
 -23052207.270 8 -17946300.282 8  20330223.258
 -19178704.37148 -14895673.23946  21068339.1724                   21068336.8754
 11  8 16  1 55  0.0000000  0  7G10G04G12G25G29G05G02
 -13030634.73947 -10105945.41945  22163305.1024                   22163305.9344
  -2594738.24646  -1968606.34743  24038026.3054                   24038028.5394
 -20455789.416 8 -15922030.700 7  20881858.523
 -15388682.942 8 -11975456.461 7  21856564.273
  -5445167.582 7  -4225405.490 6  23672947.211
 -23070895.351 8 -17960862.400 8  20326667.469
 -19148081.20548 -14871811.01246  21074166.4614                   21074164.7774
 11  8 16  1 55 30.0000000  0  7G10G04G12G25G29G05G02
 -12947691.46347 -10041314.29745  22179088.6644                   22179088.9454
  -2513404.25946  -1905229.22243  24053504.2974                   24053505.6254
 -20428190.973 8 -15900525.412 7  20887110.320
 -15427962.521 8 -12006063.894 7  21849089.609
  -5528606.345 7  -4290422.691 6  23657070.758
 -23089006.813 8 -17974975.198 8  20323220.867
 -19117322.77148 -14847843.39646  21080019.7274                   21080017.6454
 11  8 16  1 56  0.0000000  0  7G10G04G12G25G29G05G02
 -12864364.56647  -9976384.25045  22194945.1564                   22194946.3094
  -2432114.46446  -1841886.48943  24068972.5944                   24068974.0514
 -20400031.073 7 -15878582.630 7  20892468.992
 -15466694.889 8 -12036244.915 7  21841719.125
  -5612064.201 7  -4355454.784 6  23641189.094
 -23106541.373 8 -17988638.461 8  20319883.727
 -19086429.77447 -14823770.91946  21085897.9844                   21085896.6374
 11  8 16  1 56 30.0000000  0  7G10G04G12G25G29G05G02
 -12780657.45747  -9911157.92845  22210873.8134                   22210874.4184
  -2350869.84546  -1778579.01343  24084433.0394                   24084434.8984
 -20371311.476 8 -15856203.717 7  20897934.367
 -15504879.560 8 -12065999.159 7  21834452.766
  -5695540.905 7  -4420501.499 6  23625303.602
 -23123499.912 8 -18001852.875 8  20316656.984
 -19055404.27348 -14799595.20046  21091802.5234                   21091800.3594
 11  8 16  1 57  0.0000000  0  7G10G04G12G25G29G05G02
 -12696573.25747  -9845637.77645  22226874.8834                   22226875.1884
  -2269671.13146  -1715307.26143  24099883.9534                   24099886.8014
 -20342032.834 8 -15833389.186 7  20903505.930
 -15542515.119 8 -12095325.534 7  21827290.594
  -5779035.453 7  -4485562.131 6  23609415.070
 -23139882.150 8 -18014618.229 8  20313539.523
 -19024246.25748 -14775316.20446  21097731.2344                   21097729.5314
 11  8 16  1 57 30.0000000  0  7G10G04G12G25G29G05G02
 -12612112.00347  -9779823.79645  22242947.2734                   22242948.0164
  -2188516.17846  -1652069.65043  24115327.3364                   24115329.8284
 -20312194.757 8 -15810138.730 7  20909183.727
 -15579597.850 8 -12124221.132 7  21820234.258
  -5862544.133 7  -4550633.791 6  23593524.578
 -23155685.452 8 -18026932.465 8  20310532.164
 -18992953.96548 -14750932.58646  21103685.9924                   21103684.2854
 11  8 16  1 58  0.0000000  0  7G10G04G12G25G29G05G02
 -12527280.37347  -9713721.23645  22259089.7734                   22259091.0354
  -2107409.16146  -1588869.36843  24130761.5234                   24130763.9454
 -20281801.799 8 -15786455.893 7  20914967.234
 -15616130.250 8 -12152687.917 7  21813282.133
  -5946069.438 7  -4615718.399 6  23577630.148
 -23170913.296 8 -18038798.289 8  20307634.406
 -18961531.88948 -14726447.84046  21109665.4304                   21109663.5044
 11  8 16  1 58 30.0000000  0  7G10G04G12G25G29G05G02
 -12442078.65147  -9647330.29745  22275303.4924                   22275304.3204
  -2026348.01446  -1525704.82343  24146187.4614                   24146189.1334
 -20250852.415 8 -15762339.493 7  20920856.906
 -15652108.595 8 -12180722.956 7  21806435.438
  -6029607.512 7  -4680812.921 6  23561732.680
 -23185563.317 8 -18050213.858 8  20304846.297
 -18929978.55748 -14701860.81246  21115669.7504                   21115668.1374
 11  8 16  1 59  0.0000000  0  7G10G04G12G25G29G05G02
 -12356511.03547  -9580654.23645  22291586.2424                   22291587.3364
  -1945333.96146  -1462576.98343  24161604.0394                   24161606.1724
 -20219349.319 8 -15737791.607 7  20926852.188
 -15687532.640 8 -12208326.079 7  21799695.039
  -6113158.281 7  -4745917.373 6  23545832.711
 -23199636.511 8 -18061179.961 8  20302168.445
 -18898295.35148 -14677172.58146  21121698.6024                   21121696.6054
 11  8 16  1 59 30.0000000  0  7G10G04G12G25G29G05G02
 -12270578.34247  -9513693.69445  22307938.4534                   22307940.0204
  -1864366.15346  -1399485.17343  24177012.1334                   24177013.3204
 -20187291.703 8 -15712811.633 7  20932952.305
 -15722399.525 8 -12235495.046 7  21793059.852
  -6196719.191 7  -4811029.686 6  23529931.563
 -23213131.089 8 -18071695.195 8  20299600.273
 -18866481.36148 -14652382.44246  21127752.9774                   21127751.0274
 11  8 16  2  0  0.0000000  0  7G10G04G12G25G29G05G02
 -12184287.17647  -9446453.82744  22324359.6094                   22324360.3914
  -1783448.43846  -1336432.37643  24192409.6254                   24192411.4024
 -20154684.483 8 -15687403.408 7  20939157.367
 -15756711.791 8 -12262231.851 7  21786530.391
  -6280292.237 7  -4876151.484 6  23514028.148
 -23226050.719 8 -18081762.403 8  20297141.938
 -18834541.10248 -14627493.92446  21133831.1484                   21133829.1374
 11  8 16  2  0 30.0000000  0  7G10G04G12G25G29G05G02
 -12097635.39847  -9378932.96844  22340849.0474                   22340849.3204
  -1702576.00346  -1273414.91243  24207800.2034                   24207800.9104
 -20121523.988 8 -15661564.053 7  20945467.211
 -15790463.125 8 -12288531.567 7  21780107.313
  -6363870.776 7  -4941277.573 6  23498124.281
 -23238390.278 8 -18091377.618 8  20294793.906
 -18802469.77548 -14602503.25846  21139933.7734                   21139931.7774
 11  8 16  2  1  0.0000000  0  7G10G04G12G25G29G05G02
 -12010631.28347  -9311137.54244  22357405.1564                   22357405.9494
  -1621754.69346  -1210437.28543  24223178.6094                   24223180.9264
 -20087816.596 8 -15635298.549 7  20951881.820
 -15823657.761 8 -12314397.496 7  21773791.172
  -6447459.545 7  -5006411.673 6  23482217.711
 -23250155.290 8 -18100545.138 8  20292554.898
 -18770273.63948 -14577415.35446  21146060.7734                   21146058.7544
 11  8 16  2  1 30.0000000  0  7G10G04G12G25G29G05G02
 -11923276.26947  -9243068.69644  22374028.1954                   22374028.7624
  -1540983.85946  -1147498.96043  24238548.7274                   24238550.7774
 -20053563.140 8 -15608607.530 7  20958400.000
 -15856293.512 8 -12339827.933 7  21767580.531
  -6531055.973 7  -5071551.723 6  23466310.148
 -23261344.677 8 -18109264.107 8  20290425.461
 -18737951.95148 -14552229.60446  21152210.7194                   21152209.0864
 11  8 16  2  2  0.0000000  0  7G10G04G12G25G29G05G02
 -11835570.23847  -9174726.35044  22390717.8204                   22390718.9344
  -1460260.78946  -1084597.85343  24253910.8134                   24253911.7774
 -20018761.708 7 -15581489.531 7  20965022.164
 -15888366.324 8 -12364819.706 7  21761477.539
  -6614655.619 7  -5136694.274 6  23450401.383
 -23271955.585 8 -18117532.327 8  20288406.156
 -18705502.72947 -14526944.48246  21158386.1724                   21158384.1914
 11  8 16  2  2 30.0000000  0  7G10G04G12G25G29G05G02
 -11747518.51747  -9106114.61944  22407473.7344                   22407474.2624
  -1379588.29146  -1021736.15743  24269261.7034                   24269263.4384
 -19983416.029 8 -15553947.434 7  20971748.250
 -15919877.476 8 -12389373.843 7  21755480.703
  -6698259.936 7  -5201840.456 6  23434491.938
 -23281990.475 8 -18125351.690 8  20286496.742
 -18672928.84448 -14501562.21446  21164584.4384                   21164582.7814
 11  8 16  2  3  0.0000000  0  7G10G04G12G25G29G05G02
 -11659123.68947  -9037235.51344  22424294.5314                   22424296.1844
  -1298966.61346   -958914.07743  24284603.5084                   24284605.0824
 -19947527.417 8 -15525982.279 7  20978577.477
 -15950825.928 8 -12413489.493 7  21749591.563
  -6781867.200 7  -5266988.925 6  23418582.094
 -23291449.372 7 -18132722.239 8  20284696.813
 -18640230.50948 -14476082.97246  21170807.0474                   21170805.0904
 11  8 16  2  3 30.0000000  0  7G10G04G12G25G29G05G02
 -11570386.34847  -8968089.54044  22441180.9924                   22441181.3054
  -1218393.71546   -896129.97843  24299936.0164                   24299937.3204
 -19911094.925 8 -15497593.320 7  20985510.273
 -15981208.148 8 -12437163.924 7  21743809.891
  -6865473.763 7  -5332136.849 6  23402672.141
 -23300329.863 8 -18139642.085 8  20283006.805
 -18607406.26548 -14450505.61846  21177053.2034                   21177051.4224
 11  8 16  2  4  0.0000000  0  8G10G04G12G25G26G29G05G02
 -11481312.78047  -8898681.54744  22458131.1254                   22458131.3204
  -1137873.22546   -833386.69543  24315258.9774                   24315259.7814
 -19874123.343 8 -15468784.298 7  20992546.406
 -16011026.525 8 -12460398.995 7  21738135.836
   -464713.53546   -324591.67743  24810722.6024                   24810725.8754
  -6949081.772 7  -5397285.892 6  23386762.313
 -23308635.754 8 -18146114.175 8  20281426.125
 -18574459.90747 -14424833.11146  21183322.5944                   21183320.2814
 11  8 16  2  4 30.0000000  0  8G10G04G12G25G26G29G05G02
 -11391909.02147  -8829016.27644  22475144.1644                   22475144.3914
  -1057408.69346   -770687.08743  24330570.2114                   24330572.4454
 -19836617.486 8 -15439558.955 7  20999682.984
 -16040283.411 8 -12483196.555 7  21732568.539
   -559047.33845   -398098.39242  24792771.0864                   24792775.0824
  -7032693.064 7  -5462437.447 6  23370851.313
 -23316370.642 8 -18152141.335 8  20279954.328
 -18541395.21948 -14399068.39846  21189614.9224                   21189612.6294
 11  8 16  2  5  0.0000000  0  8G10G04G12G25G26G29G05G02
 -11302168.16147  -8759088.31944  22492221.1414                   22492221.8674
   -976990.63346   -708023.62543  24345873.0084                   24345875.0514
 -19798568.969 8 -15409910.762 7  21006923.617
 -16068967.946 8 -12505548.126 7  21727109.719
   -653498.13646   -471696.39443  24774799.0004                   24774800.6524
  -7116296.394 6  -5527582.855 6  23354940.898
 -23323524.727 7 -18157715.932 8  20278592.977
 -18508203.16448 -14373204.43046  21195930.9064                   21195928.7154
 11  8 16  2  5 30.0000000  0  8G10G04G12G25G26G29G05G02
 -11212099.25747  -8688904.76144  22509360.8204                   22509361.1524
   -896625.56246   -645401.49943  24361167.1644                   24361168.2664
 -19759985.222 8 -15379845.506 7  21014265.633
 -16097085.532 8 -12527457.901 7  21721758.852
   -748069.20746   -545387.96943  24756802.6174                   24756804.4654
  -7199896.842 7  -5592725.996 6  23339033.242
 -23330104.594 8 -18162843.065 8  20277341.109
 -18474890.59848 -14347246.57246  21202269.9064                   21202268.2814
 11  8 16  2  6  0.0000000  0  8G10G04G12G25G26G29G05G02
 -11121703.45647  -8618466.48044  22526562.1484                   22526562.5634
   -816312.12146   -582819.58243  24376449.7664                   24376451.4344
 -19720866.820 8 -15349363.636 7  21021709.992
 -16124633.501 8 -12548923.841 7  21716516.930
   -842756.20546   -619169.95343  24738783.5864                   24738787.0044
  -7283491.189 6  -5657864.360 6  23323125.484
 -23336108.662 8 -18167521.532 8  20276198.352
 -18441456.25248 -14321193.82446  21208632.2584                   21208630.6684
 11  8 16  2  6 30.0000000  0  8G10G04G12G25G26G29G05G02
 -11030985.01247  -8547776.79444  22543825.6884                   22543826.1884
   -736052.14146   -520279.30843  24391721.7974                   24391724.5984
 -19681216.162 8 -15318467.028 7  21029255.000
 -16151612.415 8 -12569946.339 7  21711382.984
   -937557.38446   -693040.91343  24720743.1254                   24720746.4734
  -7367079.734 7  -5722998.209 6  23307219.852
 -23341538.656 8 -18171752.673 8  20275164.945
 -18407901.89748 -14295047.55546  21215017.8754                   21215015.5514
 11  8 16  2  7  0.0000000  0  8G10G04G12G25G26G29G05G02
 -10939946.28047  -8476837.53344  22561149.9144                   22561150.4534
   -655845.06147   -457780.27643  24406986.0164                   24406987.1804
 -19641034.341 8 -15287156.525 7  21036901.211
 -16178020.877 8 -12590524.345 7  21706357.531
  -1032469.25646   -766998.13543  24702682.6644                   24702684.5864
  -7450660.095 6  -5788125.705 6  23291314.445
 -23346394.218 8 -18175536.204 8  20274240.977
 -18374227.91848 -14268808.07046  21221425.4224                   21221423.5554
 11  8 16  2  7 30.0000000  0  8G10G04G12G25G26G29G05G02
 -10848590.18346  -8405650.98744  22578533.9844                   22578534.5474
   -575691.42446   -395322.87543  24422238.3834                   24422239.4964
 -19600323.406 8 -15255433.716 7  21044648.133
 -16203858.128 8 -12610657.245 7  21701441.352
  -1127488.78246   -841039.21143  24684600.2894                   24684603.6954
  -7534231.011 7  -5853245.804 6  23275411.281
 -23350676.366 8 -18178872.917 8  20273426.055
 -18340434.80648 -14242475.75746  21227855.9924                   21227853.6884
 11  8 16  2  8  0.0000000  0  8G10G04G12G25G26G29G05G02
 -10756919.11646  -8334219.00144  22595978.9144                   22595979.5984
   -495590.99447   -332906.94443  24437481.4224                   24437482.4924
 -19559084.230 8 -15223299.298 7  21052495.805
 -16229122.942 8 -12630344.088 7  21696633.688
  -1222612.96146   -915161.85943  24666498.9924                   24666502.1054
  -7617790.858 7  -5918357.268 6  23259510.180
 -23354384.623 8 -18181762.438 8  20272720.289
 -18306522.43648 -14216050.50546  21234309.3754                   21234307.3244
 11  8 16  2  8 30.0000000  0  8G10G04G12G25G26G29G05G02
 -10664936.55747  -8262544.29044  22613482.8834                   22613482.9734
   -415544.63146   -270533.10943  24452713.2814                   24452714.7584
 -19517318.721 8 -15190754.745 7  21060443.516
 -16253815.025 8 -12649584.656 7  21691934.523
  -1317838.86046   -989363.79743  24648378.4304                   24648381.1604
  -7701338.691 7  -5983459.413 6  23243611.414
 -23357520.037 8 -18184205.596 8  20272123.906
 -18272491.97448 -14189533.24146  21240785.0084                   21240783.0864
 11  8 16  2  9  0.0000000  0  8G10G04G12G25G26G29G05G02
 -10572645.42047  -8190629.10244  22631045.0314                   22631045.1994
   -335552.42846   -208201.48243  24467934.6254                   24467936.7304
 -19475028.992 8 -15157801.706 7  21068491.180
 -16277933.596 8 -12668378.333 7  21687345.227
  -1413163.61346  -1063642.70843  24630238.1484                   24630241.6174
  -7784872.912 7  -6048550.897 7  23227715.008
 -23360082.873 7 -18186202.585 8  20271636.008
 -18238344.03848 -14162924.43746  21247283.0084                   21247281.3014
 11  8 16  2  9 30.0000000  0  8G10G04G12G25G26G29G05G02
 -10480048.36246  -8118475.55144  22648665.3444                   22648665.9184
   -255614.78946   -145912.40043  24483145.8204                   24483147.9494
 -19432216.679 8 -15124441.476 7  21076637.984
 -16301478.023 8 -12686724.614 7  21682864.938
  -1508584.44746  -1137996.50343  24612079.3134                   24612083.5784
  -7868392.443 7  -6113630.954 7  23211822.336
 -23362073.756 8 -18187753.895 8  20271257.500
 -18204079.11148 -14136224.48946  21253803.6954                   21253802.0434
 11  8 16  2 10  0.0000000  0  8G10G04G12G25G26G29G05G02
 -10387147.61347  -8046085.35344  22666344.2034                   22666344.2194
   -175731.21746    -83665.40643  24498347.3054                   24498349.9574
 -19388882.472 8 -15090674.563 7  21084884.523
 -16324446.793 8 -12704622.345 7  21678494.023
  -1604097.30546  -1212422.06143  24593904.4614                   24593907.4694
  -7951894.917 7  -6178697.718 6  23195932.273
 -23363492.366 8 -18188859.284 8  20270987.398
 -18169696.84448 -14109433.09846  21260346.9304                   21260344.6994
 11  8 16  2 10 30.0000000  0  8G10G04G12G25G26G29G05G02
 -10293947.82747  -7973462.15844  22684079.5554                   22684079.7704
    -95903.66246    -21462.12143  24513539.0314                   24513540.6134
 -19345030.165 8 -15056503.929 7  21093229.445
 -16346841.203 8 -12722072.503 7  21674232.281
  -1699701.16246  -1286918.52343  24575711.5474                   24575714.5044
  -8035380.596 7  -6243751.404 6  23180045.750
 -23364341.285 8 -18189520.758 8  20270825.820
 -18135199.66048 -14082552.15946  21266910.9064                   21266908.8014
 11  8 16  2 11  0.0000000  0  8G10G04G12G25G26G29G05G02
 -10200450.49547  -7900607.08144  22701871.1414                   22701871.7114
    -16131.11846     40698.31343  24528718.9694                   24528720.6844
 -19300660.282 8 -15021929.994 7  21101672.266
 -16368659.124 8 -12739073.464 7  21670080.563
  -1795391.50046  -1361482.33643  24557502.4924                   24557504.9924
  -8118846.690 7  -6308789.830 6  23164162.047
 -23364619.439 8 -18189737.476 8  20270772.758
 -18100586.80848 -14055581.09246  21273497.3524                   21273495.5864
 11  8 16  2 11 30.0000000  0  8G10G04G12G25G26G29G05G02
 -10106659.63646  -7827523.31344  22719719.3834                   22719719.1294
     63585.13046    102814.90443  24543888.9384                   24543889.8794
 -19255775.750 8 -14986955.046 7  21110213.859
 -16389901.197 8 -12755625.682 7  21666038.039
  -1891166.66046  -1436112.22342  24539277.2664                   24539279.4024
  -8202292.991 7  -6373812.835 6  23148283.047
 -23364328.749 8 -18189510.936 8  20270828.094
 -18065860.04948 -14028521.25646  21280105.8284                   21280103.4804
 11  8 16  2 12  0.0000000  0  8G10G04G12G25G26G29G05G02
 -10012576.45147  -7754211.72244  22737622.3284                   22737622.5474
    143246.54146    164888.78443  24559046.8054                   24559048.4654
 -19210376.359 8 -14951578.897 7  21118853.250
 -16410564.969 8 -12771727.293 7  21662106.000
  -1987021.71846  -1510804.40542  24521037.6024                   24521038.8244
  -8285716.371 7  -6438817.970 6  23132408.070
 -23363467.656 8 -18188839.935 8  20270991.805
 -18031017.85048 -14001371.47346  21286736.1804                   21286734.2034
 11  8 16  2 12 30.0000000  0  8G10G04G12G25G26G29G05G02
  -9918203.92546  -7680674.67844  22755580.2194                   22755581.6484
    222852.56746    226919.45643  24574195.8204                   24574196.7304
 -19164464.601 8 -14915803.506 7  21127589.773
 -16430650.271 8 -12787378.166 7  21658284.094
  -2082953.93046  -1585556.62242  24502780.8444                   24502783.5044
  -8369115.494 7  -6503804.209 6  23116537.469
 -23362037.293 8 -18187725.346 8  20271264.172
 -17996060.97248 -13974132.33946  21293388.3914                   21293386.4494
 11  8 16  2 13  0.0000000  0  8G10G04G12G25G26G29G05G02
  -9823547.52147  -7606916.45844  22773592.9224                   22773594.5704
    302401.05846    288905.29643  24589333.4304                   24589335.1254
 -19118044.415 8 -14879631.952 7  21136423.133
 -16450158.749 8 -12802579.541 7  21654571.695
  -2178962.26846  -1660368.25543  24484511.5084                   24484513.7034
  -8452491.135 7  -6568772.153 6  23100671.500
 -23360040.852 8 -18186169.653 8  20271644.328
 -17960992.31748 -13946806.10746  21300061.4614                   21300059.9534
 11  8 16  2 13 30.0000000  0  8G10G04G12G25G26G29G05G02
  -9728607.38046  -7532937.15044  22791660.1804                   22791660.7814
    381893.96546    350847.83043  24604459.7504                   24604461.7234
 -19071114.827 8 -14843063.444 7  21145353.531
 -16469087.409 8 -12817329.119 7  21650969.641
  -2275041.52146  -1735235.13043  24466227.8444                   24466229.7734
  -8535839.381 7  -6633718.762 6  23084810.414
 -23357476.335 8 -18184171.312 8  20272132.109
 -17925809.92248 -13919391.23346  21306756.2734                   21306754.5314
 11  8 16  2 14  0.0000000  0  8G10G04G12G25G26G29G05G02
  -9633386.80947  -7458739.27144  22809779.8284                   22809780.8634
    461330.99646    412746.84743  24619576.3524                   24619578.3324
 -19023678.622 8 -14806100.165 7  21154380.133
 -16487436.109 8 -12831626.780 7  21647477.602
  -2371188.52846  -1810154.82543  24447931.8674                   24447934.2304
  -8619158.971 7  -6698643.056 6  23068956.000
 -23354344.403 7 -18181730.827 8  20272728.297
 -17890514.39248 -13891888.21446  21313472.8284                   21313470.9024
 11  8 16  2 14 30.0000000  0  8G10G04G12G25G26G29G05G02
  -9537890.29147  -7384326.41044  22827952.5314                   22827953.4264
    540710.16346    474600.70943  24634681.6884                   24634683.7664
 -18975738.990 8 -14768744.622 7  21163502.961
 -16505205.942 8 -12845473.378 7  21644096.180
  -2467402.03846  -1885126.34543  24429623.3364                   24429625.5704
  -8702449.929 7  -6763545.049 6  23053104.750
 -23350647.702 8 -18178850.261 8  20273431.188
 -17855107.80848 -13864298.64646  21320210.5084                   21320208.4304
 11  8 16  2 15  0.0000000  0  8G10G04G12G25G26G29G05G02
  -9442120.91047  -7309700.90444  22846176.0164                   22846177.2464
    620031.14546    536409.28643  24649776.5944                   24649778.5274
 -18927298.280 8 -14730998.616 7  21172720.719
 -16522396.892 8 -12858868.908 7  21640824.742
  -2563679.07246  -1960147.34443  24411302.1174                   24411304.5004
  -8785711.156 7  -6828423.834 6  23037262.055
 -23346387.237 8 -18175530.401 8  20274242.063
 -17819591.16847 -13836623.33146  21326969.6414                   21326967.4884
 11  8 16  2 15 30.0000000  0  8G10G04G12G25G26G29G05G02
  -9346079.40947  -7234863.36744  22864452.5394                   22864453.1134
    699295.74546    598173.92443  24664859.8204                   24664861.3754
 -18878356.167 8 -14692861.910 7  21182034.430
 -16539006.419 8 -12871811.356 7  21637664.188
  -2660014.69846  -2035214.01643  24392970.2424                   24392971.5394
  -8868938.992 7  -6893276.634 6  23021424.109
 -23341561.813 8 -18171770.303 8  20275160.266
 -17783962.66348 -13808860.84046  21333749.4384                   21333746.7624
 11  8 16  2 16  0.0000000  0  8G10G04G12G25G26G29G05G02
  -9249772.82247  -7159819.29244  22882778.7814                   22882779.7464
    778499.86246    659891.48543  24679931.7664                   24679933.2464
 -18828919.043 8 -14654339.479 7  21191441.719
 -16555038.085 8 -12884303.545 7  21634613.227
  -2756409.45346  -2110326.73843  24374627.0784                   24374628.6174
  -8952135.728 7  -6958105.188 6  23005592.195
 -23336175.795 8 -18167573.379 8  20276185.313
 -17748226.61348 -13781014.55746  21340549.3754                   21340547.7304
 11  8 16  2 16 30.0000000  0  7G10G12G25G26G29G05G02
  -9153196.76047  -7084565.21944  22901156.8754                   22901158.0354
 -18778981.531 8 -14615427.139 7  21200944.594
 -16570484.624 8 -12896339.786 7  21631673.797
  -2852853.37946  -2185477.81843  24356274.0314                   24356275.8324
  -9035292.976 7  -7022902.998 6  22989767.914
 -23330223.114 8 -18162934.905 8  20277318.055
 -17712376.58948 -13753079.45646  21347371.1254                   21347369.1644
 11  8 16  2 17  0.0000000  0  7G10G12G25G26G29G05G02
  -9056360.00947  -7009108.00844  22919584.1334                   22919585.0004
 -18728551.674 8 -14576131.166 7  21210541.008
 -16585351.233 8 -12907924.154 7  21628845.008
  -2949348.76546  -2260668.95543  24337911.3674                   24337913.9454
  -9118414.661 7  -7087673.076 6  22973950.680
 -23323710.566 8 -18157860.169 8  20278557.430
 -17676418.70947 -13725060.32546  21354213.7974                   21354211.9804
 11  8 16  2 17 30.0000000  0  7G10G12G25G26G29G05G02
  -8959261.84347  -6933447.09344  22938061.9224                   22938062.0904
 -18677627.725 8 -14536450.166 7  21220231.563
 -16599634.308 8 -12919053.808 7  21626126.867
  -3045889.31146  -2335895.29043  24319540.7584                   24319542.4184
  -9201495.946 7  -7152411.687 6  22958140.234
 -23316635.510 8 -18152347.115 8  20279903.563
 -17640349.93247 -13696954.77246  21361077.6724                   21361075.8364
 11  8 16  2 18  0.0000000  0  7G10G12G25G26G29G05G02
  -8861908.43747  -6857587.30744  22956587.1884                   22956588.0704
 -18626215.229 8 -14496388.488 7  21230015.281
 -16613336.813 8 -12929731.074 7  21623519.680
  -3142474.88147  -2411156.71443  24301160.8524                   24301162.9534
  -9284538.244 7  -7217119.921 6  22942337.414
 -23309002.030 8 -18146398.927 8  20281356.063
 -17604173.81747 -13668765.58546  21367961.6884                   21367959.6564
 11  8 16  2 18 30.0000000  0  7G10G12G25G26G29G05G02
  -8764300.05547  -6781528.83444  22975161.4384                   22975162.0204
 -18574313.659 8 -14455945.722 7  21239891.875
 -16626455.966 8 -12939953.766 7  21621022.906
  -3239099.81746  -2486448.82343  24282773.9534                   24282776.1094
  -9367537.685 7  -7281794.760 6  22926543.547
 -23300808.341 7 -18140014.216 8  20282915.234
 -17567888.41947 -13640491.23146  21374866.8914                   21374864.5944
 11  8 16  2 19  0.0000000  0  7G10G12G25G26G29G05G02
  -8666441.50747  -6705275.41844  22993783.6334                   22993784.5944
 -18521926.735 8 -14415124.752 7  21249860.625
 -16638993.406 8 -12949723.180 7  21618637.125
  -3335762.91746  -2561770.63343  24264379.2814                   24264380.6684
  -9450494.634 6  -7346436.478 6  22910756.984
 -23292057.410 8 -18133195.284 8  20284580.352
 -17531495.98548 -13612133.48546  21381791.8054                   21381789.8444
 11  8 16  2 19 30.0000000  0  7G10G12G25G26G29G05G02
  -8568334.35847  -6628828.28144  23012452.3364                   23012452.9804
 -18469055.090 8 -14373926.067 7  21259921.805
 -16650947.527 8 -12959038.071 7  21616362.414
  -3432459.35846  -2637118.45143  24245977.8204                   24245980.0004
  -9533405.589 7  -7411042.352 7  22894979.469
 -23282748.609 8 -18125941.660 8  20286352.195
 -17494995.21948 -13583691.31546  21388737.5944                   21388736.1254
 11  8 16  2 20  0.0000000  0  7G10G12G25G26G29G05G02
  -8469980.95746  -6552189.26644  23031168.5944                   23031169.2464
 -18415700.958 8 -14332351.429 7  21270074.461
 -16662317.614 8 -12967897.869 7  21614198.711
  -3529185.62646  -2712489.51843  24227572.3984                   24227574.3754
  -9616268.820 7  -7475611.005 7  22879211.000
 -23272882.509 8 -18118253.768 8  20288229.414
 -17458386.28048 -13555164.86146  21395703.9144                   21395702.0354
 11  8 16  2 20 30.0000000  0  7G10G12G25G26G29G05G02
  -8371386.64546  -6475362.53044  23049930.1414                   23049931.6604
 -18361869.029 8 -14290404.480 7  21280318.719
 -16673106.457 8 -12976304.737 7  21612145.461
  -3625941.21246  -2787883.43543  24209160.3674                   24209161.7934
  -9699085.522 7  -7540143.438 7  22863451.523
 -23262462.880 8 -18110134.553 8  20290212.352
 -17421672.36848 -13526556.60446  21402691.0554                   21402688.4654
 11  8 16  2 21  0.0000000  0  7G10G12G25G26G29G05G02
  -8272551.12246  -6398347.82844  23068738.3594                   23068738.8134
 -18307558.258 8 -14248084.392 7  21290653.602
 -16683310.741 8 -12984256.107 7  21610203.820
  -3722719.90846  -2863295.34843  24190743.4924                   24190745.2194
  -9781850.895 7  -7604635.876 7  22847702.211
 -23251487.612 8 -18101582.374 8  20292301.047
 -17384850.60448 -13497864.30946  21409697.4144                   21409695.6094
 11  8 16  2 21 30.0000000  0  7G10G12G25G26G29G05G02
  -8173478.85146  -6321148.61944  23087590.7424                   23087592.2304
 -18252772.225 8 -14205393.985 7  21301079.281
 -16692931.821 8 -12991753.034 7  21608373.180
  -3819519.65446  -2938723.65843  24172322.6094                   24172325.9734
  -9864564.477 7  -7669087.947 7  22831962.547
 -23239959.162 8 -18092599.145 8  20294494.539
 -17347922.99648 -13469089.54446  21416724.8444                   21416722.5984
 11  8 16  2 22  0.0000000  0  7G10G12G25G26G29G05G02
  -8074173.24046  -6243767.63044  23106487.7034                   23106489.1054
 -18197513.387 8 -14162335.147 7  21311594.500
 -16701970.186 8 -12998795.882 7  21606653.063
  -3916337.76046  -3014166.28643  24153898.7814                   24153901.3204
  -9947225.345 7  -7733498.948 6  22816231.781
 -23227879.208 8 -18083186.176 8  20296793.430
 -17310890.22548 -13440232.81946  21423771.6484                   21423769.6684
 11  8 16  2 22 30.0000000  0  7G10G12G25G26G29G05G02
  -7974636.53246  -6166206.56843  23125428.9224                   23125430.3284
 -18141783.777 8 -14118909.484 7  21322199.859
 -16710425.076 8 -13005384.115 7  21605044.125
  -4013170.39146  -3089620.25743  24135471.9694                   24135475.1024
 -10029831.234 7  -7797867.103 6  22800512.445
 -23215248.047 8 -18073343.693 8  20299197.023
 -17273751.77548 -13411293.75846  21430838.8524                   21430836.7814
 11  8 16  2 23  0.0000000  0  7G10G12G25G26G29G05G02
  -7874872.50847  -6088468.33143  23144414.2974                   23144413.9104
 -18085586.477 8 -14075119.382 7  21332893.234
 -16718297.758 8 -13011518.648 7  21603546.055
  -4110015.44246  -3165083.87443  24117043.5004                   24117045.9574
 -10112381.306 7  -7862191.751 6  22784803.766
 -23202068.050 8 -18063073.550 8  20301705.063
 -17236509.64648 -13382273.88446  21437925.8054                   21437923.5704
 11  8 16  2 23 30.0000000  0  7G10G12G25G26G29G05G02
  -7774881.80146  -6010553.50144  23163441.5234                   23163442.4064
 -18028921.892 8 -14030965.170 7  21343676.375
 -16725585.873 8 -13017197.689 7  21602159.211
  -4206867.14046  -3240552.68543  24098613.3834                   24098615.3204
 -10194871.808 7  -7926470.025 6  22769105.945
 -23188337.878 8 -18052374.701 8  20304317.461
 -17199161.58248 -13353171.48146  21445032.9614                   21445030.4804
 11  8 16  2 24  0.0000000  0  7G10G12G25G26G29G05G02
  -7674670.43346  -5932466.71244  23182510.8674                   23182511.0124
 -17971795.072 8 -13986450.774 7  21354547.461
 -16732292.562 8 -13022423.641 7  21600883.016
  -4303725.48147  -3316026.67043  24080181.3674                   24080183.9534
 -10277304.059 7  -7990702.880 6  22753420.398
 -23174061.780 8 -18041250.447 8  20307034.281
 -17161711.07948 -13323989.25246  21452159.0864                   21452157.4104
 11  8 16  2 24 30.0000000  0  7G10G12G25G26G29G05G02
  -7574238.75447  -5854208.26244  23201622.6644                   23201623.3714
 -17914206.041 8 -13941576.217 7  21365506.164
 -16738415.499 8 -13027194.747 7  21599717.461
  -4400584.50346  -3391501.13443  24061749.7664                   24061753.0664
 -10359674.015 7  -8054887.210 6  22737745.609
 -23159238.849 8 -18029700.086 8  20309855.094
 -17124155.87648 -13294725.44546  21459305.8594                   21459304.0744
 11  8 16  2 25  0.0000000  0  7G10G12G25G26G29G05G02
  -7473590.50147  -5775781.03144  23220774.8754                   23220776.0984
 -17856157.830 8 -13896343.849 7  21376552.195
 -16743955.723 8 -13031511.794 7  21598663.172
  -4497442.05646  -3466974.47443  24043318.0704                   24043320.0984
 -10441980.671 7  -8119022.202 7  22722083.172
 -23143871.133 8 -18017725.227 8  20312779.289
 -17086497.32848 -13265381.09946  21466472.3204                   21466470.5314
 11  8 16  2 25 30.0000000  0  7G10G12G25G26G29G05G02
  -7372728.39547  -5697187.17944  23239968.9304                   23239969.6454
 -17797652.824 8 -13850755.538 7  21387685.406
 -16748913.297 8 -13035374.828 7  21597720.180
  -4594294.82346  -3542444.10043  24024887.8284                   24024889.7074
 -10524222.574 7  -8183106.731 6  22706433.516
 -23127959.503 8 -18005326.536 8  20315807.539
 -17048736.06848 -13235956.72746  21473657.6484                   21473655.8244
 11  8 16  2 26  0.0000000  0  7G10G12G25G26G29G05G02
  -7271654.69747  -5618428.44944  23259202.0634                   23259203.3674
 -17738692.551 8 -13804812.468 7  21398905.438
 -16753287.804 8 -13038783.520 7  21596887.625
  -4691138.85746  -3617906.91143  24006458.5944                   24006461.3484
 -10606397.116 7  -8247138.758 7  22690795.352
 -23111504.568 8 -17992504.487 8  20318938.461
 -17010871.55648 -13206451.89146  21480863.1884                   21480861.5554
 11  8 16  2 26 30.0000000  0  7G10G12G25G26G29G05G02
  -7170372.58647  -5539507.30443  23278475.8054                   23278476.0554
 -17679280.210 8 -13758517.145 7  21410211.188
 -16757079.938 8 -13041738.397 7  21596165.813
  -4787971.27346  -3693360.63743  23988032.7504                   23988034.0004
 -10688503.138 7  -8311117.422 7  22675171.344
 -23094508.156 8 -17979260.513 8  20322172.844
 -16972904.38448 -13176867.07246  21488087.7814                   21488085.5474
 11  8 16  2 27  0.0000000  0  7G10G12G25G26G29G05G02
  -7068883.66747  -5460425.07044  23297789.1804                   23297789.2034
 -17619416.650 7 -13711870.229 7  21421602.203
 -16760288.548 8 -13044238.603 7  21595555.391
  -4884787.36946  -3768801.67743  23969608.2584                   23969610.5164
 -10770537.652 7  -8375040.349 7  22659560.477
 -23076970.426 8 -17965594.739 8  20325510.133
 -16934833.67048 -13147201.55746  21495332.8054                   21495330.6214
 11  8 16  2 27 30.0000000  0  7G10G12G25G26G29G05G02
  -6967193.29246  -5381185.78543  23317139.3364                   23317140.1914
 -17559107.113 8 -13664875.799 7  21433079.461
 -16762916.697 8 -13046286.502 7  21595055.133
  -4981586.64646  -3844229.57443  23951187.5554                   23951190.5784
 -10852501.841 7  -8438908.483 6  22643962.922
 -23058895.347 8 -17951510.240 8  20328949.945
 -16896662.60048 -13117457.85646  21502596.2344                   21502594.3404
 11  8 16  2 28  0.0000000  0  7G10G12G25G26G29G05G02
  -6865302.30647  -5301790.26244  23336528.9064                   23336529.8674
 -17498351.748 8 -13617533.954 7  21444640.352
 -16764962.268 8 -13047880.442 7  21594665.820
  -5078363.28046  -3919639.86143  23932772.8444                   23932773.8984
 -10934390.978 7  -8502718.107 6  22628379.734
 -23040281.765 8 -17937006.141 8  20332491.398
 -16858388.79048 -13087634.09646  21509879.6954                   21509877.8674
 11  8 16  2 28 30.0000000  0  7G10G12G25G26G29G05G02
  -6763214.29747  -5222241.14044  23355955.9614                   23355956.2344
 -17437154.019 7 -13569847.425 7  21456286.031
 -16766426.762 8 -13049021.598 7  21594387.328
  -5175115.27946  -3995030.91343  23914360.7504                   23914363.3674
 -11016205.056 7  -8566469.257 6  22612811.430
 -23021132.340 8 -17922084.494 8  20336135.859
 -16820014.16848 -13057731.77246  21517182.2194                   21517179.8054
 11  8 16  2 29  0.0000000  0  7G10G12G25G26G29G05G02
  -6660930.85547  -5142539.77144  23375418.8674                   23375420.0904
 -17375515.078 7 -13521817.085 7  21468015.773
 -16767309.175 8 -13049709.191 7  21594219.500
  -5271837.70046  -4070398.98443  23895955.4454                   23895956.8754
 -11097940.983 7  -8630159.535 7  22597257.680
 -23001447.057 8 -17906745.298 8  20339881.414
 -16781537.19948 -13027749.70846  21524503.9534                   21524501.8594
 11  8 16  2 29 30.0000000  0  7G10G12G25G26G29G05G02
  -6558456.41047  -5062689.55144  23394920.3444                   23394919.9734
 -17313438.609 7 -13473445.817 7  21479828.266
 -16767611.457 8 -13049944.727 7  21594161.570
  -5368528.99846  -4145742.76743  23877555.4304                   23877557.2274
 -11179598.652 7  -8693788.815 7  22581718.734
 -22981229.014 8 -17890990.959 8  20343728.953
 -16742960.03648 -12997689.57246  21531844.9304                   21531843.3324
 11  8 16  2 30  0.0000000  0  7G10G12G25G26G29G05G02
  -6455793.10947  -4982692.17644  23414455.3754                   23414456.8364
 -17250927.112 7 -13424735.578 7  21491724.188
 -16767333.324 8 -13049727.990 7  21594214.594
  -5465184.98846  -4221059.01943  23859161.5004                   23859164.1564
 -11261175.032 7  -8757354.773 7  22566195.195
 -22960478.720 8 -17874821.890 8  20347677.680
 -16704282.10348 -12967550.91046  21539204.9064                   21539202.8674
 11  8 16  2 30 30.0000000  0  7G10G12G25G26G29G05G02
  -6352944.08047  -4902550.08843  23434027.2814                   23434027.2624
 -17187983.176 8 -13375688.351 7  21503701.648
 -16766475.497 8 -13049059.545 7  21594377.906
  -5561802.58046  -4296345.35443  23840775.9844                   23840778.7384
 -11342668.713 7  -8820856.255 7  22550687.297
 -22939198.131 8 -17858239.592 8  20351727.633
 -16665504.22348 -12937334.35846  21546583.8594                   21546582.3054
 11  8 16  2 31  0.0000000  0  7G10G12G25G26G29G05G02
  -6249911.66247  -4822265.06543  23453633.5704                   23453634.5164
 -17124608.810 8 -13326305.743 7  21515761.227
 -16765038.164 8 -13047939.532 7  21594650.891
  -5658378.07846  -4371598.89143  23822398.7894                   23822401.0434
 -11424077.735 7  -8884291.761 7  22535195.219
 -22917388.384 8 -17841244.964 8  20355877.258
 -16626626.18948 -12907039.78846  21553982.5784                   21553980.5744
 11  8 16  2 31 30.0000000  0  7G10G12G25G26G29G05G02
  -6146698.25647  -4741839.05643  23473274.6094                   23473274.2664
 -17060806.148 8 -13276589.375 7  21527902.734
 -16763021.254 7 -13046367.915 7  21595034.813
  -5754907.77846  -4446816.78343  23804029.8524                   23804031.8554
 -11505399.933 7  -8947659.629 6  22519720.344
 -22895050.312 8 -17823838.659 8  20360128.406
 -16587647.86948 -12876667.05246  21561399.9224                   21561397.9224
 11  8 16  2 32  0.0000000  0  7G10G12G25G26G29G05G02
  -6043307.48347  -4661274.80043  23492949.2974                   23492949.3984
 -16996578.440 8 -13226541.823 7  21540124.711
 -16760426.156 8 -13044345.746 7  21595528.883
  -5851389.00046  -4521996.91143  23785670.9844                   23785671.9224
 -11586633.999 7  -9010958.858 6  22504262.234
 -22872186.392 8 -17806022.594 8  20364479.070
 -16548570.38148 -12846217.04346  21568836.0234                   21568833.8754
 11  8 16  2 32 30.0000000  0  7G10G12G25G26G29G05G02
  -5939741.41047  -4580573.95743  23512656.7734                   23512656.9884
 -16931928.057 8 -13176164.895 7  21552427.531
 -16757252.704 8 -13041872.936 7  21596132.914
  -5947817.74447  -4597136.08844  23767320.0084                   23767321.6334
 -11667778.014 7  -9074187.933 6  22488820.945
 -22848797.437 8 -17787797.420 8  20368929.594
 -16509393.09248 -12815689.27446  21576290.7814                   21576289.0634
 11  8 16  2 33  0.0000000  0  7G10G12G25G26G29G05G02
  -5836003.43447  -4499739.18743  23532397.7504                   23532398.2664
 -16866857.642 8 -13125460.681 7  21564809.844
 -16753502.200 8 -13038950.442 7  21596846.500
  -6044191.08247  -4672232.14143  23748980.8284                   23748982.6024
 -11748830.695 7  -9137345.834 6  22473396.477
 -22824885.554 8 -17769164.765 8  20373480.055
 -16470117.13448 -12785084.61446  21583765.0634                   21583762.7194
 11  8 16  2 33 30.0000000  0  7G10G12G25G26G29G05G02
  -5732095.10047  -4418771.63743  23552170.7584                   23552171.2464
 -16801368.886 7 -13074430.495 7  21577272.438
 -16749173.866 8 -13035577.714 7  21597670.109
  -6140504.44946  -4747281.44243  23730652.7974                   23730654.4804
 -11829788.708 7  -9200429.936 6  22457990.805
 -22800451.249 8 -17750125.034 8  20378129.609
 -16430741.22048 -12754402.05946  21591257.9304                   21591256.1294
 11  8 16  2 34  0.0000000  0  7G10G12G25G26G29G05G02
  -5628020.03847  -4337674.21244  23571975.7504                   23571976.3014
 -16735465.535 8 -13023077.234 7  21589813.289
 -16744269.335 8 -13031755.997 7  21598603.805
  -6236755.41046  -4822282.13243  23712336.6644                   23712337.7854
 -11910651.157 7  -9263439.607 7  22442603.336
 -22775497.064 8 -17730680.198 8  20382878.516
 -16391266.79248 -12723642.76645  21598769.9144                   21598767.5634
 11  8 16  2 34 30.0000000  0  7G10G12G25G26G29G05G02
  -5523781.17647  -4256449.13343  23591811.9064                   23591812.8674
 -16669149.954 8 -12971402.757 7  21602432.563
 -16738789.264 8 -13027485.809 7  21599646.672
  -6332940.50546  -4897231.48943  23694033.3524                   23694034.7464
 -11991416.281 7  -9326373.409 7  22427234.633
 -22750024.395 8 -17710831.346 8  20387725.633
 -16351693.96747 -12692806.78346  21606300.2194                   21606297.9734
 11  8 16  2 35  0.0000000  0  7G10G12G25G26G29G05G02
  -5419380.00846  -4175097.51643  23611678.0164                   23611678.6564
 -16602423.656 7 -12919408.244 7  21615130.109
 -16732733.089 8 -13022766.698 7  21600799.148
  -6429054.93446  -4972125.78943  23675743.6094                   23675744.5664
 -12072081.079 7  -9389229.034 7  22411884.586
 -22724033.711 8 -17690578.845 8  20392671.328
 -16312021.87047 -12661893.44746  21613849.5944                   21613847.2734
 11  8 16  2 35 30.0000000  0  8G10G15G12G25G26G29G05G02
  -5314822.58446  -4093624.20643  23631574.8364                   23631575.9804
    243711.975 6    204162.569 6  24608909.250
 -16535292.586 8 -12867098.325 7  21627904.734
 -16726104.793 8 -13017601.807 7  21602060.477
  -6525098.83846  -5046965.13243  23657466.5314                   23657467.8404
 -12152646.646 7  -9452007.359 7  22396553.125
 -22697529.779 8 -17669926.414 8  20397715.055
 -16272253.79147 -12630905.32345  21621417.2894                   21621415.0394
 11  8 16  2 36  0.0000000  0  8G10G15G12G25G26G29G05G02
  -5210108.23946  -4012028.63843  23651501.6724                   23651502.5234
    148948.236 6    130320.843 6  24590876.398
 -16467755.454 7 -12814471.996 7  21640756.344
 -16718901.578 8 -13011988.896 7  21603430.828
  -6621065.05746  -5121743.93543  23639204.6804                   23639206.8554
 -12233107.993 7  -9514704.465 7  22381242.031
 -22670511.173 8 -17648872.939 8  20402856.289
 -16232386.68247 -12599840.03045  21629003.5004                   21629001.3364
 11  8 16  2 36 30.0000000  0  8G10G15G12G25G26G29G05G02
  -5105239.01346  -3930312.40143  23671456.7664                   23671458.2814
     54067.052 6     56387.608 6  24572820.984
 -16399815.017 7 -12761531.379 7  21653685.328
 -16711123.783 8 -13005928.278 7  21604911.039
  -6716949.69646  -5196459.18943  23620959.6094                   23620960.3984
 -12313462.596 7  -9577318.399 7  22365950.664
 -22642978.625 8 -17627418.983 8  20408095.703
 -16192420.09047 -12568697.21645  21636609.1884                   21636606.7854
 11  8 16  2 37  0.0000000  0  8G10G15G12G25G26G29G05G02
  -5000219.51146  -3848479.06143  23691442.1174                   23691442.8754
    -40931.237 6    -17636.854 6  24554743.102
 -16331476.018 8 -12708280.221 7  21666689.477
 -16702774.162 8 -12999422.076 7  21606500.008
  -6812751.24847  -5271109.65443  23602727.5314                   23602729.6524
 -12393710.654 7  -9639849.276 7  22350680.203
 -22614936.203 8 -17605567.733 8  20413432.055
 -16152356.14448 -12537478.53945  21644233.0864                   21644230.8834
 11  8 16  2 37 30.0000000  0  8G10G15G12G25G26G29G05G02
  -4895051.06547  -3766529.64443  23711454.8754                   23711455.7894
   -136042.646 6    -91749.553 6  24536644.023
 -16262739.405 7 -12654719.214 7  21679768.922
 -16693852.015 8 -12992469.745 7  21608197.648
  -6908464.77646  -5345691.58843  23584514.4844                   23584516.8244
 -12473848.746 7  -9702294.477 7  22335430.664
 -22586384.017 8 -17583319.262 8  20418865.313
 -16112193.60547 -12506183.03245  21651875.5234                   21651873.1914
 11  8 16  2 38  0.0000000  0  8G10G15G12G25G26G29G05G02
  -4789738.74947  -3684468.09744  23731495.8284                   23731495.3674
   -231266.682 6   -165949.960 6  24518523.250
 -16193610.028 8 -12600852.180 7  21692924.281
 -16684360.379 8 -12985073.673 7  21610003.922
  -7004088.95247  -5420203.85444  23566318.3204                   23566320.0664
 -12553876.958 8  -9764654.061 7  22320201.422
 -22557326.002 8 -17560676.638 8  20424394.625
 -16071934.94048 -12474812.63145  21659536.6024                   21659534.5084
 11  8 16  2 38 30.0000000  0  8G10G15G12G25G26G29G05G02
  -4684284.29847  -3602295.81443  23751562.4924                   23751563.6844
   -326600.068 6   -240235.586 6  24500382.086
 -16124089.956 8 -12546680.701 7  21706153.641
 -16674299.287 8 -12977233.854 7  21611918.641
  -7099619.62147  -5494643.27544  23548139.2424                   23548140.2274
 -12633792.664 8  -9826925.965 7  22304993.992
 -22527762.920 8 -17537640.461 8  20430020.484
 -16031579.54948 -12443366.85345  21667215.5784                   21667213.5864
 11  8 16  2 39  0.0000000  0  8G10G15G12G25G26G29G05G02
  -4578688.85047  -3520013.64043  23771657.1254                   23771657.6764
   -422038.614 6   -314603.128 6  24482220.750
 -16054180.165 8 -12492205.566 7  21719457.672
 -16663667.827 8 -12968949.590 7  21613941.813
  -7195051.40547  -5569005.63944  23529979.0784                   23529980.7664
 -12713592.184 8  -9889107.362 7  22289808.609
 -22497694.857 8 -17514210.781 8  20435742.031
 -15991125.76148 -12411844.42145  21674913.8674                   21674911.9494
 11  8 16  2 39 30.0000000  0  8G10G15G12G25G26G29G05G02
  -4472957.50247  -3437625.55343  23791776.6414                   23791777.0394
   -517582.356 7   -389052.681 6  24464039.539
 -15983885.975 8 -12437430.877 7  21732834.141
 -16652469.578 8 -12960223.691 7  21616072.648
  -7290383.41647  -5643290.26444  23511837.7814                   23511839.1604
 -12793276.149 7  -9951198.704 7  22274644.969
 -22467126.132 8 -17490390.988 8  20441559.609
 -15950576.25048 -12380247.39246  21682630.0474                   21682627.9534
 11  8 16  2 40  0.0000000  0  8G10G15G12G25G26G29G05G02
  -4367089.70347  -3355131.14443  23811922.9144                   23811923.2274
   -613225.600 6   -463579.777 6  24445838.539
 -15913207.133 8 -12382356.459 7  21746283.469
 -16640702.332 8 -12951054.402 7  21618311.922
  -7385609.27747  -5717492.12844  23493716.5394                   23493718.2624
 -12872839.527 7 -10013196.094 7  22259504.492
 -22436055.364 8 -17466179.987 8  20447471.430
 -15909928.16648 -12348573.55345  21690365.4844                   21690363.2854
 11  8 16  2 40 30.0000000  0  8G10G15G12G25G26G29G05G02
  -4261089.47646  -3272533.54843  23832093.2584                   23832094.1764
   -708967.049 6   -538183.333 6  24427619.953
 -15842147.348 7 -12326985.208 7  21759805.875
 -16628368.373 8 -12941443.522 7  21620658.523
  -7480726.32147  -5791609.25444  23475616.2814                   23475617.8244
 -12952281.951 7 -10075099.238 7  22244386.914
 -22404485.910 8 -17441580.399 8  20453479.195
 -15869182.94548 -12316824.02245  21698119.0234                   21698117.0784
 11  8 16  2 41  0.0000000  0  8G10G15G12G25G26G29G05G02
  -4154959.43246  -3189834.82743  23852289.8134                   23852290.1724
   -804804.293 7   -612861.561 5  24409381.570
 -15770709.621 8 -12271319.440 7  21773399.773
 -16615468.708 8 -12931391.821 7  21623113.406
  -7575731.30147  -5865639.04144  23457537.2034                   23457538.6374
 -13031601.291 7 -10136906.451 7  22229293.281
 -22372419.475 8 -17416593.553 8  20459581.547
 -15828340.64148 -12284998.83845  21705891.4144                   21705888.8284
 11  8 16  2 41 30.0000000  0  8G10G15G12G25G26G29G05G02
  -4048703.00146  -3107037.54443  23872509.5554                   23872509.2854
   -900735.653 6   -687613.137 5  24391127.016
 -15698897.623 7 -12215362.042 7  21787065.289
 -16602005.108 8 -12920900.707 7  21625675.930
  -7670621.46447  -5939579.36244  23439480.3834                   23439482.5314
 -13110796.474 7 -10198616.935 7  22214222.969
 -22339858.648 8 -17391221.460 8  20465777.180
 -15787402.45547 -12253098.94545  21713681.2894                   21713679.3284
 11  8 16  2 42  0.0000000  0  8G10G15G12G25G26G29G05G02
  -3942322.96646  -3024144.03343  23892753.3444                   23892753.6564
   -996757.838 6   -762435.517 6  24372854.008
 -15626713.984 7 -12159115.062 7  21800801.469
 -16587978.275 8 -12909970.683 7  21628344.563
  -7765392.89947  -6013427.17344  23421446.3284                   23421447.3874
 -13189864.887 7 -10260228.628 7  22199176.930
 -22306805.076 8 -17365465.428 8  20472067.492
 -15746367.89047 -12221123.94945  21721489.7664                   21721487.7274
 11  8 16  2 42 30.0000000  0  8G10G15G12G25G26G29G05G02
  -3835821.44946  -2941155.86343  23913020.1724                   23913020.3134
  -1092868.021 6   -837326.445 6  24354565.125
 -15554160.940 7 -12102580.211 7  21814607.516
 -16573389.029 8 -12898602.436 7  21631120.867
  -7860041.90647  -6087179.56144  23403434.6254                   23403436.0164
 -13268804.617 7 -10321740.031 7  22184154.734
 -22273260.269 8 -17339326.596 8  20478450.461
 -15705237.01747 -12189073.91845  21729316.6724                   21729314.5904
 11  8 16  2 43  0.0000000  0  8G10G15G12G25G26G29G05G02
  -3729200.20246  -2858074.37143  23933308.5634                   23933309.8874
  -1189063.216 6   -912283.579 6  24336259.469
 -15481240.693 7 -12045759.254 7  21828484.336
 -16558237.656 8 -12886796.175 7  21634004.125
  -7954564.11747  -6160833.16844  23385448.1884                   23385449.2154
 -13347612.776 7 -10383148.937 7  22169157.750
 -22239225.358 8 -17312805.876 8  20484927.156
 -15664009.21647 -12156948.34545  21737162.4614                   21737160.3484
 11  8 16  2 43 30.0000000  0  8G10G15G12G25G26G29G05G02
  -3622462.02546  -2774901.79443  23953621.1094                   23953621.7344
  -1285340.837 6   -987305.008 6  24317938.727
 -15407956.265 7 -11988654.511 7  21842430.102
 -16542525.582 8 -12874552.965 7  21636993.758
  -8048956.25147  -6234385.39444  23367485.5394                   23367487.4454
 -13426287.571 7 -10444453.910 7  22154186.609
 -22204702.586 8 -17285905.011 8  20491496.766
 -15622684.66148 -12124747.37745  21745026.2194                   21745023.7664
 11  8 16  2 44  0.0000000  0  8G10G15G12G25G26G29G05G02
  -3515610.61946  -2691640.97943  23973954.4924                   23973954.8834
  -1381699.368 6  -1062389.400 6  24299602.523
 -15334311.978 7 -11931269.343 7  21856443.969
 -16526254.947 8 -12861874.575 7  21640090.102
  -8143215.79547  -6307834.31944  23349549.0944                   23349549.8594
 -13504828.304 7 -10505654.461 7  22139240.789
 -22169694.945 8 -17258626.312 8  20498158.648
 -15581264.48548 -12092471.90945  21752908.0944                   21752905.8954
 11  8 16  2 44 30.0000000  0  8G10G15G12G25G26G29G05G02
  -3408648.80746  -2608294.11343  23994308.2894                   23994309.4344
  -1478135.907 6  -1137534.579 6  24281250.898
 -15260309.959 7 -11873605.434 7  21870525.836
 -16509426.829 8 -12848761.733 7  21643292.023
  -8237338.91447  -6381176.93644  23331637.3674                   23331639.1884
 -13583232.405 8 -10566748.540 7  22124321.234
 -22134204.080 8 -17230971.083 8  20504911.961
 -15539748.83947 -12060122.04145  21760808.0944                   21760805.9924
 11  8 16  2 45  0.0000000  0  8G10G15G12G25G26G29G05G02
  -3301578.20446  -2524862.46743  24014682.7034                   24014683.8554
  -1574647.393 7  -1212738.194 6  24262885.555
 -15185952.658 7 -11815664.692 7  21884675.398
 -16492041.693 8 -12835214.870 7  21646600.727
  -8331321.56647  -6454410.10844  23313752.5634                   23313754.6644
 -13661497.205 7 -10627734.078 7  22109428.055
 -22098231.368 8 -17202940.372 8  20511757.609
 -15498137.11747 -12027697.32045  21768726.7344                   21768724.2664
 11  8 16  2 45 30.0000000  0  8G10G15G12G25G26G29G05G02
  -3194400.63946  -2441347.49643  24035078.3594                   24035078.7774
  -1671230.036 6  -1287997.295 6  24244506.266
 -15111242.076 7 -11757448.654 7  21898892.383
 -16474099.979 8 -12821234.308 7  21650014.617
  -8425159.27947  -6527530.34244  23295896.4304                   23295898.0474
 -13739620.138 7 -10688609.028 7  22094561.141
 -22061777.826 8 -17174535.014 8  20518694.406
 -15456428.34648 -11995196.96545  21776663.8204                   21776661.5904
 11  8 16  2 46  0.0000000  0  8G10G15G12G25G26G29G05G02
  -3087119.34047  -2357751.68843  24055493.5004                   24055493.8404
  -1767881.836 6  -1363310.248 6  24226113.602
 -15036181.228 7 -11698959.677 7  21913175.914
 -16455603.294 8 -12806821.305 7  21653534.961
  -8518848.94847  -6600535.19544  23278067.6884                   23278069.6294
 -13817599.883 7 -10749372.389 7  22079722.148
 -22024845.780 8 -17145756.786 8  20525722.203
 -15414623.18548 -11962621.50045  21784619.2584                   21784616.7974
 11  8 16  2 46 30.0000000  0  8G10G15G12G25G26G29G05G02
  -2979736.68646  -2274076.89043  24075928.0474                   24075928.3674
  -1864600.325 6  -1438675.140 6  24207708.586
 -14960773.291 7 -11640200.239 7  21927525.617
 -16436553.058 8 -12791976.941 7  21657159.992
  -8612387.11047  -6673422.00844  23260267.5394                   23260269.3014
 -13895434.147 8 -10810022.394 7  22064910.508
 -21987437.395 8 -17116607.381 8  20532840.672
 -15372721.87748 -11929971.10845  21792592.7034                   21792590.0394
 11  8 16  2 47  0.0000000  0  8G10G15G12G25G26G29G05G02
  -2872256.52446  -2190326.07543  24096379.7814                   24096381.1604
  -1961383.776 6  -1514090.717 6  24189292.313
 -14885022.578 8 -11581173.734 7  21941940.688
 -16416951.586 8 -12776703.062 7  21660889.766
  -8705771.04446  -6746188.65844  23242497.0164                   23242499.1054
 -13973121.748 8 -10870558.155 7  22050127.234
 -21949555.705 8 -17087089.175 8  20540049.617
 -15330725.49847 -11897246.64645  21800584.0704                   21800581.9734
 11  8 16  2 47 30.0000000  0  8G10G15G12G25G26G29G05G02
  -2764679.26846  -2106499.62443  24116851.2504                   24116852.0554
  -2058227.715 6  -1589553.372 6  24170862.180
 -14808929.987 8 -11521880.807 7  21956420.367
 -16396798.242 8 -12760999.158 7  21664725.219
  -8798995.41747  -6818830.93744  23224757.5164                   23224758.5004
 -14050658.918 8 -10930976.700 7  22035372.813
 -21911200.949 8 -17057202.339 8  20547347.898
 -15288632.16848 -11864446.63945  21808593.7894                   21808591.4454
 11  8 16  2 48  0.0000000  0  8G10G15G12G25G26G29G05G02
  -2657009.19946  -2022600.83843  24137340.8834                   24137340.5204
  -2155130.812 6  -1665062.099 6  24152423.000
 -14732499.701 7 -11462324.732 7  21970964.844
 -16376095.932 8 -12744867.481 7  21668664.953
  -8892058.38847  -6891347.49844  23207047.8834                   23207049.2584
 -14128045.244 7 -10991277.701 7  22020646.148
 -21872376.560 8 -17026949.546 8  20554736.203
 -15246443.57747 -11831572.40245  21816622.3284                   21816620.0164
 11  8 16  2 48 30.0000000  0  8G10G15G12G25G26G29G05G02
  -2549247.12846  -1938630.36243  24157847.0784                   24157846.7774
  -2252089.184 6  -1740613.935 6  24133970.914
 -14655733.221 7 -11402506.716 7  21985572.727
 -16354844.517 8 -12728307.926 7  21672708.609
  -8984954.43847  -6963733.94344  23189370.4694                   23189371.2074
 -14205276.953 7 -11051458.215 7  22005949.438
 -21833083.026 8 -16996331.207 8  20562213.438
 -15204158.06848 -11798622.65145  21824669.0864                   21824666.7854
 11  8 16  2 49  0.0000000  0  8G10G15G12G25G26G29G05G02
  -2441398.25746  -1854592.30442  24178369.6564                   24178370.3914
  -2349102.090 6  -1816208.319 6  24115511.273
 -14578636.021 8 -11342430.989 7  22000243.969
 -16333047.861 8 -12711323.521 7  21676856.086
  -9077682.69247  -7035989.66144  23171725.3134                   23171725.9734
 -14282354.580 7 -11111518.654 7  21991282.344
 -21793325.210 8 -16965351.066 8  20569779.125
 -15161778.35548 -11765599.47945  21832733.7344                   21832731.3484
 11  8 16  2 49 30.0000000  0  8G10G15G12G25G26G29G05G02
  -2333461.20846  -1770485.46342  24198908.7504                   24198910.0984
  -2446163.578 6  -1891840.505 6  24097040.672
 -14501207.247 7 -11282096.890 7  22014978.367
 -16310703.680 8 -12693912.469 7  21681108.289
  -9170235.83047  -7108108.96044  23154112.7894                   23154113.6024
 -14359272.215 7 -11171454.442 7  21976645.516
 -21753101.138 8 -16934007.627 8  20577433.625
 -15119300.57948 -11732499.90345  21840816.5234                   21840814.3014
 11  8 16  2 50  0.0000000  0  8G10G15G12G25G26G29G05G02
  -2225441.68646  -1686314.41643  24219464.8134                   24219465.5784
  -2543273.849 6  -1967510.700 6  24078560.508
 -14423452.952 8 -11221509.132 7  22029775.117
 -16287816.339 8 -12676078.180 7  21685463.563
  -9262613.05647  -7180091.13044  23136533.6024                   23136534.0594
 -14436031.040 7 -11231266.454 7  21962038.758
 -21712415.913 8 -16902304.845 8  20585175.523
 -15076728.01248 -11699326.46845  21848917.7114                   21848915.7074
 11  8 16  2 50 30.0000000  0  8G10G15G12G25G26G29G05G02
  -2117341.01746  -1602080.07943  24240035.5704                   24240035.8984
  -2640429.030 6  -2043215.898 6  24060072.461
 -14345375.027 8 -11160669.207 7  22044632.258
 -16264386.314 8 -12657821.016 7  21689922.125
  -9354809.90847  -7251932.80144  23118989.4224                   23118990.0044
 -14512627.677 7 -11290952.123 7  21947462.703
 -21671270.544 8 -16870243.513 8  20593005.516
 -15034059.47348 -11666078.25045  21857036.9384                   21857035.5204
 11  8 16  2 51  0.0000000  0  8G10G15G12G25G26G29G05G02
  -2009162.53446  -1517785.13043  24260621.3754                   24260621.6254
  -2737626.801 6  -2118954.307 6  24041575.906
 -14266977.239 8 -11099580.031 7  22059550.547
 -16240415.838 8 -12639142.721 7  21694483.430
  -9446823.52347  -7323631.65844  23101479.4064                   23101480.3324
 -14589060.698 7 -11350510.288 7  21932917.711
 -21629668.163 8 -16837826.072 8  20600921.906
 -14991295.77247 -11632755.88045  21865175.0704                   21865172.6724
 11  8 16  2 51 30.0000000  0  8G10G15G12G25G26G29G05G02
  -1900906.28546  -1433429.61843  24281221.6414                   24281222.5864
  -2834862.569 6  -2194722.358 6  24023073.398
 -14188259.906 8 -11038241.852 7  22074530.086
 -16215903.992 8 -12620042.571 7  21699147.898
  -9538647.77847  -7395182.95844  23084006.3594                   23084006.6764
 -14665325.640 7 -11409937.475 7  21918405.016
 -21587608.251 8 -16805052.089 8  20608925.453
 -14948434.58147 -11599357.55045  21873331.5634                   21873329.2894
 11  8 16  2 52  0.0000000  0  8G10G15G12G25G26G29G05G02
  -1792576.88946  -1349017.08443  24301836.4064                   24301836.8794
  -2932135.801 6  -2270519.526 6  24004561.891
 -14109228.153 7 -10976658.684 7  22089570.055
 -16190854.405 8 -12600523.422 7  21703914.539
  -9630281.22747  -7466585.57044  23066568.3984                   23066570.0124
 -14741422.624 7 -11469233.783 7  21903924.453
 -21545094.994 8 -16771924.880 8  20617015.734
 -14905477.83547 -11565884.73945  21881505.7034                   21881503.4884
 11  8 16  2 52 30.0000000  0  8G10G15G12G25G26G29G05G02
  -1684176.66047  -1264549.37443  24322463.8134                   24322464.5704
  -3029443.093 6  -2346343.242 6  23986045.742
 -14029884.868 8 -10914832.748 7  22104668.164
 -16165268.471 8 -12580586.317 7  21708783.539
  -9721719.98047  -7537836.50544  23049168.8834                   23049169.6564
 -14817348.776 8 -11528396.956 7  21889476.258
 -21502130.500 8 -16738446.042 8  20625191.578
 -14862425.34047 -11532337.34145  21889698.2424                   21889696.1374
 11  8 16  2 53  0.0000000  0  8G10G15G12G25G26G29G05G02
  -1575707.28346  -1180027.75343  24343105.7114                   24343105.7774
  -3126781.211 6  -2422191.043 6  23967522.539
 -13950232.375 8 -10852765.880 7  22119825.586
 -16139146.932 8 -12560231.881 7  21713754.492
  -9812959.62147  -7608932.26044  23031805.2034                   23031806.0514
 -14893102.138 8 -11587425.507 7  21875060.586
 -21458716.096 8 -16704616.627 8  20633453.125
 -14819276.35647 -11498714.75345  21897909.3834                   21897907.0984
 11  8 16  2 53 30.0000000  0  8G10G15G12G25G26G29G05G02
  -1467170.96246  -1095454.03743  24363758.4694                   24363759.5004
  -3224147.498 7  -2498060.743 6  23948994.516
 -13870273.739 8 -10790460.452 7  22135041.008
 -16112491.443 8 -12539461.373 7  21718826.898
  -9903996.62446  -7679870.11844  23014481.8284                   23014483.3244
 -14968680.349 8 -11646317.582 7  21860678.531
 -21414853.744 8 -16670438.154 8  20641799.781
 -14776031.01247 -11465017.07045  21906138.3914                   21906136.7894
 11  8 16  2 54  0.0000000  0  9G10G15G12G25G26G29G05G02G21
  -1358570.15046  -1010830.02943  24384424.3914                   24384425.5434
  -3321538.387 6  -2573949.650 6  23930461.383
 -13790011.460 8 -10727918.431 7  22150314.328
 -16085303.362 8 -12518275.863 7  21724000.461
  -9994826.94647  -7750646.94044  22997197.5084                   22997198.7504
 -15044081.009 8 -11705071.283 7  21846330.109
 -21370545.536 8 -16635912.269 8  20650231.336
 -14732689.15347 -11431244.18445  21914386.1484                   21914384.1844
    406559.365 5                  25173457.914
 11  8 16  2 54 30.0000000  0  9G10G15G12G25G26G29G05G02G21
  -1249909.85346   -926159.69343  24405102.0944                   24405102.7384
  -3418954.117 6  -2649857.920 6  23911923.258
 -13709451.059 8 -10665144.087 7  22165644.469
 -16057586.891 8 -12496678.605 7  21729274.766
 -10085449.55047  -7821261.88444  22979953.0004                   22979953.8984
 -15119304.002 7 -11763686.563 7  21832015.641
 -21325796.341 8 -16601042.759 8  20658747.008
 -14689252.92547 -11397397.77345  21922652.1484                   21922650.0434
    348161.320 5                  25162345.938
 11  8 16  2 55  0.0000000  0  9G10G15G12G25G26G29G05G02G21
  -1141188.28146   -841441.59343  24425792.2664                   24425791.6914
  -3516387.635 6  -2725779.984 6  23893382.102
 -13628591.713 7 -10602136.829 7  22181031.578
 -16029339.549 8 -12474667.692 7  21734650.320
 -10175856.94047  -7891709.14644  22962748.8984                   22962749.5434
 -15194343.381 7 -11822158.757 7  21817736.031
 -21280604.291 8 -16565828.165 8  20667346.586
 -14645718.47648 -11363474.83945  21930936.5314                   21930933.9534
    289776.136 5                  25151234.289
 11  8 16  2 55 30.0000000  0  9G10G15G12G25G26G29G05G02G21
  -1032409.79745   -756679.14042  24446491.2194                   24446491.1914
  -3613837.847 6  -2801715.122 6  23874837.953
 -13547438.237 8 -10538900.344 7  22196474.172
 -16000564.896 8 -12452245.889 7  21740125.383
 -10266047.06047  -7961987.08944  22945585.5864                   22945586.9534
 -15269199.015 7 -11880487.778 7  21803491.523
 -21234973.189 8 -16530271.454 8  20676030.180
 -14602087.65048 -11329476.77745  21939238.5634                   21939236.4924
    231401.327 6                  25140127.609
 11  8 16  2 56  0.0000000  0  9G10G15G12G25G26G29G05G02G21
   -923578.32846   -671875.42042  24467201.7504                   24467200.8714
  -3711303.885 6  -2877662.579 6  23856291.180
 -13465995.125 8 -10475438.201 7  22211972.758
 -15971266.300 8 -12429415.815 7  21745700.648
 -10356017.96447  -8032094.23244  22928465.3754                   22928466.2344
 -15343870.555 8 -11938673.347 7  21789281.938
 -21188906.728 8 -16494375.503 8  20684795.945
 -14558361.73248 -11295404.62845  21947559.7274                   21947557.7774
    173034.531 5                  25129020.188
 11  8 16  2 56 30.0000000  0  9G10G15G12G25G26G29G05G02G21
   -814693.24346   -587029.92142  24487921.2424                   24487921.1914
  -3808779.692 6  -2953617.618 6  23837741.148
 -13384262.560 7 -10411750.489 7  22227525.438
 -15941442.445 8 -12406176.452 7  21751376.125
 -10445763.08947  -8102025.43644  22911386.8914                   22911388.0984
 -15418352.146 7 -11996710.921 7  21775108.367
 -21142404.245 8 -16458139.797 8  20693645.375
 -14514537.72747 -11261256.04745  21955899.9384                   21955897.4804
    114678.658 6                  25117915.148
 11  8 16  2 57  0.0000000  0  9G10G15G12G25G26G29G05G02G21
   -705757.64646   -502145.05942  24508651.4774                   24508650.9454
  -3906263.428 6  -3029578.839 6  23819190.484
 -13302243.884 8 -10347839.855 7  22243133.500
 -15911095.840 8 -12382529.757 7  21757150.977
 -10535279.31947  -8171778.28844  22894353.0474                   22894353.8094
 -15492642.784 8 -12054599.700 7  21760971.711
 -21095469.030 8 -16421566.892 8  20702576.914
 -14470616.47847 -11227031.68845  21964257.2034                   21964255.7424
     56331.937 5                  25106811.508
 11  8 16  2 57 30.0000000  0  9G10G15G12G25G26G29G05G02G21
   -596775.99446   -417224.18142  24529389.2814                   24529390.0904
  -4003754.115 6  -3105545.522 6  23800639.547
 -13219944.797 8 -10283710.683 7  22258794.086
 -15880230.478 8 -12358478.831 7  21763024.484
 -10624565.30847  -8241351.72044  22877362.4224                   22877362.9384
 -15566742.394 7 -12112339.608 7  21746870.820
 -21048105.082 8 -16384659.911 8  20711589.625
 -14426600.30447 -11192733.36445  21972633.1484                   21972631.3364
     -2008.185 5                  25095710.070
 11  8 16  2 58  0.0000000  0  9G10G15G12G25G26G29G05G02G21
   -487747.69246   -332267.08242  24550137.7344                   24550138.1294
  -4101246.074 6  -3181513.166 6  23782086.633
 -13137365.047 8 -10219362.849 7  22274508.859
 -15848844.851 8 -12334022.504 7  21768997.203
 -10713614.20047  -8310740.41144  22860416.2194                   22860417.3094
 -15640645.592 7 -12169926.478 7  21732807.719
 -21000311.661 8 -16347418.276 7  20720684.539
 -14382485.61147 -11158358.26745  21981027.7584                   21981025.6254
    -60339.007 6                  25084610.656
 11  8 16  2 58 30.0000000  0  9G10G15G12G25G26G29G05G02G21
   -378676.75446   -247276.70642  24570892.6414                   24570894.0634
  -4198737.884 7  -3257480.677 6  23763534.859
 -13054509.150 8 -10154799.807 7  22290275.961
 -15816942.454 8 -12309163.484 7  21775067.734
 -10802424.06347  -8379942.83244  22843516.1024                   22843517.0314
 -15714351.737 7 -12227359.795 7  21718781.570
 -20952092.587 8 -16309844.956 7  20729860.156
 -14338273.95847 -11123907.63345  21989441.1174                   21989439.0554
   -118662.74046   1042187.05543  25073512.0004                   25073513.2854
 11  8 16  2 59  0.0000000  0  9G10G15G12G25G26G29G05G02G21
   -269560.70746   -162251.23542  24591656.8674                   24591658.0044
  -4296222.135 7  -3333442.346 6  23744984.734
 -12971375.955 7 -10090020.705 7  22306095.688
 -15784520.644 8 -12283899.737 7  21781237.609
 -10890986.48247  -8448952.43544  22826663.5234                   22826664.3164
 -15787854.285 7 -12284634.479 7  21704794.242
 -20903445.680 8 -16271938.278 8  20739117.242
 -14293961.16048 -11089378.16845  21997873.3364                   21997871.3204
   -176975.33446    996748.79242  25062414.7034                   25062416.7814
 11  8 16  2 59 30.0000000  0  8G15G12G25G26G29G05G02G21
  -4393705.355 6  -3409403.190 6  23726433.156
 -12887977.591 7 -10025034.980 7  22321966.320
 -15751590.646 8 -12258240.000 7  21787503.758
 -10979307.44147  -8517773.92744  22809856.9694                   22809857.5554
 -15861160.108 7 -12341755.868 7  21690844.539
 -20854382.562 8 -16233707.261 8  20748453.898
 -14249556.04047 -11054776.77445  22006323.2974                   22006321.6604
   -235287.02846    951311.19042  25051317.7734                   25051320.3984
 11  8 16  3  0  0.0000000  0  8G15G12G25G26G29G05G02G21
  -4491178.637 6  -3485356.281 6  23707884.789
 -12804311.245 7  -9959840.427 7  22337886.625
 -15718148.208 8 -12232180.950 7  21793867.500
 -11067377.21147  -8586399.66944  22793097.2504                   22793098.9804
 -15934261.283 8 -12398717.790 7  21676933.883
 -20804899.258 8 -16195148.828 8  20757870.422
 -14205052.33347 -11020098.55745  22014792.3444                   22014790.5904
   -293592.03046    905878.83742  25040223.0864                   25040224.9414
 11  8 16  3  0 30.0000000  0  8G15G12G25G26G29G05G02G21
  -4588640.243 6  -3561300.317 6  23689338.445
 -12720380.629 7  -9894439.958 7  22353858.688
 -15684196.251 8 -12205724.891 7  21800328.766
 -11155192.68847  -8654827.28544  22776386.5394                   22776387.4614
 -16007156.479 8 -12455519.229 7  21663062.523
 -20754999.188 8 -16156265.660 8  20767365.836
 -14160451.60147 -10985344.73945  22023279.5234                   22023277.2934
   -351892.07546    860450.37842  25029127.8364                   25029131.1254
 11  8 16  3  1  0.0000000  0  8G15G12G25G26G29G05G02G21
  -4686087.490 6  -3637233.143 6  23670794.398
 -12636189.303 7  -9828836.325 7  22369879.641
 -15649736.982 8 -12178873.508 7  21806886.250
 -11242751.13747  -8723054.58744  22759724.8054                   22759725.5904
 -16079843.690 7 -12512158.577 7  21649230.695
 -20704685.069 8 -16117059.852 8  20776940.438
 -14115753.42747 -10950514.99345  22031785.2814                   22031783.1334
   -410187.62846    815025.35942  25018035.7114                   25018037.3404
 11  8 16  3  1 30.0000000  0  8G15G12G25G26G29G05G02G21
  -4783517.559 6  -3713152.560 6  23652254.375
 -12551740.566 7  -9763032.123 7  22385949.750
 -15614772.459 8 -12151628.445 7  21813539.688
 -11330048.50747  -8791078.48244  22743112.4454                   22743113.2464
 -16152320.885 8 -12568634.267 7  21635438.492
 -20653959.262 8 -16077533.233 8  20786593.195
 -14070958.02647 -10915609.48245  22040309.4924                   22040307.4304
   -468479.66146    769603.09042  25006942.5474                   25006944.0394
 11  8 16  3  2  0.0000000  0  8G15G12G25G26G29G05G02G21
  -4880924.972 6  -3789054.347 6  23633718.820
 -12467034.813 7  -9697027.659 7  22402068.430
 -15579302.010 8 -12123989.122 7  21820289.063
 -11417078.71147  -8858894.16544  22726551.2664                   22726552.2074
 -16224582.993 7 -12624942.358 7  21621687.570
 -20602821.087 8 -16037685.302 7  20796324.727
 -14026062.52147 -10880625.97445  22048853.0394                   22048850.8914
   -526766.16146    724185.22742  24995852.2894                   24995853.0474
 11  8 16  3  2 30.0000000  0  8G15G12G25G26G29G05G02G21
  -4978311.250 6  -3864939.685 6  23615185.789
 -12382079.464 7  -9630828.693 7  22418234.703
 -15543332.010 8 -12095960.543 7  21827134.094
 -11503842.51347  -8926502.28544  22710040.7194                   22710041.3954
 -16296632.373 8 -12681084.715 7  21607977.281
 -20551277.836 8 -15997521.719 7  20806132.922
 -13981071.37947 -10845567.94245  22057414.0634                   22057412.1604
   -585051.91346    678767.87542  24984759.3364                   24984761.5124
 11  8 16  3  3  0.0000000  0  8G15G12G25G26G29G05G02G21
  -5075669.818 7  -3940803.412 6  23596659.203
 -12296873.961 7  -9564434.798 7  22434449.031
 -15506860.894 8 -12067541.512 7  21834074.102
 -11590332.72347  -8993897.21044  22693582.0704                   22693582.8204
 -16368463.136 8 -12737056.711 7  21594308.289
 -20499327.844 8 -15957041.208 7  20816018.352
 -13935980.65647 -10810432.31445  22065994.7344                   22065992.8484
   -643333.86046    633353.47542  24973669.7114                   24973670.0634
 11  8 16  3  3 30.0000000  0  8G15G12G25G26G29G05G02G21
  -5172998.850 7  -4016644.138 6  23578138.781
 -12211422.402 7  -9497849.190 7  22450710.500
 -15469891.768 8 -12038734.392 7  21841109.398
 -11676546.54547  -9061076.75544  22677176.5944                   22677176.9024
 -16440074.303 8 -12792857.594 7  21580681.125
 -20446974.482 8 -15916246.380 7  20825981.227
 -13890791.59747 -10775220.06845  22074593.6564                   22074591.9964
   -701613.88546    587940.58243  24962579.3444                   24962579.7504
 11  8 16  3  4  0.0000000  0  8G15G12G25G26G29G05G02G21
  -5270296.453 7  -4092460.381 6  23559623.438
 -12125728.942 7  -9431075.071 7  22467016.992
 -15432427.556 8 -12009541.512 7  21848238.852
 -11762481.52247  -9128039.03544  22660823.0084                   22660824.2624
 -16511464.301 8 -12848486.130 7  21567096.078
 -20394221.123 8 -15875139.861 7  20836019.523
 -13845504.95947 -10739931.77445  22083211.8594                   22083209.8444
   -759893.28046    542528.20442  24951487.7344                   24951489.7734
 11  8 16  3  4 30.0000000  0  8G15G12G25G26G29G05G02G21
  -5367557.099 7  -4168247.751 6  23541114.555
 -12039793.935 7  -9364112.751 7  22483369.789
 -15394467.870 8 -11979962.540 7  21855462.008
 -11848131.22147  -9194779.02244  22644524.8594                   22644525.3594
 -16582628.387 8 -12903938.644 7  21553553.633
 -20341067.622 8 -15833721.540 7  20846134.602
 -13800118.00347 -10704565.31545  22091848.4844                   22091846.7234
   -818170.03846    497117.84543  24940398.5234                   24940400.2894
 11  8 16  3  5  0.0000000  0  8G15G12G25G26G29G05G02G21
  -5464780.743 6  -4244006.365 6  23522614.164
 -11953623.831 7  -9296967.205 6  22499767.773
 -15356017.707 8 -11950001.383 7  21862779.016
 -11933495.06047  -9261296.24044  22628280.2344                   22628280.5904
 -16653567.546 8 -12959215.872 7  21540054.180
 -20287519.596 8 -15791995.791 7  20856324.141
 -13754633.54547 -10669122.86345  22100504.3524                   22100501.6954
   -876447.83146    451706.64943  24929308.5394                   24929310.6214
 11  8 16  3  5 30.0000000  0  8G15G12G25G26G29G05G02G21
  -5561963.132 7  -4319732.803 6  23504120.516
 -11867219.988 7  -9229639.555 7  22516209.594
 -15317077.715 8 -11919658.537 7  21870189.148
 -12018567.92647  -9327586.75244  22612091.0704                   22612092.6454
 -16724277.714 8 -13014314.672 7  21526598.953
 -20233577.743 8 -15749963.174 7  20866588.945
 -13709050.00947 -10633603.21845  22109178.3364                   22109175.9384
   -934725.67846    406295.49143  24918218.5864                   24918220.2234
 11  8 16  3  6  0.0000000  0  8G15G12G25G26G29G05G02G21
  -5659100.905 7  -4395424.456 6  23485636.305
 -11780585.460 7  -9162132.125 7  22532695.891
 -15277649.778 8 -11888935.482 7  21877692.164
 -12103345.93147  -9393647.49144  22595959.0554                   22595959.3984
 -16794756.460 8 -13069233.162 7  21513187.445
 -20179243.828 8 -15707625.054 8  20876928.258
 -13663366.98248 -10598006.03945  22117871.5634                   22117869.0744
   -993003.69946    360884.16142  24907128.4304                   24907130.5204
 11  8 16  3  6 30.0000000  0  8G15G12G25G26G29G05G02G21
  -5756191.114 7  -4471079.087 6  23467160.203
 -11693722.623 7  -9094446.800 7  22549224.961
 -15237735.674 8 -11857833.572 7  21885286.930
 -12187825.15247  -9459475.42745  22579882.2664                   22579883.4884
 -16865001.272 8 -13123969.358 7  21499820.234
 -20124520.242 8 -15664983.289 7  20887341.719
 -13617583.53047 -10562330.62245  22126583.6094                   22126582.1604
  -1051282.14846    315472.51343  24896038.6254                   24896039.5784
 11  8 16  3  7  0.0000000  0  8G15G12G25G26G29G05G02G21
  -5853231.645 6  -4546695.003 6  23448693.609
 -11606635.458 7  -9026586.698 6  22565797.164
 -15197338.625 8 -11826355.364 7  21892974.648
 -12272002.84347  -9525068.37044  22563864.4224                   22563864.8754
 -16935011.082 8 -13178522.438 7  21486497.734
 -20069410.428 8 -15622040.575 7  20897829.156
 -13571701.28347 -10526578.23545  22135314.7584                   22135312.7734
  -1109562.91846    270059.03843  24884948.3134                   24884949.1844
 11  8 16  3  7 30.0000000  0  8G15G12G25G26G29G05G02G21
  -5950218.299 7  -4622268.917 6  23430238.250
 -11519326.161 7  -8958553.464 7  22582411.672
 -15156459.516 8 -11794501.519 7  21900753.477
 -12355874.22247  -9590422.65845  22547903.9614                   22547905.1914
 -17004781.855 8 -13232889.239 7  21473220.539
 -20013915.219 8 -15578797.567 7  20908389.406
 -13525718.50847 -10490747.50645  22144064.7274                   22144062.9574
  -1167844.81446    224644.70243  24873856.9774                   24873859.0784
 11  8 16  3  8  0.0000000  0  8G15G12G25G26G29G05G02G21
  -6047149.803 7  -4697799.907 6  23411792.414
 -11431800.023 7  -8890351.300 7  22599067.734
 -15115102.364 8 -11762275.163 7  21908623.523
 -12439437.30047  -9655536.70645  22532002.7894                   22532003.3094
 -17074313.587 8 -13287069.789 7  21459989.008
 -19958039.172 8 -15535257.780 7  20919022.164
 -13479636.69447 -10454839.58645  22152834.2274                   22152831.5354
  -1226130.52546    179227.37743  24862765.5704                   24862766.6484
 11  8 16  3  8 30.0000000  0  8G15G12G25G26G29G05G02G21
  -6144022.062 7  -4773284.697 6  23393358.547
 -11344058.354 7  -8821981.188 7  22615764.047
 -15073267.998 8 -11729676.964 7  21916584.414
 -12522687.07447  -9720406.61644  22516160.7584                   22516161.6174
 -17143602.521 8 -13341061.149 7  21446803.594
 -19901782.891 8 -15491421.716 7  20929727.367
 -13433454.41748 -10418853.39645  22161622.6804                   22161620.0784
  -1284419.07946    133807.80943  24851673.8914                   24851674.7304
 11  8 16  3  9  0.0000000  0  8G15G12G25G26G29G05G02G21
  -6240831.805 6  -4848720.794 6  23374935.969
 -11256104.195 7  -8753445.478 7  22632500.797
 -15030958.687 8 -11696708.699 7  21924635.672
 -12605620.19747  -9785029.79545  22500379.0474                   22500379.7974
 -17212646.409 8 -13394861.563 7  21433665.219
 -19845149.380 8 -15447291.703 7  20940504.422
 -13387171.41948 -10382788.70945  22170429.5944                   22170427.3834
  -1342710.84546     88385.78943  24840580.2664                   24840581.9534
 11  8 16  3  9 30.0000000  0  8G15G12G25G26G29G05G02G21
  -6337576.814 7  -4924106.448 6  23356526.109
 -11167941.246 7  -8684747.099 7  22649278.000
 -14988176.970 8 -11663372.274 7  21932777.016
 -12688233.11647  -9849403.45944  22484658.8364                   22484658.6914
 -17281442.933 8 -13448469.204 7  21420573.555
 -19788140.705 8 -15402869.355 7  20951353.266
 -13340787.85247 -10346645.66245  22179256.3594                   22179253.9144
  -1401007.03846     42960.24443  24829487.3674                   24829488.6214
 11  8 16  3 10  0.0000000  0  8G15G12G25G26G29G05G02G21
  -6434254.077 7  -4999439.313 6  23338128.422
 -11079572.891 7  -8615888.645 7  22666094.039
 -14944925.504 8 -11629669.811 7  21941006.953
 -12770522.64047  -9913525.11045  22468999.1094                   22469000.0474
 -17349990.566 8 -13501882.921 7  21407529.117
 -19730759.981 8 -15358157.090 7  20962272.242
 -13294304.09948 -10310424.56245  22188102.1174                   22188099.2664
  -1459308.29046     -2469.16643  24818392.5394                   24818394.3094
 11  8 16  3 10 30.0000000  0  8G15G12G25G26G29G05G02G21
  -6530858.468 7  -5074715.380 6  23319745.211
 -10991000.040 7  -8546870.855 7  22682948.336
 -14901204.394 8 -11595601.427 7  21949327.398
 -12852482.85747  -9977390.17445  22453402.2814                   22453402.8204
 -17418284.768 8 -13555099.146 7  21394533.188
 -19673007.438 8 -15313155.110 7  20973261.914
 -13247717.66648 -10274123.44645  22196966.5704                   22196964.9774
  -1517612.86646    -47901.18443  24807297.7664                   24807298.5944
 11  8 16  3 11  0.0000000  0  8G15G12G25G26G29G05G02G21
  -6627388.432 7  -5149933.471 6  23301376.266
 -10902227.051 7  -8477697.131 7  22699841.594
 -14857017.374 8 -11561169.976 7  21957735.633
 -12934111.64047 -10040996.97145  22437868.8054                   22437869.9304
 -17486324.444 8 -13608117.057 7  21381585.938
 -19614886.890 8 -15267866.372 7  20984322.094
 -13201029.78648 -10237743.29345  22205851.5704                   22205849.0004
  -1575922.96246    -93337.49643  24796202.4304                   24796203.1484
 11  8 16  3 11 30.0000000  0  8G15G12G25G26G29G05G02G21
  -6723841.769 7  -5225091.825 6  23283021.531
 -10813257.730 7  -8408370.417 7  22716772.336
 -14812367.414 7 -11526377.783 7  21966232.242
 -13015406.23947 -10104343.37445  22422399.2894                   22422400.2974
 -17554108.251 8 -13660935.600 7  21368686.945
 -19556401.470 8 -15222293.322 7  20995451.266
 -13154240.62647 -10201284.19445  22214754.9064                   22214753.0234
  -1634239.55345   -138778.91043  24785104.7344                   24785105.7544
 11  8 16  3 12  0.0000000  0  8G15G12G25G26G29G05G02G21
  -6820214.998 7  -5300187.766 6  23264682.469
 -10724094.977 7  -8338892.949 6  22733738.711
 -14767256.460 8 -11491226.409 7  21974816.117
 -13096362.43647 -10167426.10545  22406993.5634                   22406994.2974
 -17621633.697 8 -13713552.799 7  21355837.055
 -19497553.064 8 -15176437.419 7  21006650.133
 -13107350.07848 -10164746.11945  22223678.3594                   22223676.0124
  -1692562.89546   -184225.51143  24774005.2814                   24774007.1454
 11  8 16  3 12 30.0000000  0  8G15G12G25G26G29G05G02G21
  -6916504.928 7  -5375218.821 6  23246358.570
 -10634741.539 7  -8269266.926 6  22750742.117
 -14721686.753 8 -11455717.542 7  21983488.398
 -13176976.46847 -10230242.19644  22391653.8444                   22391653.9384
 -17688897.812 8 -13765966.362 7  21343037.125
 -19438344.068 8 -15130300.535 7  21017916.977
 -13060357.54648 -10128128.56345  22232620.4844                   22232618.0634
  -1750893.32846   -229677.69043  24762905.5704                   24762907.0554
 11  8 16  3 13  0.0000000  0  8G15G12G25G26G29G05G02G21
  -7012708.014 7  -5450182.201 6  23228052.648
 -10545200.009 7  -8199494.329 6  22767781.945
 -14675659.979 8 -11419852.520 7  21992246.953
 -13257244.04347 -10292788.31845  22376378.8754                   22376379.9344
 -17755897.755 8 -13818174.068 7  21330287.516
 -19378776.222 8 -15083884.022 7  21029252.516
 -13013262.21948 -10091430.91145  22241582.6644                   22241580.0944
  -1809230.45346   -275135.03343  24751803.4224                   24751805.7154
 11  8 16  3 13 30.0000000  0  8G15G12G25G26G29G05G02G21
  -7108822.437 7  -5525076.485 6  23209762.359
 -10455474.543 7  -8129578.386 6  22784856.109
 -14629179.449 8 -11383633.926 7  22001091.805
 -13337162.66247 -10355062.53245  22361170.6724                   22361171.6724
 -17822632.269 8 -13870174.964 7  21317588.492
 -19318853.040 8 -15037190.638 7  21040655.250
 -12966064.70147 -10054653.63545  22250563.6564                   22250561.7894
  -1867576.00346   -320599.00243  24740701.3284                   24740702.2384
 11  8 16  3 14  0.0000000  0  8G15G12G25G26G29G05G02G21
  -7204844.546 7  -5599898.874 6  23191489.555
 -10365567.994 7  -8059521.340 6  22801964.898
 -14582247.440 8 -11347063.532 7  22010022.805
 -13416728.56547 -10417061.91545  22346030.4384                   22346031.0274
 -17889098.974 8 -13921967.191 7  21304939.938
 -19258576.695 8 -14990222.047 7  21052125.508
 -12918764.35947 -10017796.24345  22259564.3134                   22259563.3164
  -1925930.40146   -366069.85243  24729597.1644                   24729597.0704
 11  8 16  3 14 30.0000000  0  8G15G12G25G26G29G05G02G21
  -7300770.747 7  -5674646.499 6  23173235.781
 -10275482.697 7  -7989325.037 6  22819107.703
 -14534865.867 8 -11310142.807 7  22019039.000
 -13495937.40547 -10478783.05245  22330956.8054                   22330957.7304
 -17955294.854 8 -13973548.370 7  21292343.633
 -19197949.077 8 -14942979.736 7  21063662.430
 -12871361.12648  -9980858.67645  22268584.9694                   22268583.1484
  -1984293.24746   -411547.26343  24718491.7344                   24718490.7154
 11  8 16  3 15  0.0000000  0  8G15G12G25G26G29G05G02G21
  -7396597.530 7  -5749316.640 6  23154999.922
 -10185221.551 7  -7918991.668 7  22836284.188
 -14487036.520 8 -11272873.181 7  22028140.867
 -13574785.21847 -10540222.86845  22315952.9614                   22315953.3054
 -18021217.029 8 -14024916.285 7  21279798.727
 -19136971.952 8 -14895465.098 7  21075266.539
 -12823853.78947  -9943839.98945  22277625.7584                   22277623.9574
  -2042664.73546   -457031.46443  24707382.8594                   24707382.9144
 11  8 16  3 15 30.0000000  0  8G15G12G25G26G29G05G02G21
  -7492324.116 7  -5823908.724 6  23136784.180
 -10094789.577 7  -7848525.203 7  22853492.414
 -14438763.977 8 -11235258.212 7  22037326.383
 -13653270.44347 -10601380.15045  22301017.2584                   22301018.2234
 -18086865.422 8 -14076070.860 7  21267306.422
 -19075650.077 8 -14847681.816 7  21086935.383
 -12776244.05147  -9906741.48945  22286685.1644                   22286683.0004
  -2101047.48646   -502524.41843  24696272.8134                   24696272.8954
 11  8 16  3 16  0.0000000  0  8G15G12G25G26G29G05G02G21
  -7587944.640 7  -5898418.178 6  23118588.227
 -10004186.848 7  -7777925.710 7  22870733.742
 -14390047.811 8 -11197297.557 7  22046597.016
 -13731386.70147 -10662249.94145  22286152.0164                   22286152.9844
 -18152234.734 8 -14127007.958 7  21254866.852
 -19013982.997 8 -14799629.550 7  21098670.375
 -12728528.86648  -9869560.82245  22295765.5474                   22295763.2664
  -2159438.90346   -548024.14943  24685161.4614                   24685161.0634
 11  8 16  3 16 30.0000000  0  8G15G12G25G26G29G05G02G21
  -7683458.260 7  -5972844.322 6  23100412.656
  -9913418.980 7  -7707197.524 7  22888006.063
 -14340892.873 8 -11158995.024 7  22055950.914
 -13809132.72448 -10722831.21845  22271357.7194                   22271358.1684
 -18217325.026 8 -14177727.629 7  21242480.586
 -18951975.424 8 -14751311.958 7  21110469.539
 -12680710.37047  -9832299.68345  22304864.8984                   22304862.3984
  -2217842.08446   -593532.99143  24674047.3594                   24674047.1604
 11  8 16  3 17  0.0000000  0  8G15G12G25G26G29G05G02G21
  -7778860.094 7  -6047183.365 6  23082258.273
  -9822487.267 7  -7636341.665 6  22905309.883
 -14291299.829 8 -11120351.080 7  22065388.039
 -13886503.06147 -10783119.76045  22256634.5784                   22256635.4694
 -18282132.156 8 -14228226.664 7  21230148.750
 -18889627.961 8 -14702729.519 7  21122334.211
 -12632786.67847  -9794956.52945  22313984.4694                   22313982.3554
  -2276255.57046   -639049.87743  24662931.9614                   24662932.0704
 11  8 16  3 17 30.0000000  0  8G15G12G25G26G29G05G02G21
  -7874149.213 7  -6121434.539 6  23064124.977
  -9731397.149 7  -7565362.377 6  22922643.359
 -14241273.369 8 -11081369.436 7  22074908.023
 -13963496.38947 -10843114.52845  22241983.2194                   22241983.7194
 -18346655.997 8 -14278504.971 7  21217869.672
 -18826945.391 8 -14653885.956 7  21134262.148
 -12584759.57748  -9757532.83145  22323124.2664                   22323121.5864
  -2334681.95746   -684576.87243  24651813.9224                   24651813.7304
 11  8 16  3 18  0.0000000  0  8G15G12G25G26G29G05G02G21
  -7969320.578 7  -6195593.999 6  23046014.680
  -9640149.449 7  -7494260.278 6  22940007.297
 -14190813.884 8 -11042050.366 7  22084509.680
 -14040106.99647 -10902811.08045  22227404.8594                   22227405.7424
 -18410892.111 8 -14328559.070 7  21205645.703
 -18763927.525 8 -14604781.127 7  21146253.945
 -12536626.81947  -9720026.78145  22332283.0474                   22332280.5904
  -2393119.54846   -730112.55143  24640692.9534                   24640693.0594
 11  8 16  3 18 30.0000000  0  8G15G12G25G26G29G05G02G21
  -8064371.876 7  -6269659.877 6  23027926.508
  -9548747.653 7  -7423038.140 7  22957400.758
 -14139924.710 8 -11002396.463 7  22094193.680
 -14116332.17547 -10962207.28445  22212899.3914                   22212900.1374
 -18474838.730 8 -14378387.571 7  21193477.539
 -18700578.094 8 -14555417.946 7  21158309.258
 -12488388.43148  -9682438.43345  22341462.8524                   22341460.4104
  -2451569.57746   -775657.91343  24629569.9774                   24629570.7854
 11  8 16  3 19  0.0000000  0  8G15G12G25G26G29G05G02G21
  -8159300.683 7  -6343630.345 6  23009862.883
  -9457196.007 7  -7351699.210 7  22974822.461
 -14088608.982 7 -10962410.199 7  22103958.750
 -14192169.05547 -11021300.93545  22198468.2664                   22198469.0234
 -18538494.494 8 -14427989.444 7  21181364.219
 -18636900.210 8 -14505798.799 7  21170426.445
 -12440044.98247  -9644768.21445  22350662.3594                   22350659.6134
  -2510033.27846   -821213.98543  24618444.5474                   24618445.4144
 11  8 16  3 19 30.0000000  0  8G15G12G25G26G29G05G02G21
  -8254102.223 7  -6417501.621 6  22991821.836
  -9365496.138 7  -7280244.791 6  22992272.320
 -14036867.888 7 -10922092.475 7  22113804.758
 -14267612.50647 -11080088.01945  22184112.1334                   22184112.3524
 -18601855.446 8 -14477361.591 7  21169307.141
 -18572894.975 8 -14455924.593 7  21182606.445
 -12391594.97047  -9607014.95645  22359881.4144                   22359879.2234
  -2568509.59346   -866779.85043  24607317.7194                   24607318.2704
 11  8 16  3 20  0.0000000  0  8G15G12G25G26G29G05G02G21
  -8348774.684 7  -6491272.345 6  22973806.266
  -9273652.141 7  -7208678.054 6  23009749.875
 -13984705.129 8 -10881446.177 7  22123731.563
 -14342660.34347 -11138566.81545  22169830.9924                   22169831.8914
 -18664920.291 8 -14526503.013 7  21157306.203
 -18508565.784 8 -14405797.945 7  21194847.844
 -12343039.39847  -9569179.46545  22369121.7974                   22369119.5514
  -2627000.36346   -912356.98643  24596186.7894                   24596187.8484
 11  8 16  3 20 30.0000000  0  9G18G15G12G25G26G29G05G02G21
    166776.564 5                  24670382.328
  -8443317.589 7  -6564942.123 6  22955815.625
  -9181669.664 7  -7137003.427 6  23027253.789
 -13932125.801 8 -10840475.271 7  22133737.055
 -14417311.50347 -11196736.52945  22155625.0084                   22155625.8874
 -18727689.406 8 -14575414.002 7  21145361.656
 -18443917.470 8 -14355422.640 7  21207150.188
 -12294380.38747  -9531263.36745  22378380.8054                   22378379.1484
  -2685508.27846   -957947.52443  24585053.5234                   24585053.3634
 11  8 16  3 21  0.0000000  0  9G18G15G12G25G26G29G05G02G21
                                  24653302.000
  -8537718.663 6  -6638501.332 6  22937851.383
  -9089542.441 7  -7065215.993 6  23044784.289
 -13879123.265 8 -10799174.606 7  22143822.875
 -14491553.19047 -11254587.17345  22141497.5164                   22141497.8914
 -18790151.461 8 -14624085.711 7  21133475.625
 -18378943.349 8 -14304793.453 7  21219514.273
 -12245608.09047  -9493258.97645  22387662.3444                   22387659.9184
  -2744024.68846  -1003544.64643  24573918.2034                   24573918.1484
 11  8 16  3 21 30.0000000  0  8G15G12G25G26G29G05G02G21
  -8631984.195 7  -6711954.944 6  22919914.055
  -8997282.726 7  -6993325.323 6  23062340.883
 -13825709.221 8 -10757553.272 7  22153987.117
 -14565391.09147 -11312123.16445  22127446.3914                   22127447.0394
 -18852313.023 8 -14672523.295 7  21121646.500
 -18313655.022 8 -14253919.442 7  21231938.211
 -12196731.45547  -9455173.29145  22396963.3914                   22396960.9884
  -2802559.16146  -1049155.86343  24562779.3914                   24562778.8364
 11  8 16  3 22  0.0000000  0  9G18G15G12G25G26G29G05G02G21
   -102016.143 5                  24619232.977
  -8726111.144 7  -6785300.553 6  22902001.625
  -8904893.731 7  -6921333.907 6  23079921.867
 -13771886.538 8 -10715613.527 7  22164229.148
 -14638821.76747 -11369341.85945  22113472.8984                   22113473.3284
 -18914171.632 8 -14720724.794 7  21109875.367
 -18248055.216 8 -14202802.714 7  21244421.391
 -12147750.48547  -9417006.31645  22406284.0004                   22406281.6724
  -2861111.96646  -1094781.35543  24551637.0944                   24551637.2234
 11  8 16  3 22 30.0000000  0  9G18G15G12G25G26G29G05G02G21
   -191289.010 6                  24602245.109
  -8820090.829 7  -6858531.450 7  22884117.766
  -8812373.383 7  -6849240.181 6  23097528.406
 -13717652.619 8 -10673353.340 7  22174549.617
 -14711836.70847 -11426236.60845  22099578.3204                   22099578.8134
 -18975720.127 8 -14768684.650 7  21098163.156
 -18182141.222 8 -14151441.148 7  21256964.500
 -12098659.67647  -9378753.71945  22415625.6334                   22415623.3914
  -2919678.62946  -1140417.64843  24540492.2114                   24540492.2774
 11  8 16  3 23  0.0000000  0  9G18G15G12G25G26G29G05G02G21
   -280396.09246    597334.03942  24585288.1414                   24585288.2584
  -8913921.647 7  -6931646.338 6  22866262.523
  -8719726.138 7  -6777047.525 6  23115157.586
 -13663011.512 8 -10630775.850 7  22184947.602
 -14784433.65947 -11482805.61345  22085763.9694                   22085764.3484
 -19036957.673 8 -14816402.202 8  21086510.242
 -18115916.729 8 -14099837.661 7  21269566.609
 -12049460.01447  -9340416.34245  22424988.2894                   22424985.5704
  -2978261.10047  -1186066.24343  24529343.8444                   24529343.4774
 11  8 16  3 23 30.0000000  0  9G18G15G12G25G26G29G05G02G21
   -369336.01845    528030.33842  24568363.0864                   24568364.5274
  -9007600.343 7  -7004642.657 7  22848435.789
  -8626954.691 7  -6704758.128 6  23132812.406
 -13607965.473 8 -10587882.806 7  22195422.188
 -14856608.81947 -11539045.97845  22072029.7114                   22072029.9844
 -19097881.133 8 -14863875.011 7  21074916.820
 -18049383.819 8 -14047993.833 7  21282227.273
 -12000150.59247  -9301993.42645  22434371.2424                   22434369.1374
  -3036859.35046  -1231727.13843  24518193.7194                   24518192.8094
 11  8 16  3 24  0.0000000  0  9G18G15G12G25G26G29G05G02G21
   -458108.96746    458856.69242  24551470.1094                   24551471.6914
  -9101125.277 7  -7077519.172 7  22830638.961
  -8534063.818 7  -6632375.640 6  23150488.578
 -13552518.716 8 -10544677.542 7  22205973.727
 -14928360.37247 -11594956.25245  22058375.4384                   22058375.9574
 -19158489.978 8 -14911102.668 7  21063382.813
 -17982546.633 8 -13995912.913 7  21294945.820
 -11950732.97347  -9263486.20645  22443775.3204                   22443773.0704
  -3095475.12346  -1277401.65843  24507038.8984                   24507038.4614
 11  8 16  3 24 30.0000000  0  9G18G15G12G25G26G29G05G02G21
   -546714.32246    389813.68242  24534609.7504                   24534611.1214
  -9194493.816 7  -7150273.834 7  22812871.219
  -8441056.897 7  -6559902.733 6  23168186.945
 -13496674.554 8 -10501162.644 7  22216600.422
 -14999685.30048 -11650534.09745  22044802.6334                   22044803.6134
 -19218782.432 8 -14958083.784 7  21051909.719
 -17915408.110 8 -13943597.174 7  21307721.836
 -11901207.49647  -9224894.92945  22453199.5784                   22453197.4924
  -3154109.52047  -1323090.71643  24495880.9614                   24495880.3014
 11  8 16  3 25  0.0000000  0  9G18G15G12G25G26G29G05G02G21
   -635149.39446    320903.41742  24517780.6804                   24517782.3324
  -9287701.558 7  -7222903.186 7  22795133.516
  -8347935.527 7  -6487340.659 6  23185907.945
 -13440434.191 8 -10457338.983 7  22227302.273
 -15070578.70648 -11705775.68345  22031311.9144                   22031312.8204
 -19278754.417 8 -15004815.176 7  21040497.352
 -17847969.316 8 -13891047.468 7  21320555.250
 -11851572.23647  -9186218.10845  22462644.9384                   22462642.3674
  -3212761.54346  -1368793.49043  24484719.2664                   24484719.2344
 11  8 16  3 25 30.0000000  0  9G18G15G12G25G26G29G05G02G21
   -723412.43046    252127.14243  24500984.3594                   24500986.3754
  -9380744.702 7  -7295404.262 7  22777428.258
  -8254702.091 7  -6414691.264 6  23203648.891
 -13383799.725 8 -10413208.246 7  22238079.375
 -15141036.56647 -11760677.88245  22017904.2274                   22017905.4224
 -19338403.121 8 -15051294.674 7  21029146.500
 -17780232.022 8 -13838265.153 7  21333445.180
 -11801825.97847  -9147454.79845  22472111.2034                   22472108.9104
  -3271430.93547  -1414509.83443  24473555.4304                   24473554.3444
 11  8 16  3 26  0.0000000  0  9G18G15G12G25G26G29G05G02G21
   -811503.93746    183484.58642  24484220.5474                   24484223.4774
  -9473621.809 7  -7367775.973 7  22759754.977
  -8161361.579 7  -6341958.437 6  23221412.656
 -13326775.660 7 -10368773.898 7  22248931.047
 -15211057.34947 -11815239.52345  22004579.7274                   22004580.0704
 -19397728.080 8 -15097521.890 7  21017857.461
 -17712200.094 8 -13785253.271 7  21346391.102
 -11751970.48047  -9108606.36845  22481598.2584                   22481596.1804
  -3330119.59146  -1460241.14943  24462386.8674                   24462387.0004
 11  8 16  3 26 30.0000000  0  9G18G15G12G25G26G29G05G02G21
   -899421.14846    114977.78242  24467490.8914                   24467493.2974
  -9566328.389 7  -7440014.827 7  22742113.602
  -8067915.528 7  -6269143.377 6  23239193.820
 -13269363.309 8 -10324036.997 7  22259856.375
 -15280636.07347 -11869456.67145  21991339.3444                   21991339.8524
 -19456725.643 8 -15143493.996 7  21006630.531
 -17643874.915 8 -13732012.879 7  21359393.086
 -11702003.79147  -9069671.27545  22491106.0394                   22491104.3754
  -3388826.82746  -1505986.93343  24451215.5554                   24451215.2464
 11  8 16  3 27  0.0000000  0  9G18G15G12G25G26G29G05G02G21
   -987164.21346     46606.67742  24450794.8524                   24450796.0704
  -9658862.495 7  -7512119.265 7  22724504.781
  -7974368.096 7  -6196249.310 6  23256995.328
 -13211566.496 8 -10279000.522 7  22270854.609
 -15349770.59047 -11923327.70445  21978183.9614                   21978184.1374
 -19515394.366 8 -15189209.879 7  20995466.039
 -17575260.058 8 -13678546.766 7  21372450.102
 -11651926.58347  -9030650.10045  22500635.4534                   22500634.0514
  -3447554.23246  -1551748.50743  24440040.0634                   24440039.9384
 11  8 16  3 27 30.0000000  0  9G18G15G12G25G26G29G05G02G21
  -1074732.09746    -21627.98242  24434130.4844                   24434132.7464
  -9751221.344 7  -7584087.145 7  22706929.711
  -7880722.797 7  -6123278.952 6  23274815.430
 -13153388.280 7 -10233666.864 7  22281925.547
 -15418457.72047 -11976850.11545  21965112.9384                   21965113.2034
 -19573732.387 8 -15234668.055 7  20984364.836
 -17506358.367 8 -13624857.131 7  21385561.516
 -11601739.22847  -8991543.10445  22510186.6174                   22510184.4454
  -3506302.25546  -1597526.09543  24428860.9224                   24428860.7974
 11  8 16  3 28  0.0000000  0  9G18G15G12G25G26G29G05G02G21
  -1162123.60346    -89725.11042  24417500.7034                   24417502.1024
  -9843401.674 7  -7655915.945 6  22689387.859
  -7786982.344 7  -6050234.478 6  23292654.008
 -13094831.501 7 -10188038.197 7  22293068.266
 -15486693.95447 -12030021.17645  21952127.8524                   21952128.1094
 -19631737.468 8 -15279866.789 7  20973327.086
 -17437172.368 8 -13570945.970 7  21398727.391
 -11551441.11747  -8952349.77445  22519757.6644                   22519755.4574
  -3565071.25246  -1643320.03043  24417677.8914                   24417677.5744
 11  8 16  3 28 30.0000000  0  9G18G15G12G25G26G29G05G02G21
  -1249336.35446   -157682.99542  24400904.0704                   24400905.0664
  -9935399.017 7  -7727602.138 6  22671881.523
  -7693148.936 7  -5977117.565 6  23310510.242
 -13035897.603 7 -10142115.680 7  22304283.484
 -15554474.94547 -12082837.51845  21939229.6564                   21939230.0634
 -19689405.814 8 -15324803.159 7  20962352.766
 -17367702.602 8 -13516813.677 7  21411946.656
 -11501030.69547  -8913068.93545  22529350.5234                   22529348.1484
  -3623860.35146  -1689129.64043  24406490.2114                   24406490.4144
 11  8 16  3 29  0.0000000  0  9G18G15G12G25G26G29G05G02G21
  -1336368.96346   -225500.56642  24384341.7894                   24384343.8714
 -10027210.370 7  -7799143.396 6  22654410.250
  -7599225.086 7  -5903930.184 6  23328383.547
 -12976589.266 7 -10095901.395 7  22315569.445
 -15621797.10047 -12135296.30845  21926418.6024                   21926419.1214
 -19746735.048 8 -15369475.288 7  20951443.133
 -17297951.754 8 -13462462.367 7  21425220.094
 -11450507.34447  -8873700.09745  22538964.9844                   22538962.5944
  -3682670.10446  -1734955.35243  24395299.1954                   24395299.0274
 11  8 16  3 29 30.0000000  0  9G18G15G12G25G26G29G05G02G21
  -1423220.81146   -293177.18543  24367814.7194                   24367816.5634
 -10118833.090 7  -7870537.688 6  22636975.109
  -7505214.612 7  -5830675.307 6  23346272.930
 -12916909.964 7 -10049398.057 7  22326926.500
 -15688657.71547 -12187395.46545  21913695.5864                   21913696.0044
 -19803723.559 8 -15413881.904 7  20940598.992
 -17227923.209 8 -13407894.670 7  21438546.094
 -11399871.51347  -8834243.60145  22548600.6254                   22548598.3874
  -3741501.35046  -1780797.83443  24384102.6024                   24384103.8594
 11  8 16  3 30  0.0000000  0  9G18G15G12G25G26G29G05G02G21
  -1509891.17546   -360712.45543  24351321.6644                   24351322.8244
 -10210264.416 7  -7941782.834 6  22619575.906
  -7411120.397 7  -5757355.172 6  23364178.172
 -12856862.586 7 -10002607.892 7  22338352.695
 -15755053.51747 -12239132.43445  21901060.9064                   21901061.0314
 -19860369.195 8 -15458021.345 7  20929819.328
 -17157619.307 8 -13353112.402 7  21451924.383
 -11349122.99047  -8794699.32545  22558258.0474                   22558255.6524
  -3800354.42646  -1826657.29243  24372904.4614                   24372904.3984
 11  8 16  3 30 30.0000000  0  9G18G15G12G25G26G29G05G02G21
  -1596378.13946   -428104.79743  24334863.7734                   24334864.6954
 -10301500.239 7  -8012875.636 7  22602214.453
  -7316945.300 7  -5683971.991 6  23382099.188
 -12796449.316 7  -9955532.612 7  22349848.516
 -15820980.50248 -12290504.07445  21888515.3054                   21888515.6134
 -19916668.791 8 -15501891.136 7  20919106.250
 -17087041.635 8 -13298116.820 7  21465354.969
 -11298260.80347  -8755066.46145  22567936.9454                   22567934.5634
  -3859229.22946  -1872533.68743  24361700.7664                   24361700.3284
 11  8 16  3 31  0.0000000  0  9G18G15G12G25G26G29G05G02G21
  -1682681.20146   -495353.83443  24318440.0394                   24318441.6844
 -10392538.539 7  -8083814.526 6  22584890.383
  -7222692.979 7  -5610528.679 6  23400034.555
 -12735673.828 7  -9908175.113 7  22361413.742
 -15886436.44847 -12341508.68645  21876059.7034                   21876059.7194
 -19972621.129 8 -15545490.345 7  20908458.898
 -17016193.709 8 -13242910.634 7  21478836.508
 -11247285.39547  -8715345.37845  22577636.8914                   22577634.6414
  -3918126.85046  -1918427.91543  24350492.0164                   24350492.4924
 11  8 16  3 31 30.0000000  0  9G18G15G12G25G26G29G05G02G21
  -1768799.14346   -562458.64043  24302052.7584                   24302053.5704
 -10483376.014 7  -8154596.924 7  22567604.805
  -7128366.260 7  -5537027.368 6  23417984.375
 -12674538.753 7  -9860537.393 7  22373047.859
 -15951417.41147 -12392143.17945  21863694.1484                   21863694.2464
 -20028223.411 8 -15588816.800 7  20897878.016
 -16945077.898 8 -13187495.717 7  21492369.656
 -11196195.98847  -8675535.47445  22587359.0554                   22587356.2424
  -3977047.40246  -1964339.94943  24339280.1644                   24339279.9924
 11  8 16  3 32  0.0000000  0  9G18G15G12G25G26G29G05G02G21
  -1854729.58746   -629417.33143  24285700.9534                   24285701.1334
 -10574008.068 7  -8225219.242 7  22550357.617
  -7033966.601 7  -5463469.252 6  23435948.148
 -12613045.671 7  -9812620.706 7  22384749.766
 -16015919.39847 -12442404.44445  21851419.8984                   21851419.6804
 -20083472.243 8 -15631867.825 7  20887364.109
 -16873694.826 8 -13131872.551 7  21505953.367
 -11144991.09147  -8635635.56545  22597102.7734                   22597100.7974
  -4035990.19446  -2010269.31643  24328063.9534                   24328063.2274
 11  8 16  3 32 30.0000000  0  9G18G15G12G25G26G29G05G02G21
  -1940473.71946   -696230.84743  24269384.5394                   24269384.6524
 -10664433.862 7  -8295680.856 7  22533150.258
  -6939499.420 7  -5389858.485 6  23453924.883
 -12551199.764 7  -9764429.096 7  22396517.828
 -16079941.27047 -12492291.58445  21839236.5394                   21839236.9804
 -20138367.656 8 -15674643.450 7  20876918.336
 -16802049.531 8 -13076045.050 7  21519586.891
 -11093672.85947  -8595647.33844  22606868.2344                   22606866.0514
  -4094957.78046  -2056218.01143  24316841.7584                   24316842.6024
 11  8 16  3 33  0.0000000  0  9G18G15G12G25G26G29G05G02G21
  -2026029.05146   -762897.22643  24253103.8594                   24253103.7774
 -10754649.160 7  -8365978.435 7  22515982.688
  -6844966.148 7  -5316196.233 6  23471913.531
 -12489002.445 7  -9715963.666 7  22408353.953
 -16143478.28148 -12541800.91645  21827145.3914                   21827145.7814
 -20192905.815 8 -15717140.712 7  20866539.875
 -16730143.058 8 -13020014.013 7  21533270.305
 -11042239.04547  -8555569.06245  22616655.7194                   22616653.2894
  -4153949.08446  -2102185.15843  24305615.8914                   24305616.2274
 11  8 16  3 33 30.0000000  0  9G18G15G12G25G26G29G05G02G21
  -2111395.37446   -829416.35643  24236859.2274                   24236859.6914
 -10844651.499 7  -8436110.103 7  22498856.156
  -6750371.035 7  -5242485.783 6  23489914.461
 -12426457.559 8  -9667227.398 7  22420256.188
 -16206528.19947 -12590930.67845  21815147.6254                   21815148.0274
 -20247085.422 8 -15759358.571 7  20856229.633
 -16657978.617 8 -12963781.968 7  21547002.852
 -10990690.49547  -8515401.35845  22626465.6484                   22626462.9614
  -4212965.15746  -2148171.62243  24294385.6954                   24294386.1914
 11  8 16  3 34  0.0000000  0  9G18G15G12G25G26G29G05G02G21
  -2196570.09046   -895786.15443  24220651.0164                   24220651.4804
 -10934436.435 7  -8506072.347 7  22481770.313
  -6655715.604 7  -5168728.322 6  23507927.484
 -12363566.554 7  -9618221.427 7  22432223.484
 -16269086.45247 -12639677.35045  21803243.2814                   21803244.1174
 -20300902.846 8 -15801294.198 7  20845988.813
 -16585557.482 8 -12907349.915 7  21560784.492
 -10939025.13747  -8475142.66045  22636296.7974                   22636294.9264
  -4272005.01046  -2194176.63543  24283151.1954                   24283150.9304
 11  8 16  3 34 30.0000000  0  9G18G15G12G25G26G29G05G02G21
  -2281553.47046   -962006.84243  24204477.8444                   24204480.0044
 -11024002.345 7  -8575863.916 7  22464726.500
  -6561004.252 7  -5094927.330 6  23525950.453
 -12300333.673 7  -9568949.057 7  22444256.461
 -16331151.00847 -12688039.31545  21791433.0474                   21791433.4384
 -20354356.610 8 -15842946.462 7  20835817.047
 -16512883.123 8 -12850720.553 7  21574613.250
 -10887244.52747  -8434794.14145  22646149.8754                   22646148.3834
  -4331069.89846  -2240201.18943  24271911.7504                   24271911.1054
 11  8 16  3 35  0.0000000  0  9G18G15G12G25G26G29G05G02G21
  -2366344.10546  -1028077.42743  24188343.4144                   24188344.3754
 -11113345.621 7  -8645482.025 7  22447724.789
  -6466239.125 7  -5021084.410 6  23543983.305
 -12236761.303 7  -9519412.152 7  22456353.422
 -16392718.37647 -12736013.84945  21779717.1334                   21779717.2544
 -20407444.741 8 -15884313.833 7  20825714.688
 -16439957.654 8 -12793895.498 7  21588491.180
 -10835347.27647  -8394354.73545  22656025.8054                   22656024.0354
  -4390160.31346  -2286245.64143  24260667.4224                   24260666.8284
 11  8 16  3 35 30.0000000  0  9G18G15G12G25G26G29G05G02G21
  -2450939.80346  -1093996.08643  24172245.3754                   24172246.0204
 -11202461.626 7  -8714923.049 7  22430767.578
  -6371422.566 7  -4947201.394 6  23562025.867
 -12172851.457 7  -9469612.297 7  22468515.445
 -16453784.28347 -12783597.64045  21768095.9694                   21768096.6524
 -20460163.680 8 -15925393.505 7  20815682.680
 -16366782.492 8 -12736875.883 7  21602415.930
 -10783332.36347  -8353823.63945  22665924.6414                   22665921.9264
  -4449275.53346  -2332309.40843  24249417.0474                   24249417.4964
 11  8 16  3 36  0.0000000  0  9G18G15G12G25G26G29G05G02G21
  -2535340.16946  -1159762.49943  24156183.8594                   24156185.1414
 -11291348.232 7  -8784185.313 7  22413852.430
  -6276557.978 7  -4873280.959 6  23580078.664
 -12108607.735 7  -9419552.248 7  22480740.633
 -16514346.49048 -12830788.94845  21756571.7894                   21756572.1334
 -20512512.091 8 -15966184.461 7  20805721.023
 -16293360.557 8 -12679663.964 7  21616387.438
 -10731200.00147  -8313201.01945  22675844.6024                   22675842.2774
  -4508416.44946  -2378393.15343  24238163.4534                   24238163.1294
 11  8 16  3 36 30.0000000  0  9G18G15G12G25G26G29G05G02G21
  -2619545.99846  -1225377.35143  24140159.9844                   24140160.7584
 -11380004.317 7  -8853267.950 7  22396981.492
  -6181650.263 7  -4799326.939 6  23598139.633
 -12044034.817 7  -9369235.675 7  22493028.375
 -16574403.58347 -12877586.64345  21745143.1024                   21745143.8324
 -20564489.209 8 -16006686.091 7  20795830.125
 -16219696.329 8 -12622263.255 7  21630405.273
 -10678951.49847  -8272487.89745  22685787.3914                   22685784.7624
  -4567585.00046  -2424498.45643  24226904.0634                   24226903.4104
 11  8 16  3 37  0.0000000  0  9G18G15G12G25G26G29G05G02G21
  -2703552.90046  -1290837.19543  24124174.6254                   24124174.9734
 -11468423.159 7  -8922165.724 7  22380155.945
  -6086699.035 6  -4725338.999 6  23616207.492
 -11979132.158 7  -9318662.186 7  22505379.000
 -16633948.72347 -12923985.41645  21733812.8364                   21733812.3484
 -20616089.243 8 -16046893.889 7  20786010.672
 -16145788.511 8 -12564672.749 7  21644469.594
 -10626582.96147  -8231681.26445  22695752.8674                   22695751.0394
  -4626778.09346  -2470622.92143  24215640.3914                   24215639.7304
 11  8 16  3 37 30.0000000  0  9G18G15G12G25G26G29G05G02G21
  -2787363.03146  -1356143.71643  24108226.3134                   24108226.4224
 -11556604.905 7  -8990878.730 7  22363375.375
  -5991710.200 7  -4651321.763 6  23634282.438
 -11913905.997 8  -9267836.608 7  22517791.117
 -16692982.36447 -12969985.63745  21722578.7194                   21722578.6684
 -20667313.313 8 -16086808.732 7  20776263.344
 -16071642.927 8 -12506896.948 7  21658578.844
 -10574097.15347  -8190783.22744  22705740.4774                   22705737.8244
  -4685999.22746  -2516769.15843  24204370.9144                   24204370.3324
 11  8 16  3 38  0.0000000  0  9G18G15G12G25G26G29G05G02G21
  -2870973.73146  -1421294.85243  24092315.0234                   24092315.2424
 -11644545.126 7  -9059403.568 7  22346640.984
  -5896685.204 6  -4577276.359 6  23652365.633
 -11848357.652 7  -9216759.991 7  22530264.930
 -16751499.65947 -13015583.48045  21711443.1174                   21711443.3444
 -20718157.701 8 -16126427.716 7  20766587.688
 -15997260.201 8 -12448936.372 7  21672733.336
 -10521492.84947  -8149792.86244  22715750.2814                   22715747.9064
  -4745246.87647  -2562936.11443  24193096.0704                   24193096.0044
 11  8 16  3 38 30.0000000  0  9G18G15G12G25G26G29G05G02G21
  -2954382.46546  -1486288.63843  24076443.1724                   24076442.9144
 -11732238.864 7  -9127736.323 7  22329953.430
  -5801625.494 7  -4503203.888 6  23670455.391
 -11782488.602 7  -9165433.445 7  22542799.266
 -16809496.19747 -13060775.57345  21700406.6414                   21700406.8794
 -20768618.432 8 -16165747.747 7  20756985.422
 -15922641.360 8 -12390791.824 7  21686932.938
 -10468767.18347  -8108707.95144  22725784.2344                   22725782.1724
  -4804520.49947  -2609123.28643  24181817.0164                   24181817.0084
 11  8 16  3 39  0.0000000  0  9G18G15G12G25G26G29G05G02G21
  -3037591.59046  -1551126.85543  24060608.6564                   24060609.2384
 -11819686.182 7  -9195877.054 7  22313312.414
  -5706537.365 6  -4429109.266 6  23688549.195
 -11716305.063 7  -9113861.871 7  22555393.633
 -16866971.95747 -13105561.84345  21689469.4384                   21689469.9144
 -20818696.612 8 -16204769.697 7  20747455.977
 -15847791.954 8 -12332467.602 7  21701176.117
 -10415923.28447  -8067530.88244  22735839.8594                   22735837.7584
  -4863822.95647  -2655332.90944  24170531.5554                   24170531.4964
 11  8 16  3 39 30.0000000  0  9G18G15G12G25G26G29G05G02G21
  -3120596.97446  -1615806.29843  24044813.0864                   24044813.5474
 -11906881.426 7  -9263821.379 7  22296720.219
  -5611420.810 6  -4354992.498 6  23706649.602
 -11649807.278 7  -9062045.418 7  22568047.297
 -16923921.33747 -13149937.96045  21678631.9224                   21678632.3754
 -20868387.232 8 -16243489.647 8  20737999.945
 -15772711.540 8 -12273963.376 7  21715463.445
 -10362958.33947  -8026259.51244  22745918.5704                   22745916.4804
  -4923152.34847  -2701563.55144  24159241.8444                   24159241.3674
 11  8 16  3 40  0.0000000  0  9G18G15G12G25G26G29G05G02G21
  -3203398.57946  -1680326.97843  24029055.5784                   24029057.0594
 -11993821.757 7  -9331567.042 7  22280175.813
  -5516279.498 6  -4280856.403 6  23724754.805
 -11582998.747 7  -9009986.838 7  22580760.680
 -16980341.76747 -13193901.91745  21667895.7274                   21667896.2304
 -20917688.541 8 -16281906.225 7  20728618.242
 -15697403.301 8 -12215281.618 7  21729794.133
 -10309872.40247  -7984893.86545  22756020.7584                   22756018.6804
  -4982509.26747  -2747815.62344  24147946.1024                   24147946.4654
 11  8 16  3 40 30.0000000  0  9G18G15G12G25G26G29G05G02G21
  -3285997.53446  -1744689.72543  24013337.7274                   24013339.1724
 -12080506.803 7  -9399113.792 7  22263680.328
  -5421118.513 7  -4206705.030 6  23742863.359
 -11515884.708 7  -8957690.168 7  22593532.648
 -17036232.58947 -13237453.17345  21657260.2974                   21657260.0434
 -20966600.812 8 -16320019.667 7  20719310.500
 -15621871.573 8 -12156425.738 7  21744167.531
 -10256666.97747  -7943435.12645  22766145.1724                   22766143.4654
  -5041895.97747  -2794090.90944  24136645.8444                   24136645.2034
 11  8 16  3 41  0.0000000  0  9G18G15G12G25G26G29G05G02G21
  -3368390.62946  -1808892.06343  23997659.4844                   23997660.3404
 -12166930.888 7  -9466457.227 7  22247234.078
  -5325938.322 7  -4132538.671 6  23760975.398
 -11448465.832 7  -8905156.003 7  22606361.188
 -17091588.49448 -13280587.61245  21646726.1094                   21646726.3284
 -21015119.488 8 -16357826.420 8  20710077.633
 -15546116.593 8 -12097395.864 7  21758583.352
 -10203339.65047  -7901881.35244  22776293.3054                   22776291.3244
  -5101310.51847  -2840387.90544  24125339.7424                   24125338.9144
 11  8 16  3 41 30.0000000  0  9G18G15G12G25G26G29G05G02G21
  -3450578.00946  -1872934.07643  23982018.9304                   23982020.6454
 -12253091.895 7  -9533595.627 7  22230838.195
  -5230742.938 7  -4058360.463 6  23779091.141
 -11380746.288 7  -8852387.533 7  22619248.203
 -17146407.64247 -13323303.81445  21636294.6644                   21636294.2584
 -21063243.429 8 -16395325.582 7  20700919.938
 -15470141.817 8 -12038194.737 7  21773040.406
 -10149891.27347  -7860233.27744  22786464.3364                   22786461.9384
  -5160754.19046  -2886707.60043  24114027.7194                   24114027.3014
 11  8 16  3 42  0.0000000  0  9G18G15G12G25G26G29G05G02G21
  -3532558.22046  -1936814.71443  23966420.0474                   23966420.1374
 -12338986.649 7  -9600526.580 7  22214493.289
  -5135535.189 7  -3984172.618 6  23797209.195
 -11312728.791 7  -8799386.883 7  22632191.227
 -17200686.87347 -13365599.29645  21625965.3444                   21625965.6954
 -21110970.140 8 -16432515.228 7  20691837.828
 -15393949.032 8 -11978823.741 7  21787539.852
 -10096320.97447  -7818490.20144  22796658.2894                   22796656.0124
  -5220227.10446  -2933050.10843  24102710.0864                   24102709.1524
 11  8 16  3 42 30.0000000  0  9G18G15G12G25G26G29G05G02G21
  -3614329.98246  -2000532.88443  23950857.9694                   23950858.7504
 -12424611.774 7  -9667247.442 7  22198199.570
  -5040317.530 7  -3909977.077 6  23815327.922
 -11244415.906 7  -8746156.068 7  22645191.250
 -17254422.85047 -13407471.47045  21615739.8284                   21615739.8984
 -21158297.113 8 -16469393.386 7  20682832.000
 -15317540.492 8 -11919284.623 7  21802079.875
 -10042628.12247  -7776651.62744  22806875.2504                   22806873.4344
  -5279729.20947  -2979415.29543  24091387.3674                   24091386.7304
 11  8 16  3 43  0.0000000  0  9G18G15G12G25G26G29G05G02G21
  -3695892.77946  -2064088.26043  23935337.9384                   23935338.2504
 -12509964.724 7  -9733756.211 7  22181957.227
  -4945093.518 7  -3835776.591 6  23833448.086
 -11175811.247 7  -8692697.907 7  22658245.633
 -17307613.17147 -13448918.44645  21605618.2034                   21605618.3754
 -21205222.566 8 -16505958.660 8  20673902.031
 -15240919.116 8 -11859579.656 7  21816660.250
  -9988812.50247  -7734717.38844  22817116.0394                   22817114.2854
  -5339261.04647  -3025803.68244  24080058.6254                   24080057.4694
 11  8 16  3 43 30.0000000  0  9G18G15G12G25G26G29G05G02G21
  -3777244.89246  -2127479.44843  23919857.7114                   23919857.1684
 -12595041.103 7  -9800049.468 7  22165767.711
  -4849864.652 7  -3761572.329 6  23851569.383
 -11106916.844 7  -8639013.982 7  22671356.164
 -17360253.95247 -13489937.22045  21595601.1334                   21595600.6604
 -21251743.354 8 -16542208.622 8  20665049.336
 -15164086.433 8 -11799710.052 7  21831280.922
  -9934873.03147  -7692686.64045  22827380.6094                   22827378.5474
  -5398821.96847  -3072214.73043  24068724.4144                   24068723.6644
 11  8 16  3 44  0.0000000  0  9G18G15G12G25G26G29G05G02G21
  -3858387.17346  -2190707.15143  23904416.6804                   23904416.3954
 -12679839.867 7  -9866126.400 7  22149631.430
  -4754635.793 6  -3687368.016 6  23869691.008
 -11037737.479 7  -8585107.994 7  22684520.766
 -17412344.19947 -13530527.00145  21585688.3914                   21585688.8364
 -21297859.124 8 -16578142.974 8  20656273.820
 -15087046.180 8 -11739678.680 7  21845941.352
  -9880810.80547  -7650560.24944  22837667.8284                   22837666.3594
  -5458414.02747  -3118650.03843  24057384.5474                   24057383.9144
 11  8 16  3 44 30.0000000  0  9G18G15G12G25G26G29G05G02G21
  -3939316.58346  -2253768.94243  23889016.1724                   23889015.4414
 -12764355.657 7  -9931982.835 7  22133548.133
  -4659407.707 7  -3613164.364 6  23887811.945
 -10968273.959 7  -8530980.593 7  22697739.258
 -17463878.95948 -13570683.94145  21575881.6414                   21575881.5234
 -21343565.411 8 -16613758.255 8  20647576.352
 -15009798.481 8 -11679485.651 7  21860641.000
  -9826623.43547  -7608336.32744  22847979.9064                   22847977.7814
  -5518035.04347  -3165107.92443  24046038.8984                   24046038.0554
 11  8 16  3 45  0.0000000  0  9G18G15G12G25G26G29G05G02G21
  -4020033.42847  -2316665.12443  23873655.8524                   23873655.7384
 -12848586.699 7  -9997617.401 7  22117519.289
  -4564184.664 7  -3538964.587 6  23905933.148
 -10898530.881 7  -8476635.322 7  22711011.164
 -17514856.68647 -13610406.80845  21566180.8284                   21566180.8204
 -21388861.699 8 -16649054.067 8  20638956.469
 -14932347.284 8 -11619134.098 7  21875379.477
  -9772312.12047  -7566015.83944  22858314.5864                   22858312.8674
  -5577686.96447  -3211589.85443  24034687.0704                   24034686.4734
 11  8 16  3 45 30.0000000  0  9G18G15G12G25G26G29G05G02G21
  -4100536.03047  -2379394.37843  23858336.8594                   23858336.7234
 -12932529.389 7 -10063027.250 7  22101545.648
  -4468968.560 6  -3464770.292 6  23924052.109
 -10828510.355 7  -8422073.905 7  22724335.570
 -17565273.83047 -13649692.87445  21556586.6174                   21556587.1764
 -21433744.949 8 -16684028.012 8  20630415.672
 -14854693.794 7 -11558624.881 7  21890156.594
  -9717875.59847  -7523597.78544  22868673.8834                   22868671.8364
  -5637368.51947  -3258094.90643  24023330.2814                   24023329.5354
 11  8 16  3 46  0.0000000  0  9G18G15G12G25G26G29G05G02G21
  -4180824.59747  -2441956.82643  23843057.8674                   23843058.3714
 -13016181.390 7 -10128210.602 7  22085627.305
  -4373763.338 6  -3390584.470 6  23942168.086
 -10758216.345 7  -8367299.368 7  22737712.016
 -17615128.68648 -13688540.79445  21547099.5944                   21547099.5664
 -21478214.022 8 -16718679.242 8  20621953.539
 -14776841.636 8 -11497960.870 7  21904971.148
  -9663314.16447  -7481082.40345  22879056.5554                   22879054.8874
  -5697081.56747  -3304624.46744  24011967.4924                   24011966.4844
 11  8 16  3 46 30.0000000  0  9G18G15G12G25G26G29G05G02G21
  -4260897.80347  -2504351.49843  23827821.1724                   23827819.7664
 -13099539.514 8 -10193164.967 7  22069764.469
  -4278571.574 6  -3316409.091 6  23960282.570
 -10687651.745 7  -8312313.976 7  22751139.914
 -17664418.29048 -13726948.26145  21537719.8674                   21537719.9574
 -21522266.510 8 -16753005.852 8  20613570.531
 -14698792.806 7 -11437143.619 7  21919823.531
  -9608627.08647  -7438469.11444  22889463.5004                   22889461.0594
  -5756825.76547  -3351178.35044  24000598.3984                   24000598.1294
 11  8 16  3 47  0.0000000  0  9G18G15G12G25G26G29G05G02G21
  -4340754.33647  -2566577.27643  23812624.6334                   23812624.2894
 -13182599.966 8 -10257887.366 7  22053958.766
  -4183395.506 7  -3242245.948 6  23978394.102
 -10616819.011 7  -8257119.650 7  22764618.273
 -17713139.00348 -13764912.43245  21528448.7664                   21528448.9144
 -21565899.408 8 -16787005.506 8  20605267.570
 -14620549.311 8 -11376174.671 7  21934712.891
  -9553813.57847  -7395757.29744  22899894.2974                   22899892.0944
  -5816600.65746  -3397756.15944  23989222.4924                   23989222.8164
 11  8 16  3 47 30.0000000  0  9G18G15G12G25G26G29G05G02G21
  -4420393.99747  -2628634.10743  23797469.3984                   23797469.5124
 -13265360.440 8 -10322376.027 7  22038209.773
  -4088238.344 7  -3168097.537 6  23996502.180
 -10545721.695 7  -8201719.160 7  22778148.164
 -17761288.92948 -13802431.82245  21519286.2274                   21519286.5554
 -21609111.692 8 -16820677.405 8  20597044.758
 -14542113.222 8 -11315055.659 7  21949638.820
  -9498873.95147  -7352947.20744  22910348.8674                   22910346.4924
  -5876407.45947  -3444358.82444  23977842.7894                   23977842.5274
 11  8 16  3 48  0.0000000  0  9G18G15G12G25G26G29G05G02G21
  -4499815.56446  -2690521.00343  23782355.6254                   23782355.9184
 -13347817.902 7 -10386628.565 7  22022518.836
  -3993103.133 6  -3093966.267 6  24014605.422
 -10474362.916 7  -8146114.933 7  22791727.703
 -17808865.20948 -13839504.24945  21510232.6174                   21510233.0354
 -21651901.058 8 -16854019.764 7  20588901.930
 -14463487.488 7 -11253788.838 7  21964600.602
  -9443807.42147  -7310038.25944  22920827.3594                   22920825.5784
  -5936245.44547  -3490985.76743  23966455.8204                   23966456.1294
 11  8 16  3 48 30.0000000  0  9G18G15G12G25G26G29G05G02G21
  -4579017.79246  -2752236.97043  23767284.2034                   23767283.7664
 -13429968.875 8 -10450642.286 7  22006885.836
  -3897991.908 6  -3019853.694 6  24032704.844
 -10402745.169 7  -8090308.907 7  22805355.945
 -17855864.68447 -13876127.19745  21501289.0784                   21501288.8484
 -21694264.743 8 -16887030.420 8  20580840.563
 -14384673.608 8 -11192375.450 7  21979598.539
  -9388613.36347  -7267029.91744  22931330.6644                   22931328.3524
  -5996114.83047  -3537637.17044  23955062.7974                   23955062.8554
 11  8 16  3 49  0.0000000  0  9G18G15G12G25G26G29G05G02G21
  -4658000.64246  -2813782.01143  23752254.4614                   23752253.4494
 -13511810.721 7 -10514415.119 7  21991311.539
  -3802908.593 6  -2945762.818 6  24050799.094
 -10330872.399 7  -8034304.150 7  22819032.023
 -17902285.73448 -13912299.41645  21492455.5864                   21492455.6644
 -21736201.595 8 -16919708.484 8  20572860.109
 -14305674.578 7 -11130817.789 7  21994631.344
  -9333291.84347  -7223922.26244  22941858.2734                   22941856.0984
  -6056016.29847  -3584313.58043  23943663.7974                   23943663.6134
 11  8 16  3 49 30.0000000  0  9G18G15G12G25G26G29G05G02G21
  -4736763.08646  -2875155.27243  23737265.8984                   23737266.3014
 -13593340.228 8 -10577944.570 7  21975797.547
  -3707855.271 7  -2871695.313 6  24068887.406
 -10258747.228 7  -7978102.730 7  22832756.930
 -17948125.18848 -13948018.45845  21483732.4774                   21483732.7424
 -21777709.115 8 -16952051.999 8  20564961.648
 -14226492.514 8 -11069117.490 7  22009699.211
  -9277842.36547  -7180714.89844  22952410.0004                   22952407.5394
  -6115949.99647  -3631015.12644  23932258.8594                   23932258.1764
 11  8 16  3 50  0.0000000  0  9G18G15G12G25G26G29G05G02G21
  -4815303.64746  -2936355.62743  23722320.8284                   23722320.6604
 -13674554.136 8 -10641228.114 7  21960342.828
  -3612834.618 7  -2797653.278 6  24086968.602
 -10186372.303 7  -7921706.715 7  22846530.125
 -17993379.98947 -13983281.92945  21475121.0084                   21475120.6954
 -21818784.780 8 -16984059.003 7  20557145.313
 -14147128.809 8 -11007275.663 7  22024801.508
  -9222263.87347  -7137406.98644  22962986.0864                   22962983.8484
  -6175915.55047  -3677741.44943  23920847.3984                   23920847.1024
 11  8 16  3 50 30.0000000  0  9G18G15G12G25G26G29G05G02G21
  -4893622.08846  -2997382.95143  23707417.1024                   23707416.0124
 -13755449.753 8 -10704263.638 7  21944948.781
  -3517849.758 7  -2723639.164 6  24105043.078
 -10113751.249 7  -7865118.883 7  22860349.180
 -18038048.23748 -14018088.34945  21466621.0084                   21466620.7464
 -21859427.128 8 -17015728.358 8  20549410.945
 -14067586.634 7 -10945294.753 7  22039938.023
  -9166556.53747  -7093998.71644  22973586.8134                   22973584.7854
  -6235913.42847  -3724493.00143  23909429.9224                   23909428.7584
 11  8 16  3 51  0.0000000  0  9G18G15G12G25G26G29G05G02G21
  -4971717.83546  -3058236.73043  23692555.9064                   23692555.3984
 -13836024.187 7 -10767048.890 7  21929616.031
  -3422903.904 7  -2649655.420 6  24123111.445
 -10040887.238 7  -7808341.750 7  22874214.570
 -18082127.39047 -14052435.73445  21458232.6334                   21458232.1764
 -21899634.122 8 -17047058.487 8  20541760.250
 -13987868.402 8 -10883176.673 7  22055107.945
  -9110720.15747  -7050489.85644  22984211.6414                   22984210.0664
  -6295943.77947  -3771269.81944  23898007.3984                   23898006.2384
 11  8 16  3 51 30.0000000  0  9G18G15G12G25G26G29G05G02G21
  -5049589.95946  -3118916.24843  23677736.5634                   23677736.7544
 -13916274.259 8 -10829581.374 7  21914344.633
  -3327999.160 7  -2575703.702 6  24141171.320
  -9967783.226 7  -7751377.591 7  22888126.320
 -18125614.90048 -14086322.08745  21449957.0634                   21449957.4844
 -21939403.673 8 -17078047.735 8  20534192.156
 -13907976.003 7 -10820922.857 7  22070311.289
  -9054754.03647  -7006879.91744  22994861.8754                   22994860.1484
  -6356006.85047  -3818072.15844  23886577.3674                   23886576.3404
 11  8 16  3 52  0.0000000  0  9G18G15G12G25G26G29G05G02G21
  -5127237.58846  -3179420.84643  23662961.1804                   23662960.4734
 -13996197.285 8 -10891859.026 7  21899136.109
  -3233138.743 6  -2501786.551 6  24159222.406
  -9894442.556 7  -7694229.036 7  22902082.391
 -18168508.46047 -14119745.62545  21441794.3984                   21441795.0354
 -21978733.907 8 -17108694.674 8  20526707.758
 -13827911.784 7 -10758535.180 7  22085546.492
  -8998658.09947  -6963168.82144  23005536.8834                   23005534.8634
  -6416102.94547  -3864900.25644  23875141.2664                   23875140.3794
 11  8 16  3 52 30.0000000  0  9G18G15G12G25G26G29G05G02G21
  -5204660.32846  -3239750.19543  23648228.0634                   23648227.8954
 -14075790.341 8 -10953879.551 7  21883989.953
  -3138325.417 6  -2427906.104 6  24177265.117
  -9820868.374 7  -7636898.512 7  22916082.930
 -18210805.50048 -14152704.35045  21433745.9694                   21433746.1684
 -22017623.050 8 -17138997.895 8  20519307.477
 -13747678.524 8 -10696015.772 7  22100814.539
  -8942431.97747  -6919356.27644  23016236.5944                   23016234.2234
  -6476232.03647  -3911754.02644  23863699.4224                   23863698.3594
 11  8 16  3 53  0.0000000  0  9G18G15G12G25G26G29G05G02G21
  -5281856.68246  -3299903.13743  23633537.2894                   23633537.5904
 -14155049.436 7 -11015639.857 7  21868907.031
  -3043560.933 7  -2354063.722 6  24195298.859
  -9747062.855 7  -7579387.744 7  22930128.211
 -18252502.85947 -14185195.78145  21425811.2114                   21425811.2704
 -22056068.041 8 -17168955.022 8  20511991.656
 -13667277.239 7 -10633365.432 7  22116114.734
  -8886074.38947  -6875441.30344  23026960.6724                   23026959.5314
  -6536393.44047  -3958633.00344  23852250.9924                   23852249.5234
 11  8 16  3 53 30.0000000  0  9G18G15G12G25G26G29G05G02G21
  -5358826.24547  -3359879.36843  23618890.3984                   23618890.4414
 -14233972.444 7 -11077138.276 7  21853888.688
  -2948848.991 6  -2280262.279 6  24213321.250
  -9673029.962 7  -7521699.782 7  22944215.930
 -18293598.76447 -14217218.55845  21417991.1174                   21417990.9734
 -22094067.794 8 -17198565.211 8  20504760.375
 -13586710.973 7 -10570586.537 7  22131445.305
  -8829585.75647  -6831424.20444  23037709.8834                   23037708.5664
  -6596588.15447  -4005537.91743  23840795.7504                   23840795.3404
 11  8 16  3 54  0.0000000  0  9G18G15G12G25G26G29G05G02G21
  -5435568.58846  -3419678.53744  23604287.1884                   23604287.2194
 -14312556.768 8 -11138372.798 7  21838934.719
  -2854192.702 6  -2206504.171 6  24231334.352
  -9598772.924 7  -7463837.168 7  22958346.750
 -18334091.09947 -14248771.01145  21410285.2814                   21410285.5704
 -22131620.424 8 -17227827.001 8  20497614.055
 -13505982.164 7 -10507680.985 7  22146808.188
  -8772965.78047  -6787304.75644  23048485.4304                   23048482.3674
  -6656816.40147  -4052468.95044  23829335.4144                   23829334.5314
 11  8 16  3 54 30.0000000  0  9G18G15G12G25G26G29G05G02G21
  -5512082.11547  -3479299.43744  23589727.9224                   23589727.1844
 -14390798.382 8 -11199340.241 7  21824045.719
  -2759593.796 6  -2132790.780 6  24249335.086
  -9524293.948 7  -7405801.622 7  22972519.383
 -18373976.78848 -14279850.74845  21402695.4844                   21402695.5704
 -22168723.264 8 -17256738.290 8  20490554.258
 -13425091.957 7 -10444649.666 7  22162200.773
  -8716213.37747  -6743082.12344  23059284.4924                   23059282.8014
  -6717077.05747  -4099425.29244  23817868.5314                   23817867.7384
 11  8 16  3 55  0.0000000  0  9G18G15G12G25G26G29G05G02G21
  -5588366.38047  -3538741.66743  23575210.6414                   23575211.1954
 -14468694.563 8 -11260038.540 7  21809222.797
  -2665055.131 6  -2059124.328 6  24267325.898
  -9449596.527 7  -7347595.831 7  22986734.422
 -18413253.65247 -14310456.08645  21395221.4454                   21395221.4344
 -22205374.385 7 -17285297.596 8  20483579.617
 -13344043.091 7 -10381494.708 7  22177623.914
  -8659328.17247  -6698755.99844  23070109.4144                   23070107.2854
  -6777371.22347  -4146407.69544  23806393.9774                   23806393.5274
 11  8 16  3 55 30.0000000  0  9G18G15G12G25G26G29G05G02G21
  -5664421.37547  -3598005.25044  23560738.2424                   23560738.1374
 -14546243.165 8 -11320466.006 7  21794465.266
  -2570579.934 6  -1985507.336 6  24285303.789
  -9374684.300 7  -7289222.675 7  23000988.859
 -18451919.81248 -14340585.56145  21387863.1484                   21387863.2734
 -22241572.616 8 -17313504.017 8  20476691.273
 -13262838.157 7 -10318218.145 7  22193077.078
  -8602310.41547  -6654326.61044  23080959.6804                   23080956.7154
  -6837698.98147  -4193416.27244  23794914.3674                   23794913.2704
 11  8 16  3 56  0.0000000  0  9G18G15G12G25G26G29G05G02G21
  -5740245.73846  -3657089.12343  23546308.6954                   23546309.1954
 -14623440.600 7 -11380619.812 7  21779775.781
  -2476170.720 6  -1911941.794 6  24303268.797
  -9299559.852 7  -7230684.144 6  23015285.148
 -18489972.64548 -14370237.09745  21380622.0234                   21380622.1884
 -22277315.465 8 -17341355.583 8  20469889.938
 -13181478.915 7 -10254821.339 7  22208558.930
  -8545159.12847  -6609793.14444  23091834.3444                   23091832.7074
  -6898059.94447  -4240450.74544  23783428.0234                   23783427.0784
 11  8 16  3 56 30.0000000  0  9G18G15G12G25G26G29G05G02G21
  -5815839.22047  -3715993.07943  23531924.3444                   23531924.2504
 -14700284.246 7 -11440497.954 7  21765152.133
  -2381830.199 7  -1838429.731 6  24321221.375
  -9224226.641 7  -7171982.926 6  23029620.234
 -18527410.13747 -14399409.15545  21373498.3444                   21373498.7034
 -22312601.298 8 -17368851.043 8  20463175.070
 -13099967.950 7 -10191306.309 7  22224070.305
  -8487874.42447  -6565155.74444  23102736.5474                   23102734.0234
  -6958454.63047  -4287511.47544  23771934.7584                   23771933.8914
 11  8 16  3 57  0.0000000  0  9G18G15G12G25G26G29G05G02G21
  -5891200.60947  -3774716.21643  23517583.4694                   23517583.1134
 -14776770.652 8 -11500097.733 7  21750597.641
  -2287560.431 7  -1764972.816 6  24339161.336
  -9148687.072 7  -7113120.951 6  23043995.125
 -18564229.27647 -14428099.37945  21366491.3984                   21366491.4694
 -22347428.012 7 -17395988.738 8  20456547.531
 -13018306.702 7 -10127674.183 7  22239609.594
  -8430455.10547  -6520413.43844  23113662.6724                   23113660.1724
  -7018881.98747  -4334597.69444  23760436.2274                   23760435.1254
 11  8 16  3 57 30.0000000  0  9G18G15G12G25G26G29G05G02G21
  -5966330.21747  -3833258.70843  23503286.3984                   23503286.3634
 -14852898.449 8 -11559418.079 7  21736111.055
  -2193365.892 6  -1691574.519 6  24357085.242
  -9072945.751 7  -7054101.760 7  23058408.336
 -18600429.73848 -14456307.52045  21359603.1954                   21359603.0824
 -22381794.777 8 -17422768.042 8  20450007.664
 -12936498.739 7 -10063927.719 7  22255177.109
  -8372902.36047  -6475567.17944  23124614.5864                   23124612.1334
  -7079344.30947  -4381711.16144  23748930.8674                   23748929.8244
 11  8 16  3 58  0.0000000  0  9G18G15G12G25G26G29G05G02G21
  -6041226.13347  -3891619.10843  23489035.0394                   23489033.9264
 -14928663.050 8 -11618455.409 7  21721693.469
  -2099247.424 6  -1618235.512 6  24374994.922
  -8997004.110 7  -6994926.471 6  23072859.750
 -18636007.26447 -14484030.25345  21352832.8754                   21352833.0784
 -22415697.874 8 -17449186.036 8  20443556.328
 -12854544.555 7 -10000067.321 7  22270772.133
  -8315214.08447  -6430615.30544  23135591.8594                   23135590.7584
  -7139839.87447  -4428850.48944  23737418.8834                   23737417.2734
 11  8 16  3 58 30.0000000  0  9G18G15G12G25G26G29G05G02G21
  -6115888.01847  -3949797.13943  23474826.8134                   23474826.5634
 -15004061.915 8 -11677207.740 7  21707345.805
  -2005208.267 6  -1544958.308 6  24392890.547
  -8920865.952 7  -6935598.051 6  23087347.938
 -18670960.34648 -14511266.41745  21346181.3444                   21346181.1844
 -22449136.276 8 -17475241.928 8  20437193.102
 -12772446.991 7  -9936095.204 7  22286395.156
  -8257390.37946  -6385557.88144  23146596.0004                   23146593.9264
  -7200368.90347  -4476015.92644  23725900.1884                   23725899.0634
 11  8 16  3 59  0.0000000  0  9G18G15G12G25G26G29G05G02G21
  -6190314.95647  -4007792.12843  23460663.3134                   23460662.8324
 -15079091.758 8 -11735672.543 7  21693067.805
  -1911250.827 6  -1471744.769 6  24410770.430
  -8844533.981 7  -6876118.575 6  23101873.727
 -18705286.71148 -14538014.20745  21339649.0004                   21339649.2504
 -22482107.827 8 -17500934.036 8  20430918.578
 -12690207.891 7  -9872012.806 7  22302044.531
  -8199430.81247  -6340394.61644  23157624.4844                   23157622.6454
  -7260931.09847  -4523207.18344  23714375.5634                   23714374.2304
 11  8 16  3 59 30.0000000  0  9G18G15G12G25G26G29G05G02G21
  -6264508.00047  -4065604.85043  23446545.1414                   23446544.9304
 -15153750.690 8 -11793848.299 7  21678860.727
  -1817378.337 7  -1398597.434 6  24428633.461
  -8768012.324 7  -6816491.328 6  23116435.000
 -18738985.28748 -14564272.82145  21333236.7344                   21333236.7194
 -22514611.346 8 -17526261.455 8  20424733.766
 -12607830.158 7  -9807822.358 7  22317720.930
  -8141335.53046  -6295125.60544  23168679.5394                   23168677.9024
  -7321527.63347  -4570425.25244  23702844.1644                   23702843.8794
 11  8 16  4  0  0.0000000  0  9G18G15G12G25G26G29G05G02G21
  -6338464.66747  -4123233.39443  23432471.7114                   23432470.5664
 -15228035.204 8 -11851732.319 7  21664724.992
  -1723592.626 6  -1325517.753 6  24446480.539
  -8691303.139 7  -6756717.929 6  23131032.453
 -18772052.81147 -14590039.71345  21326944.0314                   21326944.1054
 -22546644.304 8 -17551222.198 8  20418637.656
 -12525314.880 8  -9743524.741 7  22333422.758
  -8083103.30247  -6249749.89244  23179761.4064                   23179759.7504
  -7382157.38047  -4617669.16644  23691307.4064                   23691306.3094
 11  8 16  4  0 30.0000000  0  9G18G15G12G25G26G29G05G02G21
  -6412186.21147  -4180678.70844  23418443.4144                   23418442.4884
 -15301944.329 8 -11909323.825 7  21650660.289
  -1629898.684 6  -1252509.523 6  24464309.102
  -8614411.345 7  -6696802.267 7  23145664.430
 -18804489.19747 -14615314.81145  21320771.3984                   21320771.0124
 -22578206.899 8 -17575816.422 8  20412631.742
 -12442666.227 8  -9679123.184 7  22349150.250
  -8024735.72747  -6204268.67544  23190868.2344                   23190866.5234
  -7442822.54647  -4664940.67344  23679762.2194                   23679762.3594
 11  8 16  4  1  0.0000000  0  9G18G15G12G25G26G29G05G02G21
  -6485669.84047  -4237938.62843  23404459.1484                   23404458.6214
 -15375472.695 8 -11966618.647 7  21636668.539
  -1536296.366 6  -1179572.746 6  24482122.219
  -8537337.844 7  -6636744.987 7  23160330.813
 -18836290.08848 -14640094.71845  21314719.7034                   21314719.9804
 -22609294.880 8 -17600040.833 8  20406715.758
 -12359884.204 8  -9614617.718 7  22364903.430
  -7966230.10347  -6158679.91344  23202001.9534                   23201999.8954
  -7503520.37947  -4712237.62644  23668212.3754                   23668211.7194
 11  8 16  4  1 30.0000000  0  9G18G15G12G25G26G29G05G02G21
  -6558915.17547  -4295012.88943  23390520.2974                   23390520.4104
 -15448617.605 8 -12023614.652 7  21622748.820
  -1442788.653 6  -1106709.630 6  24499916.289
  -8460085.770 7  -6576548.616 7  23175031.734
 -18867453.66748 -14664378.00745  21308789.6024                   21308789.9844
 -22639906.316 8 -17623893.893 8  20400890.711
 -12276970.708 7  -9550009.776 7  22380680.711
  -7907586.14947  -6112983.32744  23213161.3284                   23213159.4964
  -7564251.37747  -4759560.46144  23656655.5004                   23656654.6174
 11  8 16  4  2  0.0000000  0  9G18G15G12G25G26G29G05G02G21
  -6631923.68047  -4351902.61344  23376627.9384                   23376627.6804
 -15521378.298 8 -12080311.287 7  21608903.063
  -1349379.969 6  -1033923.723 6  24517691.484
  -8382660.403 7  -6516217.165 7  23189765.508
 -18897980.12648 -14688164.84745  21302980.9694                   21302981.1644
 -22670042.027 8 -17647376.268 8  20395155.953
 -12193929.979 7  -9485302.713 7  22396482.813
  -7848805.28946  -6067180.08244  23224346.7194                   23224344.5944
  -7625017.62547  -4806910.72344  23645092.0394                   23645090.8554
 11  8 16  4  2 30.0000000  0  9G18G15G12G25G26G29G05G02G21
  -6704692.45147  -4408605.52544  23362780.5084                   23362779.9494
 -15593749.706 8 -12136704.576 7  21595131.375
  -1256070.383 6   -961215.059 6  24535447.711
  -8305062.550 7  -6455751.322 7  23204531.734
 -18927865.05148 -14711451.79445  21297293.7344                   21297293.9614
 -22699697.769 8 -17670484.636 8  20389512.953
 -12110761.938 7  -9420496.436 7  22412309.258
  -7789885.25246  -6021268.40544  23235558.7194                   23235556.8364
  -7685816.56547  -4854286.47744  23633522.2974                   23633521.1914
 11  8 16  4  3  0.0000000  0  9G18G15G12G25G26G29G05G02G21
  -6777222.46747  -4465122.39244  23348978.3834                   23348978.1684
 -15665730.524 8 -12192793.506 7  21581434.023
  -1162864.646 6   -888587.304 6  24553183.969
  -8227296.844 7  -6395154.656 7  23219330.234
 -18957108.09648 -14734238.57445  21291728.8444                   21291728.7734
 -22728873.345 8 -17693218.870 8  20383961.148
 -12027469.911 8  -9355593.547 7  22428159.797
  -7730826.73846  -5975248.83844  23246798.3284                   23246795.5554
  -7746649.64046  -4901688.80644  23621945.5864                   23621944.7504
 11  8 16  4  3 30.0000000  0  9G18G15G12G25G26G29G05G02G21
  -6849512.81547  -4521452.53244  23335222.6644                   23335221.8954
 -15737317.299 8 -12248575.396 7  21567811.289
  -1069764.471 6   -816041.803 6  24570900.617
  -8149365.972 7  -6334429.331 7  23234160.016
 -18985707.25347 -14756523.61645  21286286.6954                   21286286.5864
 -22757566.601 8 -17715577.252 8  20378500.867
 -11944055.702 8  -9290595.463 7  22444032.867
  -7671629.34446  -5929121.03544  23258062.3364                   23258060.2114
  -7807516.32946  -4949117.36644  23610363.5784                   23610362.8594
 11  8 16  4  4  0.0000000  0  9G18G15G12G25G26G29G05G02G21
  -6921562.45447  -4577595.05944  23321511.9144                   23321511.6724
 -15808507.123 8 -12304047.957 7  21554264.313
   -976772.078 6   -743580.289 6  24588595.836
  -8071272.397 7  -6273577.208 7  23249020.578
 -19013659.85547 -14778304.84645  21280967.5084                   21280967.6684
 -22785774.881 8 -17737557.735 8  20373132.961
 -11860520.840 8  -9225503.360 7  22459928.930
  -7612291.88146  -5882884.07344  23269353.6484                   23269351.9024
  -7868416.11747  -4996571.66044  23598774.4224                   23598774.0164
 11  8 16  4  4 30.0000000  0  9G18G15G12G25G26G29G05G02G21
  -6993371.16847  -4633549.86844  23307846.7034                   23307846.3204
 -15879297.754 8 -12359209.491 7  21540793.453
   -883890.642 6   -671205.276 6  24606269.680
  -7993020.034 7  -6212601.389 6  23263911.938
 -19040964.90347 -14799581.49445  21275771.7344                   21275771.5394
 -22813497.484 8 -17759159.775 8  20367857.664
 -11776868.091 7  -9160319.376 7  22475847.352
  -7552814.73846  -5836538.26244  23280671.6884                   23280670.0474
  -7929349.49447  -5044052.18744  23587179.5784                   23587178.8714
 11  8 16  4  5  0.0000000  0  9G18G15G12G25G26G29G05G02G21
  -7064938.96647  -4689316.95844  23294227.8984                   23294227.3164
 -15949686.685 8 -12414057.974 7  21527398.797
   -791123.284 6   -598919.077 6  24623923.758
  -7914612.344 7  -6151504.504 6  23278832.164
 -19067620.94848 -14820352.43145  21270698.7664                   21270699.1454
 -22840733.231 8 -17780382.441 8  20362674.953
 -11693099.821 7  -9095045.374 7  22491787.898
  -7493197.95646  -5790083.66944  23292016.6024                   23292014.8594
  -7990316.75547  -5091559.10344  23575577.9614                   23575576.9694
 11  8 16  4  5 30.0000000  0  9G18G15G12G25G26G29G05G02G21
  -7136264.54447  -4744895.29544  23280655.4224                   23280654.4304
 -16019670.567 8 -12468590.853 7  21514081.367
   -698471.277 6   -526722.787 6  24641554.773
  -7836051.497 7  -6090288.263 6  23293781.453
 -19093625.27447 -14840615.52545  21265750.3754                   21265750.4344
 -22867479.337 8 -17801223.560 8  20357584.938
 -11609217.184 7  -9029682.258 7  22507750.672
  -7433440.18846  -5743519.19044  23303388.2584                   23303386.8484
  -8051317.45747  -5139092.06444  23563969.8204                   23563969.4534
 11  8 16  4  6  0.0000000  0  9G18G15G12G25G26G29G05G02G21
  -7207348.02347  -4800285.04144  23267128.6644                   23267127.8954
 -16089247.037 8 -12522806.271 7  21500841.063
   -605938.019 6   -454618.976 6  24659163.070
  -7757341.366 7  -6028955.697 6  23308759.805
 -19118977.01847 -14860370.12645  21260926.4774                   21260926.7274
 -22893734.982 8 -17821682.496 8  20352588.922
 -11525222.893 7  -8964232.140 7  22523733.781
  -7373541.88847  -5696845.22844  23314786.6254                   23314785.1804
  -8112351.82147  -5186651.25644  23552355.2974                   23552354.5554
 11  8 16  4  6 30.0000000  0  9G18G15G12G25G26G29G05G02G21
  -7278187.64647  -4855484.69344  23253648.3134                   23253647.7974
 -16158412.150 8 -12576701.151 7  21487679.719
   -513524.841 6   -382608.788 6  24676749.773
  -7678483.802 7  -5967508.288 6  23323766.180
 -19143673.25048 -14879613.93845  21256226.8914                   21256226.4734
 -22919497.327 8 -17841757.058 8  20347686.352
 -11441117.719 7  -8898695.636 7  22539738.180
  -7313501.51547  -5650060.52944  23326211.8284                   23326209.9344
  -8173418.66547  -5234235.78244  23540734.5084                   23540732.8594
 11  8 16  4  7  0.0000000  0  9G18G15G12G25G26G29G05G02G21
  -7348784.02147  -4910494.83644  23240213.7504                   23240213.7704
 -16227164.516 8 -12630274.415 7  21474596.859
   -421235.439 6   -310695.060 6  24694311.781
  -7599483.120 7  -5905949.310 6  23338799.281
 -19167713.16948 -14898346.33045  21251652.0864                   21251651.5704
 -22944765.745 8 -17861446.725 8  20342877.984
 -11356904.804 7  -8833075.187 7  22555763.891
  -7253319.35647  -5603165.37144  23337664.6024                   23337663.0554
  -8234518.94147  -5281846.31944  23529106.5004                   23529106.0824
 11  8 16  4  7 30.0000000  0  9G18G15G12G25G26G29G05G02G21
  -7419137.22847  -4965315.48344  23226826.5784                   23226826.3094
 -16295502.099 7 -12683524.470 7  21461592.328
   -329073.111 6   -238880.297 6  24711850.398
  -7520342.989 7  -5844281.723 6  23353859.313
 -19191096.12548 -14916566.79445  21247202.2664                   21247202.1254
 -22969539.360 8 -17880750.838 8  20338163.711
 -11272586.482 7  -8767372.602 7  22571809.063
  -7192996.00247  -5556160.13544  23349142.7424                   23349141.6134
  -8295653.10047  -5329483.26244  23517473.4454                   23517472.7194
 11  8 16  4  8  0.0000000  0  9G18G15G12G25G26G29G05G02G21
  -7489244.53347  -5019944.55944  23213484.9064                   23213484.9064
 -16363419.655 7 -12736447.219 7  21448668.250
   -237037.760 6   -167164.496 5  24729363.070
  -7441064.322 7  -5782506.133 6  23368945.945
 -19213818.29748 -14934272.37545  21242878.4304                   21242878.7464
 -22993814.309 8 -17899666.388 8  20333544.672
 -11188163.186 7  -8701588.221 7  22587874.797
  -7132528.88347  -5509042.91644  23360649.7504                   23360648.2464
  -8356818.79547  -5377144.83144  23505834.0004                   23505833.6174
 11  8 16  4  8 30.0000000  0  9G18G15G12G25G26G29G05G02G21
  -7559106.01846  -5074382.06744  23200190.8984                   23200190.6994
 -16430915.042 7 -12789041.027 7  21435823.742
   -145132.243 5    -95549.857 5  24746851.547
  -7361650.411 7  -5720625.194 6  23384056.789
 -19235878.09248 -14951461.80345  21238681.0084                   21238680.6214
 -23017589.527 8 -17918192.532 8  20329020.234
 -11103636.779 7  -8635723.462 7  22603959.180
  -7071917.87247  -5461813.59244  23372184.0314                   23372182.1804
  -8418016.27647  -5424831.14744  23494188.8444                   23494188.0984
 11  8 16  4  9  0.0000000  0  8G18G15G25G26G29G05G02G21
  -7628723.97147  -5128629.78644  23186943.1484                   23186942.4384
 -16497988.512 8 -12841306.061 7  21423060.438
  -7282107.235 7  -5658643.495 6  23399194.305
 -19257277.06947 -14968136.32145  21234608.2584                   21234608.7304
 -23040866.214 8 -17936330.202 8  20324590.852
 -11019011.858 7  -8569781.960 7  22620062.383
  -7011165.46747  -5414474.02644  23383744.6174                   23383743.1214
  -8479248.39947  -5472544.44944  23482536.6254                   23482535.5234
 11  8 16  4  9 30.0000000  0  8G18G15G25G26G29G05G02G21
  -7698096.31247  -5182686.14644  23173742.7344                   23173741.7154
 -16564635.632 8 -12893238.855 7  21410378.086
  -7202436.444 7  -5596562.396 7  23414354.680
 -19278012.24547 -14984293.59445  21230662.6414                   21230662.7894
 -23063641.364 8 -17954077.084 8  20320256.641
 -10934289.060 7  -8503764.201 7  22636185.094
  -6950269.69247  -5367022.81044  23395332.8284                   23395330.6994
  -8540513.40247  -5520283.38244  23470878.4224                   23470877.3324
 11  8 16  4 10  0.0000000  0  8G18G15G25G26G29G05G02G21
  -7767221.75347  -5236550.12644  23160588.0234                   23160587.4184
 -16630853.090 8 -12944836.856 7  21397777.063
  -7122640.218 7  -5534383.536 6  23429539.422
 -19298081.11748 -14999931.66645  21226843.8834                   21226843.8984
 -23085912.396 8 -17971431.129 8  20316018.977
 -10849469.537 7  -8437671.039 7  22652325.445
  -6889229.44647  -5319458.99144  23406948.0864                   23406946.7384
  -8601810.27647  -5568047.13344  23459214.5554                   23459213.2034
 11  8 16  4 10 30.0000000  0  8G18G15G25G26G29G05G02G21
  -7836101.18947  -5290222.39244  23147480.3984                   23147480.0824
 -16696639.532 8 -12996099.003 7  21385258.531
  -7042722.926 7  -5472110.341 6  23444747.602
 -19317483.59348 -15015050.46545  21223151.4844                   21223151.5744
 -23107679.030 8 -17988392.151 8  20311876.836
 -10764556.618 7  -8371505.148 7  22668483.938
  -6828045.44447  -5271783.12544  23418591.1644                   23418589.5084
  -8663140.10947  -5615836.56244  23447543.5314                   23447542.1174
 11  8 16  4 11  0.0000000  0  8G18G15G25G26G29G05G02G21
  -7904733.35447  -5343701.97144  23134420.2734                   23134419.2734
 -16761991.811 8 -13047022.849 7  21372822.258
  -6962687.176 7  -5409744.834 6  23459977.789
 -19336217.83147 -15029648.56545  21219586.6414                   21219586.7344
 -23128939.602 8 -18004958.833 8  20307830.734
 -10679551.544 7  -8305267.392 7  22684659.508
  -6766717.19147  -5223994.89943  23430261.0394                   23430260.0594
  -8724502.07847  -5663651.06944  23435866.6644                   23435865.1134
 11  8 16  4 11 30.0000000  0  8G18G15G25G26G29G05G02G21
  -7973117.60847  -5396988.39544  23121407.0784                   23121406.6684
 -16826906.509 8 -13097605.703 7  21360468.945
  -6882535.237 7  -5347288.817 7  23475230.250
 -19354281.45148 -15043724.09745  21216149.5864                   21216149.5204
 -23149691.558 8 -18021129.182 8  20303881.914
 -10594455.625 7  -8238958.916 7  22700853.258
  -6705243.37046  -5176093.24443  23441959.1724                   23441957.2154
  -8785895.26047  -5711489.86244  23424183.8914                   23424182.3164
 11  8 16  4 12  0.0000000  0  8G18G15G25G26G29G05G02G21
  -8041254.85747  -5450082.35844  23108441.3444                   23108440.1524
 -16891382.434 8 -13147846.673 7  21348200.102
  -6802271.655 7  -5284745.778 6  23490504.094
 -19371674.86048 -15057277.39645  21212839.6174                   21212839.8204
 -23169934.708 8 -18036903.057 8  20300029.641
 -10509271.913 7  -8172581.979 7  22717063.297
  -6643625.00847  -5128078.90943  23453685.6174                   23453682.8954
  -8847321.45047  -5759354.41644  23412494.8594                   23412492.8364
 11  8 16  4 12 30.0000000  0  8G18G15G25G26G29G05G02G21
  -8109143.42347  -5502982.52344  23095522.5704                   23095521.5554
 -16955416.149 7 -13197743.058 7  21336014.680
  -6721898.499 7  -5222117.364 6  23505797.922
 -19388395.57847 -15070306.51445  21209657.3524                   21209657.4924
 -23189667.041 8 -18052278.889 8  20296274.813
 -10424001.488 7  -8106137.503 7  22733289.453
  -6581860.70146  -5079950.88444  23465438.6644                   23465436.4024
  -8908778.86747  -5807243.27644  23400800.3834                   23400798.2424
 11  8 16  4 13  0.0000000  0  8G18G15G25G26G29G05G02G21
  -8176784.08047  -5555689.49344  23082651.0704                   23082650.7194
 -17019005.921 8 -13247293.501 7  21323914.359
  -6641419.826 7  -5159406.748 6  23521112.602
 -19404443.34247 -15082811.25745  21206604.0314                   21206603.9454
 -23208887.992 8 -18067256.240 8  20292617.164
 -10338647.182 7  -8039627.665 7  22749531.859
  -6519951.26947  -5031709.77244  23477219.8754                   23477218.0664
  -8970268.55247  -5855157.27744  23389098.9534                   23389096.8874
 11  8 16  4 13 30.0000000  0  8G18G15G25G26G29G05G02G21
  -8244174.82047  -5608201.75644  23069827.0084                   23069826.2074
 -17082147.984 8 -13296495.081 7  21311898.641
  -6560837.226 7  -5096615.143 7  23536447.117
 -19419815.38248 -15094789.46445  21203678.7584                   21203678.3444
 -23227594.900 8 -18081833.048 8  20289057.344
 -10253209.384 7  -7973052.759 7  22765789.906
  -6457894.82646  -4983354.10044  23489028.3834                   23489027.3134
  -9031788.60347  -5903094.93544  23377391.1884                   23377390.6134
 11  8 16  4 14  0.0000000  0  8G18G15G25G26G29G05G02G21
  -8311316.12947  -5660519.62644  23057050.4144                   23057049.1684
 -17144839.891 8 -13345345.901 7  21299968.625
  -6480154.088 7  -5033745.216 6  23551800.297
 -19434510.89648 -15106240.49545  21200882.2424                   21200882.0354
 -23245786.305 8 -18096008.167 8  20285595.672
 -10167690.278 7  -7906414.508 7  22782063.859
  -6395691.31746  -4934883.84744  23500865.5164                   23500863.4654
  -9093339.34147  -5951056.51444  23365678.6414                   23365677.9414
 11  8 16  4 14 30.0000000  0  8G18G15G25G26G29G05G02G21
  -8378207.95347  -5712643.09744  23044321.5164                   23044320.9384
 -17207080.092 8 -13393844.741 7  21288124.344
  -6399374.501 7  -4970800.077 7  23567171.750
 -19448529.45848 -15117164.03545  21198214.4774                   21198214.7274
 -23263461.661 8 -18109781.156 8  20282232.141
 -10082092.897 7  -7839715.231 7  22798352.664
  -6333341.39446  -4886299.54943  23512730.2344                   23512728.8914
  -9154921.39847  -5999042.52644  23353959.5234                   23353959.3634
 11  8 16  4 15  0.0000000  0  8G18G15G25G26G29G05G02G21
  -8444850.01647  -5764571.93944  23031639.6724                   23031638.9924
 -17268866.194 8 -13441989.725 7  21276366.953
  -6318501.267 7  -4907781.998 7  23582561.961
 -19461870.03348 -15127559.27945  21195675.7504                   21195675.7854
 -23280620.155 8 -18123151.421 8  20278966.742
  -9996418.847 7  -7772956.252 7  22814656.078
  -6270844.52146  -4837600.68144  23524622.7424                   23524621.0704
  -9216534.60147  -6047052.79944  23342235.4694                   23342234.6054
 11  8 16  4 15 30.0000000  0  8G18G15G25G26G29G05G02G21
  -8511242.15247  -5816306.03344  23019005.6724                   23019004.9494
 -17330195.530 8 -13489778.794 7  21264696.820
  -6237537.567 7  -4844693.420 7  23597969.438
 -19474531.44848 -15137425.31445  21193266.8204                   21193266.9574
 -23297259.989 8 -18136117.526 8  20275800.266
  -9910669.934 7  -7706138.903 7  22830973.070
  -6208200.43547  -4788787.13244  23536544.1804                   23536542.3594
  -9278178.72047  -6095087.13744  23330505.4304                   23330504.2734
 11  8 16  4 16  0.0000000  0  8G18G15G25G26G29G05G02G21
  -8577383.52747  -5867844.74744  23006418.9844                   23006418.3054
 -17391065.094 8 -13537209.572 7  21253113.648
  -6156485.968 7  -4781536.375 6  23613393.102
 -19486512.13948 -15146760.90646  21190986.9924                   21190986.5594
 -23313379.576 8 -18148678.255 8  20272733.391
  -9824847.483 7  -7639264.267 7  22847305.102
  -6145408.35446  -4739858.24244  23548493.4384                   23548491.4694
  -9339852.84447  -6143144.87144  23318768.8594                   23318768.1454
 11  8 16  4 16 30.0000000  0  8G18G15G25G26G29G05G02G21
  -8643273.16647  -5919187.30544  22993880.8984                   22993880.0434
 -17451472.098 8 -13584279.938 7  21241618.125
  -6075348.907 6  -4718312.727 6  23628832.227
 -19497810.60348 -15155564.89445  21188836.8054                   21188836.4304
 -23328977.056 8 -18160832.137 8  20269765.188
  -9738952.829 7  -7572333.387 7  22863649.883
  -6082467.25546  -4690813.24944  23560470.1254                   23560468.1644
  -9401556.29547  -6191225.44844  23307026.7734                   23307025.9384
 11  8 16  4 17  0.0000000  0  8G18G15G25G26G29G05G02G21
  -8708912.95847  -5970335.17544  22981390.0234                   22981389.6524
 -17511416.332 8 -13630989.706 7  21230211.180
  -5994131.681 6  -4655026.628 6  23644287.383
 -19508427.76148 -15163837.99545  21186816.6024                   21186816.0824
 -23344053.364 8 -18172579.924 8  20266896.156
  -9652990.054 7  -7505349.429 7  22880007.633
  -6019379.14346  -4641653.70644  23572475.3914                   23572474.1454
  -9463290.75647  -6239330.19744  23295279.2034                   23295278.4104
 11  8 16  4 17 30.0000000  0  8G18G15G25G26G29G05G02G21
  -8774300.11747  -6021286.17544  22968947.3754                   22968946.3714
 -17570892.920 7 -13677335.082 7  21218893.359
  -5912834.847 7  -4591678.467 6  23659757.570
 -19518360.34948 -15171577.65945  21184925.9694                   21184926.4534
 -23358604.614 8 -18183918.556 8  20264127.047
  -9566958.411 7  -7438311.803 7  22896379.508
  -5956141.21746  -4592377.42844  23584509.6724                   23584507.1764
  -9525053.40347  -6287456.90144  23283526.3134                   23283525.1994
 11  8 16  4 18  0.0000000  0  8G18G15G25G26G29G05G02G21
  -8839435.70847  -6072041.14844  22956552.3984                   22956552.0864
 -17629900.254 8 -13723314.800 7  21207664.641
  -5831462.637 7  -4528271.543 6  23675243.578
 -19527608.66648 -15178784.13245  21183166.1254                   21183166.3794
 -23372631.011 8 -18194848.220 8  20261458.203
  -9480860.684 7  -7371222.695 7  22912762.375
  -5892754.44546  -4542985.14944  23596571.8834                   23596569.7774
  -9586845.39447  -6335606.47244  23271767.5474                   23271765.8794
 11  8 16  4 18 30.0000000  0  8G18G15G25G26G29G05G02G21
  -8904320.22847  -6122600.49844  22944205.1484                   22944204.3014
 -17688437.065 8 -13768927.871 7  21196525.438
  -5750019.057 7  -4464809.053 6  23690740.758
 -19536172.52648 -15185457.26645  21181536.5084                   21181536.2274
 -23386132.178 8 -18205368.612 8  20258888.867
  -9394699.836 7  -7304084.397 6  22929158.875
  -5829219.33946  -4493477.26844  23608661.1094                   23608660.4184
  -9648667.78747  -6383779.75044  23260003.6174                   23260001.8094
 11  8 16  4 19  0.0000000  0  8G18G15G25G26G29G05G02G21
  -8968950.75447  -6172961.89244  22931906.0474                   22931906.1914
 -17746498.838 8 -13814170.789 7  21185476.375
  -5668504.704 7  -4401291.372 6  23706252.750
 -19544048.78948 -15191594.60745  21180037.7114                   21180037.7154
 -23399104.513 8 -18215476.921 8  20256420.227
  -9308475.246 7  -7236896.431 6  22945567.461
  -5765533.30347  -4443851.83144  23620780.6484                   23620779.2504
  -9710517.43647  -6431974.23944  23248233.4224                   23248231.8794
 11  8 16  4 19 30.0000000  0  8G18G15G25G26G29G05G02G21
  -9033330.43447  -6223127.86144  22919655.0004                   22919654.5314
 -17804085.993 8 -13859043.864 7  21174517.656
  -5586925.580 7  -4337723.243 6  23721776.688
 -19551239.59248 -15197197.81745  21178669.1254                   21178669.8594
 -23411549.754 8 -18225174.510 8  20254052.141
  -9222191.724 7  -7169662.506 6  22961986.477
  -5701699.04347  -4394110.85544  23632928.7114                   23632926.4804
  -9772396.75147  -6480191.85844  23236458.4384                   23236456.8634
 11  8 16  4 20  0.0000000  0  8G18G15G25G26G29G05G02G21
  -9097456.76147  -6273096.40844  22907452.7974                   22907451.7934
 -17861193.782 8 -13903543.418 7  21163650.609
  -5505282.469 7  -4274105.283 6  23737312.820
 -19557741.76548 -15202264.44545  21177431.9694                   21177432.1334
 -23423464.617 8 -18234458.831 8  20251784.594
  -9135848.598 7  -7102382.164 6  22978417.125
  -5637713.67147  -4344252.14944  23645104.1094                   23645102.2974
  -9834303.74147  -6528431.05844  23224678.2584                   23224676.0984
 11  8 16  4 20 30.0000000  0  8G18G15G25G26G29G05G02G21
  -9161329.79547  -6322867.56744  22895297.7274                   22895297.1374
 -17917820.558 8 -13947668.161 7  21152875.164
  -5423578.831 7  -4210440.125 6  23752860.258
 -19563555.12447 -15206794.31245  21176325.7664                   21176325.9264
 -23434848.038 8 -18243329.034 8  20249618.633
  -9049448.166 7  -7035057.172 6  22994859.031
  -5573577.33846  -4294275.83344  23657308.1094                   23657306.4694
  -9896237.59147  -6576691.15344  23212891.8054                   23212890.5234
 11  8 16  4 21  0.0000000  0  8G18G15G25G26G29G05G02G21
  -9224949.30747  -6372441.16044  22883191.2814                   22883190.8094
 -17973963.898 8 -13991416.208 7  21142191.094
  -5341817.542 7  -4146730.066 6  23768419.352
 -19568678.77048 -15210786.75845  21175350.7504                   21175351.0004
 -23445699.286 8 -18251784.549 8  20247553.727
  -8962991.938 7  -6967688.688 6  23011310.477
  -5509290.01047  -4244181.83144  23669542.3054                   23669540.7114
  -9958198.81647  -6624972.63444  23201101.1484                   23201099.7584
 11  8 16  4 21 30.0000000  0  8G18G15G25G26G29G05G02G21
  -9288315.88447  -6421817.70844  22871133.0944                   22871132.1524
 -18029622.498 8 -14034786.532 7  21131600.031
  -5260002.675 7  -4082978.197 6  23783988.461
 -19573112.98647 -15214241.98045  21174506.6484                   21174507.2774
 -23456017.982 8 -18259825.090 8  20245590.016
  -8876482.914 7  -6900279.113 6  23027772.313
  -5444852.24047  -4193970.66044  23681804.7894                   23681803.0474
 -10020188.09547  -6673275.95544  23189305.3594                   23189304.2424
 11  8 16  4 22  0.0000000  0  8G18G15G25G26G29G05G02G21
  -9351427.91447  -6470995.88544  22859122.5784                   22859122.2814
 -18084792.708 8 -14077776.286 7  21121101.125
  -5178135.685 7  -4019185.806 6  23799567.047
 -19576855.64947 -15217158.32745  21173794.3984                   21173794.2854
 -23465801.642 8 -18267448.722 8  20243727.813
  -8789921.199 7  -6832828.436 6  23044244.430
  -5380262.34846  -4143640.88544  23694095.6954                   23694094.3484
 -10082203.15747  -6721599.36844  23177504.0394                   23177503.1454
 11  8 16  4 22 30.0000000  0  8G18G15G25G26G29G05G02G21
  -9414285.90147  -6519976.11444  22847161.6884                   22847160.6454
 -18139473.082 8 -14120384.357 7  21110695.758
  -5096220.367 7  -3955355.718 6  23815154.922
 -19579906.71848 -15219535.76645  21173213.7274                   21173214.0664
 -23475049.833 8 -18274655.105 8  20241968.227
  -8703309.087 7  -6765338.520 6  23060726.156
  -5315520.64646  -4093192.79544  23706415.3754                   23706413.5864
 -10144244.71447  -6769943.41544  23165697.9304                   23165697.2704
 11  8 16  4 23  0.0000000  0  8G18G15G25G26G29G05G02G21
  -9476891.10247  -6568759.35744  22835247.8914                   22835247.1174
 -18193662.102 8 -14162609.554 7  21100383.930
  -5014260.920 7  -3891491.248 6  23830750.945
 -19582267.00347 -15221374.95545  21172764.8134                   21172764.7974
 -23483763.001 8 -18281444.585 8  20240310.039
  -8616649.548 7  -6697811.621 6  23077217.102
  -5250628.00747  -4042627.12644  23718764.0944                   23718762.6994
 -10206313.48647  -6818308.66744  23153886.4534                   23153885.3674
 11  8 16  4 23 30.0000000  0  8G18G15G25G26G29G05G02G21
  -9539241.11347  -6617343.74744  22823383.6644                   22823382.6914
 -18247356.180 8 -14204449.084 7  21090166.195
  -4932258.447 7  -3827593.247 6  23846355.438
 -19583933.95948 -15222673.87745  21172447.6414                   21172447.6024
 -23491938.478 8 -18287815.081 8  20238754.492
  -8529942.377 7  -6630247.597 6  23093717.266
  -5185582.50546  -3991942.30944  23731141.0704                   23731140.4024
 -10268407.12947  -6866693.32644  23142070.2814                   23142068.8164
 11  8 16  4 24  0.0000000  0  8G18G15G25G26G29G05G02G21
  -9601337.66147  -6665730.65244  22811566.5634                   22811565.8714
 -18300554.706 8 -14245902.469 7  21080043.320
  -4850217.651 7  -3763665.382 6  23861967.555
 -19584908.70647 -15223433.40645  21172262.0164                   21172262.3754
 -23499576.832 8 -18293767.058 8  20237301.094
  -8443191.038 7  -6562649.139 6  23110225.531
  -5120385.65146  -3941139.56144  23743548.5234                   23743546.5354
 -10330527.09047  -6915098.48344  23130249.3524                   23130247.8404
 11  8 16  4 24 30.0000000  0  8G18G15G25G26G29G05G02G21
  -9663179.80247  -6713919.31244  22799798.7734                   22799797.6564
 -18353255.146 8 -14286967.752 7  21070014.531
  -4768140.827 7  -3699709.467 6  23877586.852
 -19585190.16447 -15223652.71545  21172208.5864                   21172208.5204
 -23506676.112 8 -18299298.978 8  20235950.211
  -8356396.625 7  -6495017.174 6  23126742.023
  -5055036.21246  -3890218.00144  23755983.2274                   23755982.7424
 -10392672.13447  -6963523.16544  23118423.5704                   23118421.9654
 11  8 16  4 25  0.0000000  0  8G18G15G25G26G29G05G02G21
  -9724765.44447  -6761908.06444  22788079.1644                   22788078.7664
 -18405452.568 8 -14327641.055 7  21060081.797
  -4686028.957 6  -3635726.203 6  23893211.648
 -19584775.78247 -15223329.80945  21172287.3134                   21172288.3014
 -23513233.465 8 -18304408.619 8  20234701.984
  -8269558.693 7  -6427351.264 6  23143266.289
  -4989532.13846  -3839175.88143  23768449.1564                   23768447.3834
 -10454839.86747  -7011965.54844  23106593.9384                   23106591.5434
 11  8 16  4 25 30.0000000  0  8G18G15G25G26G29G05G02G21
  -9786097.56747  -6809699.30344  22776407.2664                   22776407.5634
 -18457148.513 8 -14367923.611 7  21050244.078
  -4603888.172 6  -3571720.429 6  23908842.406
 -19583668.52848 -15222467.00745  21172497.9304                   21172497.8364
 -23519251.150 8 -18309097.731 8  20233557.164
  -8182682.173 6  -6359655.303 6  23159798.211
  -4923876.32346  -3788015.50643  23780943.2344                   23780941.4774
 -10517033.00047  -7060427.70844  23094758.5554                   23094757.3554
 11  8 16  4 26  0.0000000  0  8G18G15G25G26G29G05G02G21
  -9847174.59247  -6857291.76644  22764785.0314                   22764784.5904
 -18508339.313 8 -14407812.534 7  21040503.016
  -4521719.893 7  -3507693.246 6  23924479.195
 -19581866.25147 -15221062.61745  21172841.2584                   21172841.7154
 -23524726.870 8 -18313364.527 8  20232514.969
  -8095766.889 7  -6291929.128 6  23176338.086
  -4858067.00046  -3736735.56743  23793465.7344                   23793463.8484
 -10579249.60347  -7108908.16044  23082918.7424                   23082918.0634
 11  8 16  4 26 30.0000000  0  8G18G15G25G26G29G05G02G21
  -9907997.30547  -6904686.06544  22753211.0234                   22753210.0204
 -18559023.554 8 -14447306.746 7  21030857.531
  -4439527.908 7  -3443647.538 6  23940119.711
 -19579369.36248 -15219116.98545  21173316.3754                   21173316.5594
 -23529660.290 8 -18317208.768 8  20231576.586
  -8008815.399 7  -6224174.736 7  23192884.047
  -4792104.30146  -3685336.08843  23806018.3754                   23806016.2034
 -10641490.42347  -7157407.41944  23071075.1414                   23071073.8444
 11  8 16  4 27  0.0000000  0  8G18G15G25G26G29G05G02G21
  -9968564.44847  -6951881.21444  22741685.1564                   22741685.2384
 -18609198.235 8 -14486403.891 7  21021310.047
  -4357313.889 6  -3379584.705 6  23955764.578
 -19576176.33848 -15216628.89745  21173923.6334                   21173923.7544
 -23534049.500 8 -18320628.936 8  20230741.180
  -7921828.170 7  -6156392.484 6  23209437.320
  -4725987.27246  -3633816.35243  23818601.3674                   23818598.2034
 -10703753.42747  -7205923.98644  23059227.1954                   23059225.6054
 11  8 16  4 27 30.0000000  0  8G18G15G25G26G29G05G02G21
 -10028876.34047  -6998877.46544  22730208.3444                   22730207.8164
 -18658861.928 8 -14525102.874 7  21011859.328
  -4275081.755 6  -3315507.755 6  23971411.930
 -19572287.90848 -15213598.94145  21174663.4694                   21174663.4884
 -23537894.580 8 -18323625.109 8  20230009.531
  -7834807.753 7  -6088584.378 6  23225996.930
  -4659716.26046  -3582176.63043  23831210.7974                   23831209.2344
 -10766038.98047  -7254458.12844  23047374.2034                   23047373.1764
 11  8 16  4 28  0.0000000  0  8G18G15G25G26G29G05G02G21
 -10088933.56347  -7045675.28044  22718780.2974                   22718779.6844
 -18708013.003 8 -14563402.403 7  21002506.375
  -4192834.743 7  -3251419.167 6  23987063.508
 -19567703.95148 -15210027.01645  21175536.1884                   21175536.0204
 -23541195.044 8 -18326196.900 8  20229381.352
  -7747755.943 7  -6020751.799 7  23242562.328
  -4593291.55546  -3530417.12543  23843850.8524                   23843849.5004
 -10828347.07147  -7303009.82745  23035517.5314                   23035516.5664
 11  8 16  4 28 30.0000000  0  8G18G15G25G26G29G05G02G21
 -10148735.23647  -7092273.92844  22707400.3594                   22707399.5314
 -18756648.612 8 -14601300.285 7  20993251.516
  -4110574.995 7  -3187320.680 6  24002716.688
 -19562423.77848 -15205912.58645  21176541.1254                   21176540.9574
 -23543949.263 8 -18328343.047 8  20228857.359
  -7660673.595 7  -5952895.447 6  23259133.625
  -4526712.10446  -3478537.06143  23856520.4064                   23856519.2154
 -10890676.61047  -7351578.23744  23023656.3364                   23023655.4344
 11  8 16  4 29  0.0000000  0  8G18G15G25G26G29G05G02G21
 -10208280.83247  -7138673.05344  22696068.9454                   22696067.9534
 -18804766.432 8 -14638794.659 7  20984094.945
  -4028305.129 7  -3123214.345 6  24018373.055
 -19556446.74048 -15201255.14445  21177678.2274                   21177678.1644
 -23546156.203 8 -18330062.760 8  20228437.219
  -7573561.957 7  -5885016.255 7  23275710.063
  -4459977.40546  -3426536.04143  23869220.1174                   23869218.1604
 -10953026.81847  -7400162.79444  23011791.0084                   23011789.8364
 11  8 16  4 29 30.0000000  0  8G18G15G25G26G29G05G02G21
 -10267571.19547  -7184873.31344  22684786.7114                   22684785.2704
 -18852365.584 8 -14675884.915 7  20975036.977
  -3946029.141 7  -3059103.177 6  24034028.773
 -19549773.59448 -15196055.27845  21178948.2504                   21178947.7814
 -23547816.113 8 -18331356.203 8  20228121.336
  -7486423.674 7  -5817116.331 6  23292292.773
  -4393088.08546  -3374414.51143  23881948.3284                   23881947.1374
 -11015398.18947  -7448763.83144  22999923.1024                   22999920.7464
 11  8 16  4 30  0.0000000  0  8G18G15G25G26G29G05G02G21
 -10326605.22047  -7230873.79944  22673552.3134                   22673551.8484
 -18899443.548 8 -14712569.036 7  20966078.266
  -3863749.063 7  -2994988.866 6  24049686.953
 -19542403.54648 -15190312.36645  21180350.5944                   21180350.5354
 -23548927.469 8 -18332222.204 8  20227909.867
  -7399259.614 6  -5749196.286 6  23308879.484
  -4326043.43446  -3322171.93143  23894706.7974                   23894705.3484
 -11077789.42647  -7497380.36144  22988050.3284                   22988047.5744
 11  8 16  4 30 30.0000000  0  8G18G15G25G26G29G05G02G21
 -10385384.83847  -7276676.06444  22662367.4064                   22662366.2344
 -18945999.188 8 -14748846.144 7  20957219.359
  -3781469.040 7  -2930874.552 6  24065344.094
 -19534337.47848 -15184027.10245  21181885.5554                   21181885.1374
 -23549490.929 8 -18332661.270 8  20227802.766
  -7312072.281 6  -5681258.110 7  23325470.063
  -4258844.12846  -3269808.83743  23907494.5864                   23907493.0984
 -11140201.16147  -7546012.83344  22976172.7504                   22976170.8594
 11  8 16  4 31  0.0000000  0  8G18G15G25G26G29G05G02G21
 -10443908.50647  -7322278.89944  22651230.4694                   22651230.0274
 -18992029.409 8 -14784713.838 7  20948459.766
  -3699190.508 7  -2866761.426 6  24081000.766
 -19525574.04248 -15177198.44245  21183553.3364                   21183552.6914
 -23549504.098 8 -18332671.552 8  20227800.359
  -7224861.936 7  -5613302.020 6  23342065.609
  -4191488.60646  -3217324.06743  23920312.6094                   23920310.5744
 -11202631.54147  -7594659.86044  22964293.1024                   22964291.3094
 11  8 16  4 31 30.0000000  0  8G18G15G25G26G29G05G02G21
 -10502176.59647  -7367682.56144  22640142.4064                   22640141.9734
 -19037533.410 8 -14820171.480 7  20939800.523
  -3616917.446 7  -2802652.551 6  24096656.984
 -19516114.48348 -15169827.34845  21185353.3524                   21185353.2624
 -23548967.492 8 -18332253.429 8  20227902.305
  -7137631.045 7  -5545329.888 6  23358665.219
  -4123977.61746  -3164718.13043  23933158.5084                   23933157.3364
 -11265080.98347  -7643321.71145  22952409.3134                   22952408.0274
 11  8 16  4 32  0.0000000  0  8G18G15G25G26G29G05G02G21
 -10560188.50347  -7412886.61445  22629103.0394                   22629102.2384
 -19082508.045 8 -14855216.625 7  20931242.203
  -3534651.880 7  -2738549.522 6  24112311.492
 -19505957.68948 -15161912.94745  21187285.9384                   21187286.1174
 -23547879.593 8 -18331405.733 8  20228109.672
  -7050380.341 7  -5477342.356 6  23375268.383
  -4056310.45546  -3111990.51343  23946035.1254                   23946034.0594
 -11327547.91447  -7691997.20345  22940522.3594                   22940520.9574
